[[{"header":{"parameterUnit":"m.s-1","parameterCategory":1,"la1":30.6,"la2":29.2853,"lo1":-89.7004,"lo2":-87.6739,"dy":0.0162,"dx":0.0183,"nx":112,"ny":82,"refTime":"2024-08-18T12:00:00:Z","depth":0,"parameterNumber":2,"parameterNumberName":"U-component_of_WINDS"},"data":[0.0,0.0,0.0,0.0,0.0,0.0,0.0,0.0,0.0,0.0,0.0,0.0,0.0,0.0,0.0,0.0,0.0,0.0,0.0,0.0,0.0,0.0,0.0,0.0,0.0,0.0,0.0,0.0,0.0,0.0,0.0,0.0,0.0,0.0,0.0,0.0,0.0,0.0,0.0,0.0,0.0,0.0,0.0,0.0,0.0,0.0,0.0,0.0,0.0,0.0,0.0,0.0,0.0,0.0,0.0,0.0,0.0,0.0,0.0,0.0,0.0,0.0,0.0,0.0,0.0,0.0,0.0,0.0,0.0,0.0,0.0,0.0,0.0,0.0,0.0,0.0,0.0,0.0,0.0,0.0,0.0,0.0,0.0,0.0,0.0,0.0,0.0,0.0,0.0,0.0,-3.2452,-3.5744,-3.8286,-3.9506,-3.8962,-3.9542,-3.7884,-3.3106,0.0,0.0,0.0,0.0,0.0,0.0,0.0,0.0,0.0,0.0,0.0,0.0,0.0,0.0,0.0,0.0,0.0,0.0,0.0,0.0,0.0,0.0,0.0,0.0,0.0,0.0,0.0,0.0,0.0,0.0,0.0,0.0,0.0,0.0,0.0,0.0,0.0,0.0,0.0,0.0,0.0,0.0,0.0,0.0,0.0,0.0,0.0,0.0,0.0,0.0,0.0,0.0,0.0,0.0,0.0,0.0,0.0,0.0,0.0,0.0,0.0,0.0,0.0,0.0,0.0,0.0,0.0,0.0,0.0,0.0,0.0,0.0,0.0,0.0,0.0,0.0,0.0,0.0,0.0,0.0,0.0,0.0,0.0,0.0,0.0,0.0,0.0,0.0,0.0,0.0,0.0,0.0,0.0,0.0,0.0,0.0,0.0,0.0,0.0,0.0,0.0,0.0,0.0,0.0,-3.3059,-3.7897,-3.8225,-3.8374,-3.8854,-3.9016,-3.7549,-3.3852,0.0,0.0,0.0,0.0,0.0,0.0,0.0,0.0,0.0,0.0,0.0,0.0,0.0,0.0,0.0,0.0,0.0,0.0,0.0,0.0,0.0,0.0,0.0,0.0,0.0,0.0,0.0,0.0,0.0,0.0,0.0,0.0,0.0,0.0,0.0,0.0,0.0,0.0,0.0,0.0,0.0,0.0,0.0,0.0,0.0,0.0,0.0,0.0,0.0,0.0,0.0,0.0,0.0,0.0,0.0,0.0,0.0,0.0,0.0,0.0,0.0,0.0,0.0,0.0,0.0,0.0,0.0,0.0,0.0,0.0,0.0,0.0,0.0,0.0,0.0,0.0,0.0,0.0,0.0,0.0,0.0,0.0,0.0,0.0,0.0,0.0,0.0,0.0,0.0,0.0,0.0,0.0,0.0,0.0,0.0,0.0,0.0,0.0,0.0,0.0,0.0,0.0,0.0,-3.1318,-3.3452,-3.7221,-3.7732,-3.7732,-3.7642,-3.806,-3.6508,-3.2402,-3.0502,0.0,0.0,0.0,0.0,0.0,0.0,0.0,0.0,0.0,0.0,0.0,0.0,0.0,0.0,0.0,0.0,0.0,0.0,0.0,0.0,0.0,0.0,0.0,0.0,0.0,0.0,0.0,0.0,0.0,0.0,0.0,0.0,0.0,0.0,0.0,0.0,0.0,0.0,0.0,0.0,0.0,0.0,0.0,0.0,0.0,0.0,0.0,0.0,0.0,0.0,0.0,0.0,0.0,0.0,0.0,0.0,0.0,0.0,0.0,0.0,0.0,0.0,0.0,0.0,0.0,0.0,0.0,0.0,0.0,0.0,0.0,0.0,0.0,0.0,0.0,0.0,0.0,0.0,0.0,0.0,0.0,0.0,0.0,0.0,0.0,0.0,0.0,0.0,0.0,0.0,0.0,0.0,0.0,0.0,0.0,0.0,0.0,0.0,0.0,0.0,0.0,0.0,-3.2901,-3.4042,-3.635,-3.698,-3.7115,-3.6676,-3.6621,-3.4912,-3.0951,-2.8842,0.0,0.0,0.0,0.0,0.0,0.0,0.0,0.0,0.0,0.0,0.0,0.0,0.0,0.0,0.0,0.0,0.0,0.0,0.0,0.0,0.0,0.0,0.0,0.0,0.0,0.0,0.0,0.0,0.0,0.0,0.0,0.0,0.0,0.0,0.0,0.0,0.0,0.0,0.0,0.0,0.0,0.0,0.0,0.0,0.0,0.0,0.0,0.0,0.0,0.0,0.0,0.0,0.0,0.0,0.0,0.0,0.0,0.0,0.0,0.0,0.0,0.0,0.0,0.0,0.0,0.0,0.0,0.0,0.0,0.0,0.0,0.0,0.0,0.0,0.0,0.0,0.0,0.0,0.0,0.0,0.0,0.0,0.0,0.0,0.0,0.0,0.0,0.0,0.0,0.0,0.0,0.0,0.0,0.0,0.0,0.0,0.0,0.0,0.0,0.0,0.0,0.0,-3.2665,-3.4926,-3.6445,-3.607,-3.5894,-3.6554,-3.4405,-3.2382,-3.0791,-2.7149,0.0,0.0,0.0,0.0,0.0,0.0,0.0,0.0,0.0,0.0,0.0,0.0,0.0,0.0,0.0,0.0,0.0,0.0,0.0,0.0,0.0,0.0,0.0,0.0,0.0,0.0,0.0,0.0,0.0,0.0,0.0,0.0,0.0,0.0,0.0,0.0,0.0,0.0,0.0,0.0,0.0,0.0,0.0,0.0,0.0,0.0,0.0,0.0,0.0,0.0,0.0,0.0,0.0,0.0,0.0,0.0,0.0,0.0,0.0,0.0,0.0,0.0,0.0,0.0,0.0,0.0,0.0,0.0,0.0,0.0,0.0,0.0,0.0,0.0,0.0,0.0,0.0,0.0,0.0,0.0,0.0,0.0,0.0,0.0,0.0,0.0,0.0,0.0,0.0,0.0,0.0,0.0,0.0,0.0,0.0,0.0,0.0,0.0,0.0,0.0,0.0,0.0,-3.072,-3.3044,0.0,-3.5668,-3.5619,-3.5894,-3.4638,-3.2528,-2.9574,0.0,0.0,0.0,0.0,0.0,0.0,0.0,0.0,0.0,0.0,0.0,0.0,0.0,0.0,0.0,0.0,0.0,0.0,0.0,0.0,0.0,0.0,0.0,0.0,0.0,0.0,0.0,0.0,0.0,0.0,0.0,0.0,0.0,0.0,0.0,0.0,0.0,0.0,0.0,0.0,0.0,0.0,0.0,0.0,0.0,0.0,0.0,0.0,0.0,0.0,0.0,0.0,0.0,0.0,0.0,0.0,0.0,0.0,0.0,0.0,0.0,0.0,0.0,0.0,0.0,0.0,0.0,0.0,0.0,0.0,0.0,0.0,0.0,0.0,0.0,0.0,0.0,0.0,0.0,0.0,0.0,0.0,0.0,0.0,0.0,0.0,0.0,0.0,0.0,0.0,0.0,0.0,0.0,0.0,0.0,0.0,0.0,0.0,0.0,0.0,0.0,0.0,-2.7791,-3.0075,-3.2497,0.0,-3.5504,-3.5504,-3.5504,-3.4098,-3.1898,-2.8801,0.0,0.0,0.0,0.0,0.0,0.0,0.0,0.0,0.0,0.0,0.0,0.0,0.0,0.0,0.0,0.0,0.0,0.0,0.0,0.0,0.0,0.0,0.0,0.0,0.0,0.0,0.0,0.0,0.0,0.0,0.0,0.0,0.0,0.0,0.0,0.0,0.0,0.0,0.0,0.0,0.0,0.0,0.0,0.0,0.0,0.0,0.0,0.0,0.0,0.0,0.0,0.0,0.0,0.0,0.0,0.0,0.0,0.0,0.0,0.0,0.0,0.0,0.0,0.0,0.0,0.0,0.0,0.0,0.0,0.0,0.0,0.0,0.0,0.0,0.0,0.0,0.0,0.0,0.0,0.0,0.0,0.0,0.0,0.0,0.0,0.0,0.0,0.0,0.0,0.0,0.0,0.0,0.0,0.0,0.0,0.0,0.0,0.0,0.0,0.0,0.0,0.0,-2.7975,-3.1283,-3.4008,-3.537,-3.5504,-3.5504,-3.5504,-3.2452,-2.9983,0.0,0.0,0.0,0.0,0.0,0.0,0.0,0.0,0.0,0.0,0.0,0.0,0.0,0.0,0.0,0.0,0.0,0.0,0.0,0.0,0.0,0.0,0.0,0.0,0.0,0.0,0.0,0.0,0.0,0.0,0.0,0.0,0.0,0.0,0.0,0.0,0.0,0.0,0.0,0.0,0.0,0.0,0.0,0.0,0.0,0.0,0.0,0.0,0.0,0.0,0.0,0.0,0.0,0.0,0.0,0.0,0.0,0.0,0.0,0.0,0.0,0.0,0.0,0.0,0.0,0.0,0.0,0.0,0.0,0.0,0.0,0.0,0.0,0.0,0.0,0.0,0.0,0.0,0.0,0.0,0.0,0.0,0.0,0.0,0.0,0.0,0.0,0.0,0.0,0.0,0.0,0.0,0.0,0.0,0.0,0.0,0.0,0.0,0.0,0.0,0.0,0.0,0.0,-2.7579,-3.1144,-3.4008,-3.537,-3.5504,-3.5504,-3.5504,-3.3724,-3.1126,-2.7556,0.0,0.0,0.0,0.0,0.0,0.0,0.0,0.0,0.0,0.0,0.0,0.0,0.0,0.0,0.0,0.0,0.0,0.0,0.0,0.0,0.0,0.0,0.0,0.0,0.0,0.0,0.0,0.0,0.0,0.0,0.0,0.0,0.0,0.0,0.0,0.0,0.0,0.0,0.0,0.0,0.0,0.0,0.0,0.0,0.0,0.0,0.0,0.0,0.0,0.0,0.0,0.0,0.0,0.0,0.0,0.0,0.0,0.0,0.0,0.0,0.0,0.0,0.0,0.0,0.0,0.0,0.0,0.0,0.0,0.0,0.0,0.0,0.0,0.0,0.0,0.0,0.0,0.0,0.0,0.0,0.0,0.0,0.0,0.0,0.0,0.0,0.0,0.0,0.0,0.0,0.0,0.0,0.0,0.0,0.0,0.0,0.0,0.0,0.0,0.0,0.0,0.0,-2.6857,-3.0363,-3.3115,-3.4225,-3.4341,-3.4341,-3.4341,-3.3383,-3.0912,-2.661,0.0,0.0,0.0,0.0,0.0,0.0,0.0,0.0,0.0,0.0,0.0,0.0,0.0,0.0,0.0,0.0,0.0,0.0,0.0,0.0,0.0,0.0,0.0,0.0,0.0,0.0,0.0,0.0,0.0,0.0,0.0,0.0,0.0,0.0,0.0,0.0,0.0,0.0,0.0,0.0,0.0,0.0,0.0,0.0,0.0,0.0,0.0,0.0,0.0,0.0,0.0,0.0,0.0,0.0,0.0,0.0,0.0,0.0,0.0,0.0,0.0,0.0,0.0,0.0,0.0,0.0,0.0,0.0,0.0,0.0,0.0,0.0,0.0,0.0,0.0,0.0,0.0,0.0,0.0,0.0,0.0,0.0,0.0,0.0,0.0,0.0,0.0,0.0,0.0,0.0,0.0,0.0,0.0,0.0,0.0,0.0,0.0,0.0,0.0,0.0,0.0,0.0,-2.6029,-2.9329,-3.186,-3.2538,-3.2593,-3.2593,-3.2437,-3.1817,-2.9754,-2.5785,0.0,0.0,0.0,0.0,0.0,0.0,0.0,0.0,0.0,0.0,0.0,0.0,0.0,0.0,0.0,0.0,0.0,0.0,0.0,0.0,0.0,0.0,0.0,0.0,0.0,0.0,0.0,0.0,0.0,0.0,0.0,0.0,0.0,0.0,0.0,0.0,0.0,0.0,0.0,0.0,0.0,0.0,0.0,0.0,0.0,0.0,0.0,0.0,0.0,0.0,0.0,0.0,0.0,0.0,0.0,0.0,0.0,0.0,0.0,0.0,-2.2669,0.0,0.0,0.0,0.0,0.0,0.0,0.0,0.0,0.0,0.0,0.0,0.0,0.0,0.0,0.0,0.0,0.0,0.0,0.0,0.0,0.0,0.0,0.0,0.0,0.0,0.0,0.0,0.0,0.0,0.0,0.0,0.0,0.0,0.0,0.0,0.0,0.0,0.0,0.0,0.0,0.0,-2.6029,-2.9329,-3.186,-3.2538,-3.2593,-3.228,-3.1389,-3.0756,-2.8625,-2.4542,-2.3079,0.0,0.0,0.0,0.0,0.0,0.0,0.0,0.0,0.0,0.0,0.0,0.0,0.0,0.0,0.0,0.0,0.0,0.0,0.0,0.0,0.0,0.0,0.0,0.0,0.0,0.0,0.0,0.0,0.0,0.0,0.0,0.0,0.0,0.0,0.0,0.0,0.0,0.0,0.0,0.0,0.0,0.0,0.0,0.0,0.0,0.0,0.0,0.0,0.0,0.0,0.0,0.0,0.0,0.0,0.0,0.0,0.0,0.0,0.0,0.0,-2.3909,0.0,0.0,0.0,0.0,0.0,0.0,0.0,0.0,0.0,0.0,0.0,0.0,0.0,0.0,0.0,0.0,0.0,0.0,0.0,0.0,0.0,0.0,0.0,0.0,0.0,0.0,0.0,0.0,0.0,0.0,0.0,0.0,0.0,0.0,0.0,0.0,0.0,0.0,0.0,0.0,-2.5748,-2.8765,-3.0863,-3.1241,-3.0755,-3.0176,-2.9617,-2.8781,-2.7,-2.3891,-2.282,0.0,0.0,0.0,0.0,0.0,0.0,0.0,0.0,0.0,0.0,0.0,0.0,0.0,0.0,0.0,0.0,0.0,0.0,0.0,0.0,0.0,0.0,0.0,0.0,0.0,0.0,0.0,0.0,0.0,0.0,0.0,0.0,0.0,0.0,0.0,0.0,0.0,0.0,0.0,0.0,0.0,0.0,0.0,0.0,0.0,0.0,0.0,0.0,0.0,0.0,0.0,0.0,0.0,0.0,-3.1511,-3.1416,-3.1909,-3.2258,-3.236,-2.8798,-2.7737,-2.8289,0.0,0.0,0.0,0.0,0.0,0.0,0.0,0.0,0.0,0.0,0.0,0.0,0.0,0.0,0.0,0.0,0.0,0.0,0.0,0.0,0.0,0.0,0.0,0.0,0.0,-2.5481,-2.6283,0.0,0.0,0.0,0.0,0.0,0.0,0.0,0.0,0.0,0.0,0.0,0.0,-2.5611,-2.795,-2.9534,-2.9534,-2.8518,-2.7763,-2.751,-2.6707,-2.5354,-2.3439,-2.2606,-2.123,0.0,0.0,0.0,0.0,0.0,0.0,0.0,0.0,0.0,0.0,0.0,0.0,0.0,0.0,0.0,0.0,0.0,0.0,0.0,0.0,0.0,0.0,0.0,0.0,0.0,0.0,0.0,0.0,0.0,0.0,0.0,0.0,-1.504,-1.6914,0.0,0.0,0.0,0.0,0.0,0.0,0.0,0.0,0.0,0.0,0.0,0.0,0.0,0.0,-3.0866,-3.2183,-3.344,-3.4622,-3.5836,-3.604,-3.5235,-3.5323,-3.4952,-3.4279,-3.4498,0.0,-3.056,-2.8798,0.0,0.0,0.0,0.0,0.0,0.0,0.0,0.0,0.0,0.0,0.0,0.0,0.0,0.0,0.0,0.0,0.0,0.0,0.0,0.0,0.0,0.0,-2.6427,-2.7789,-2.798,-2.7944,0.0,-2.6358,-2.4546,-2.3793,0.0,0.0,0.0,0.0,0.0,0.0,0.0,0.0,-2.6269,-2.7555,-2.8335,-2.8335,-2.7371,-2.6295,-2.5284,-2.5126,-2.4324,-2.2695,-2.2211,-2.1617,-2.0918,-1.9326,0.0,0.0,0.0,0.0,0.0,0.0,0.0,0.0,0.0,0.0,0.0,0.0,0.0,0.0,0.0,0.0,0.0,0.0,0.0,0.0,0.0,0.0,0.0,0.0,0.0,0.0,0.0,0.0,0.0,-1.4363,-1.6688,-1.8037,-1.9098,-2.0,0.0,0.0,0.0,0.0,0.0,0.0,0.0,0.0,0.0,-3.0761,-3.1898,-3.308,-3.4307,-3.5235,-3.5998,-3.6582,-3.7524,-3.7734,-3.7352,-3.7735,-3.7696,-3.7302,-3.6678,-3.5655,-3.4073,-3.1585,-2.9713,-2.8344,0.0,0.0,0.0,0.0,0.0,-2.5963,-2.6829,0.0,0.0,0.0,0.0,0.0,0.0,0.0,0.0,0.0,0.0,0.0,0.0,0.0,0.0,-2.8065,-2.8753,-2.9123,-2.9389,-2.848,-2.7145,0.0,-2.5418,-2.4722,-2.238,0.0,0.0,0.0,0.0,0.0,-2.5533,-2.6535,-2.7197,-2.7197,-2.6213,-2.5378,-2.4872,-2.4211,-2.3557,-2.2871,-2.2695,-2.2402,-2.1973,-2.0996,-1.9912,0.0,0.0,0.0,0.0,0.0,0.0,0.0,0.0,0.0,0.0,0.0,0.0,0.0,0.0,0.0,0.0,0.0,0.0,0.0,0.0,0.0,0.0,0.0,0.0,0.0,0.0,0.0,0.0,-1.6115,-1.8461,-1.9826,-2.1538,-2.2442,0.0,0.0,0.0,0.0,0.0,0.0,-2.9351,-3.1051,-3.2602,-3.389,-3.525,-3.6387,-3.7225,-3.7704,-3.8093,-3.8437,-3.8916,-3.9065,-3.8916,-3.9439,-3.9414,-3.8914,-3.7622,-3.6782,-3.6071,-3.3256,-3.1604,-3.0553,-2.7933,-2.7055,-2.7331,-2.7469,-2.7783,-2.826,-2.9076,-2.879,-2.807,-2.7516,0.0,-2.5313,-2.3518,0.0,0.0,0.0,0.0,-2.1997,-2.4111,0.0,-2.6725,-2.8171,-2.9197,-2.9792,-2.9792,-2.9792,-2.9302,0.0,-2.7519,-2.6797,-2.385,0.0,0.0,0.0,0.0,-2.5309,-2.5027,-2.561,-2.6058,-2.6058,-2.5052,-2.4382,-2.4382,-2.3551,-2.3135,-2.3135,-2.3135,-2.2998,-2.2685,-2.2266,-2.1338,-1.9814,0.0,0.0,0.0,0.0,0.0,0.0,0.0,0.0,0.0,0.0,0.0,0.0,0.0,0.0,0.0,0.0,0.0,0.0,0.0,0.0,0.0,0.0,0.0,0.0,0.0,0.0,0.0,0.0,0.0,-2.2935,-2.5534,0.0,0.0,0.0,0.0,-2.5664,-2.9925,-3.2198,-3.1382,-3.446,-3.6678,-3.7797,-3.7458,-3.7943,-3.926,-3.9305,-3.9948,-4.1175,-4.1205,-4.0905,-4.0307,-4.0337,-3.9446,-3.7904,-3.78,-3.659,-3.4682,-3.3357,-3.2447,-3.1793,-3.0762,-3.0068,-2.9691,-3.0218,-3.0419,-3.0457,-3.052,-3.0453,-3.0353,-2.9817,-2.8888,-2.7533,-2.5669,-2.4554,0.0,0.0,-2.3633,-2.4598,-2.722,-2.7956,-2.8311,-2.9443,-2.9792,-2.9792,-2.9792,-2.9792,-2.9767,0.0,-2.9202,-2.8313,-2.6569,0.0,-2.5183,-2.4063,-2.4414,-2.5038,-2.5529,-2.515,-2.4872,-2.4872,-2.3887,-2.3222,-2.3222,-2.3135,-2.3135,-2.3135,-2.3135,-2.3125,-2.3105,-2.2705,-2.2051,-2.1152,-1.937,0.0,0.0,0.0,0.0,0.0,0.0,0.0,0.0,0.0,0.0,0.0,0.0,0.0,0.0,0.0,0.0,0.0,0.0,0.0,0.0,0.0,0.0,0.0,0.0,0.0,0.0,0.0,0.0,-2.4408,-2.6108,0.0,-2.789,-3.0507,-3.2146,-3.2005,-3.3602,-3.4872,-3.5674,-3.688,-3.7988,-3.8897,-3.917,-3.9768,-4.0666,-4.0681,-4.092,-4.1384,-4.1384,-4.125,-4.1025,-4.1025,-4.0241,-3.8931,-3.7876,-3.6591,-3.5081,-3.3572,-3.2682,-3.2051,-3.1398,-3.0997,-3.0846,-3.1035,-3.111,-3.111,-3.111,-3.0691,-3.0007,-2.9379,-2.9443,-2.9409,-2.7577,-2.6936,-2.6505,-2.5647,-2.559,-2.6073,-2.7716,-2.8096,-2.8426,-2.9534,-2.9792,-2.9792,-2.9792,-2.9792,-2.9792,-2.9792,-2.9628,-2.8872,-2.6804,-2.6878,-2.6317,-2.381,-2.4217,-2.4607,-2.4039,-2.3786,-2.3714,-2.3714,-2.3299,-2.3135,-2.3135,-2.3135,-2.3027,-2.2754,-2.2734,-2.2617,-2.2344,-2.2187,-2.1836,-2.125,-2.0068,-1.8161,0.0,0.0,0.0,0.0,0.0,0.0,0.0,0.0,0.0,0.0,0.0,0.0,0.0,0.0,0.0,0.0,0.0,0.0,0.0,0.0,0.0,0.0,0.0,0.0,0.0,0.0,-2.4397,-2.5614,-2.7556,-2.9372,-3.0778,-3.4091,-3.598,-3.5524,-3.6289,-3.7323,-3.8499,-3.8792,-3.926,-3.9798,-4.0412,-4.1055,-4.1698,-4.1713,-4.1818,-4.2043,-4.2043,-4.1923,-4.1713,-4.1713,-4.0997,-3.9607,-3.8123,-3.6892,-3.57,-3.427,-3.3294,-3.2729,-3.2177,-3.1951,-3.1951,-3.1951,-3.1951,-3.1926,-3.1738,-3.1112,-3.0299,-2.9852,-3.0257,-3.0598,-2.8859,-2.8357,-2.8148,-2.7255,-2.7046,-2.729,-2.8359,-2.8688,-2.8858,-2.9624,-2.9792,-2.9792,-2.9792,-2.9792,-2.9792,-2.9792,-2.9792,-2.9232,-2.737,-2.7328,-2.6644,-2.4061,-2.399,-2.3963,-2.3222,-2.3474,-2.3637,-2.3637,-2.3637,-2.3637,-2.3637,-2.3172,-2.2871,-2.2734,-2.2461,-2.2236,-2.21,-2.1816,-2.1455,-2.1016,-1.9773,-1.8389,-1.6991,0.0,0.0,0.0,0.0,0.0,0.0,0.0,0.0,0.0,0.0,0.0,0.0,0.0,0.0,0.0,0.0,0.0,0.0,0.0,0.0,0.0,0.0,0.0,-2.1398,-2.2599,-2.4028,-2.6525,-3.0141,-3.2745,-3.3554,-3.5979,-3.6933,-3.5742,-3.7988,-3.9415,-3.9446,-4.0242,-4.0755,-4.0785,-4.1205,-4.1728,-4.2387,-4.2387,-4.2701,-4.3329,-4.3329,-4.3,-4.2387,-4.2387,-4.1455,-3.9773,-3.8613,-3.7531,-3.6405,-3.5226,-3.4399,-3.3847,-3.3307,-3.3093,-3.3081,-3.3081,-3.3081,-3.3006,-3.2441,-3.1888,-3.1436,-3.1424,-3.1411,-3.1135,-2.9482,-2.8974,-2.8867,-2.8366,-2.8211,-2.845,-2.9559,-2.9804,-2.9792,-2.9792,-2.9792,-2.9792,-2.9792,-2.9792,-2.9792,-2.9792,-2.9792,-2.9443,-2.8267,-2.7209,-2.6141,-2.4957,-2.3877,0.0,-2.3135,-2.4125,-2.4872,-2.4872,-2.4872,-2.4872,-2.4872,-2.3418,-2.2695,-2.3076,-2.2334,-2.206,-2.2451,-2.168,-2.1035,-2.0615,-1.8675,-1.7879,-1.8341,0.0,0.0,0.0,0.0,0.0,0.0,0.0,0.0,0.0,0.0,0.0,0.0,0.0,0.0,0.0,0.0,0.0,0.0,0.0,0.0,0.0,0.0,-1.7757,-2.1117,-2.3851,-2.6113,-2.7585,-3.1786,-3.5066,-3.625,-3.7882,-3.8727,-3.8352,-3.8973,-3.9677,-4.0317,-4.0902,-4.1415,-4.1925,-4.2089,-4.2402,-4.306,-4.306,-4.3165,-4.3329,-4.3329,-4.324,-4.306,-4.306,-4.2356,-4.1054,-3.9411,-3.8129,-3.6986,-3.5392,-3.4399,-3.3884,-3.3734,-3.3432,-3.3081,-3.3081,-3.3081,-3.3056,-3.2893,-3.2742,-3.2541,-3.2114,-3.1989,-3.1793,-3.0984,-3.0728,-3.0704,-3.0542,-3.0233,-2.996,-3.0303,-3.0093,-2.9792,-2.9792,-2.9792,-2.9792,-2.9792,-2.9792,-2.9792,-2.9792,-2.9792,-2.9443,-2.8267,-2.7844,-2.7023,-2.5115,0.0,0.0,-2.4457,-2.5305,-2.6058,-2.6058,-2.6058,-2.6058,-2.6058,-2.4851,-2.3969,-2.3433,-2.2479,-2.1797,-2.1592,-2.1367,-2.1328,-2.1523,-2.0382,-1.9545,0.0,0.0,0.0,0.0,0.0,0.0,0.0,0.0,0.0,0.0,0.0,0.0,0.0,0.0,0.0,0.0,0.0,0.0,0.0,0.0,0.0,0.0,-2.1441,-2.2754,-2.4699,-2.6664,-2.8071,-2.876,-3.1375,-3.4252,-3.7113,-3.8622,-3.9542,-3.9949,-3.9598,-3.9901,-4.1145,-4.1821,-4.2273,-4.2434,-4.2626,-4.2955,-4.3329,-4.3329,-4.3329,-4.3329,-4.3329,-4.3329,-4.3329,-4.3329,-4.2644,0.0,-4.0012,-3.8741,-3.7503,-3.6055,-3.509,0.0,0.0,0.0,0.0,0.0,-3.3081,-3.3081,-3.3081,-3.3081,-3.3018,-3.2692,-3.2579,-3.2466,-3.1901,-3.1738,-3.1687,-3.1449,-3.1022,-3.062,-3.062,-3.0206,-2.9792,-2.9792,-2.9792,-2.9792,-2.9792,-2.9792,-2.9792,-2.9792,0.0,0.0,-2.8937,-2.8426,-2.7671,-2.6356,-2.6378,-2.6224,0.0,-2.6461,-2.7209,-2.7209,-2.7209,-2.6964,-2.6565,-2.5279,0.0,0.0,0.0,-2.1689,-2.125,-2.123,0.0,0.0,0.0,0.0,0.0,0.0,0.0,0.0,-1.7023,-1.6964,0.0,0.0,0.0,0.0,0.0,0.0,0.0,0.0,0.0,0.0,0.0,0.0,0.0,0.0,0.0,0.0,-2.8547,-2.9809,-2.9769,-2.9997,-3.0051,-2.9855,-3.0171,-3.2321,-3.7124,-3.8687,-3.9768,-4.0619,-3.9876,-4.0174,-4.1957,0.0,0.0,0.0,0.0,-4.3329,-4.3329,-4.3329,-4.3329,-4.3329,-4.3329,-4.3329,-4.3329,-4.3329,-4.2644,-4.1504,-4.0404,-3.9183,-3.803,-3.6896,-3.6031,-3.5349,-3.4324,-3.3558,-3.3081,-3.3081,-3.3081,0.0,0.0,0.0,0.0,-3.3081,-3.3081,-3.298,-3.2466,-3.2303,-3.2202,-3.1712,-3.116,-3.0708,-3.0708,-3.0244,-2.9792,-2.9792,-2.9792,-2.9792,-2.9792,-2.9792,-2.9792,-2.9792,-2.9792,-2.9792,-2.9792,-2.8937,-2.8255,-2.8096,-2.7371,0.0,-2.6719,-2.7614,-2.8267,-2.8267,0.0,0.0,-2.6801,-2.5333,-2.4106,-2.3298,-2.2448,-2.1787,-2.1396,-2.1426,-2.165,-2.209,-2.2461,-2.3057,-2.3867,-2.4287,-2.4512,-2.4438,-2.1545,-2.0778,0.0,0.0,0.0,0.0,0.0,0.0,0.0,0.0,0.0,0.0,0.0,0.0,0.0,0.0,0.0,-2.8183,-2.9541,-2.9782,-2.9807,-3.113,-3.1476,-2.9979,-3.2513,-3.5583,-3.8728,-3.9228,-3.9666,-4.0426,-3.9832,-4.0233,-4.2224,-4.2967,0.0,-4.3135,-4.3269,-4.3329,-4.3329,-4.3329,-4.3329,-4.3329,0.0,0.0,-4.3329,-4.3329,-4.2644,-4.1504,-4.0404,-3.9183,-3.803,-3.6896,-3.6031,-3.5349,-3.4324,-3.3558,-3.3081,-3.3081,-3.3081,-3.3081,-3.3081,-3.3081,-3.3081,-3.3081,-3.3081,-3.3056,-3.2943,-3.2918,0.0,-3.278,-3.2014,-3.1248,-3.1248,-3.052,-2.9792,-2.9792,-2.9792,-2.9792,-2.9792,-2.9792,-2.9792,-2.9792,-2.9792,-2.9792,-2.9792,-2.9624,-2.9184,-2.8255,-2.87,-2.887,-2.7936,-2.8779,-2.9456,-2.9456,-2.9456,-2.9028,-2.7855,-2.671,-2.5463,-2.4106,-2.2968,-2.2353,-2.2266,-2.2588,-2.2978,-2.3418,-2.3506,-2.3789,-2.4297,-2.4727,-2.5127,-2.5382,-2.3726,-2.3587,0.0,0.0,0.0,0.0,0.0,0.0,0.0,0.0,0.0,0.0,0.0,-2.1129,-2.0026,0.0,-2.6527,-2.9378,-2.983,-2.9999,-3.0635,-3.1431,-3.1763,-3.1294,-3.3758,-3.6257,-3.8219,-3.9018,-3.9691,-4.0457,-4.1055,-4.1806,-4.2791,-4.3172,-4.3337,-4.3329,-4.3329,-4.3329,-4.3329,-4.3329,-4.3329,-4.3329,-4.3329,-4.3329,-4.3329,-4.3329,-4.2644,-4.1504,-4.0404,-3.9183,-3.803,-3.6896,-3.6031,-3.5466,-3.4625,-3.3972,-3.3458,-3.3181,-3.3081,-3.3081,-3.3081,-3.3081,-3.3081,-3.3081,-3.3081,-3.3081,-3.3081,-3.3081,-3.3081,-3.3081,-3.2265,-3.1386,-3.1386,-3.0595,-2.9792,-2.9792,-2.9792,-2.9792,-2.9792,-2.9792,-2.9792,-2.9792,-2.9792,-2.9792,-2.9792,-2.9792,-2.9624,-2.9028,-2.9456,-2.9611,-2.9028,-2.9456,-2.9792,-2.9792,-2.9275,-2.8518,-2.736,-2.5797,-2.4459,-2.3734,-2.3156,-2.2822,-2.2822,-2.3027,-2.335,-2.3779,-2.3994,-2.4316,-2.4746,-2.5185,-2.5635,-2.6064,-2.5543,-2.5863,0.0,0.0,0.0,0.0,0.0,0.0,0.0,0.0,-2.0012,-2.123,-2.2602,-2.3355,-2.258,-2.6114,-2.9305,-2.9731,-3.0126,-3.0649,-3.1554,-3.1716,-3.2033,-3.282,-3.4072,-3.5567,-3.7222,-3.8631,-3.977,-4.0665,-4.2304,-4.3289,-4.3299,-4.3329,-4.3329,-4.3329,-4.3329,-4.3389,-4.3524,-4.3524,-4.3524,-4.3524,-4.3524,-4.3464,-4.3329,-4.3329,-4.2644,-4.1504,-4.0145,-3.9006,-3.803,-3.6896,-3.6094,-3.5642,-3.4977,-3.4449,-3.3985,-3.3319,-3.3081,-3.3081,-3.3081,-3.3081,-3.3081,-3.3081,-3.3081,-3.3081,-3.3081,-3.3081,-3.3081,-3.3081,-3.234,-3.1524,-3.1411,-3.067,-2.993,-2.9817,-2.9792,-2.9792,-2.9792,-2.9792,-2.9792,-2.9792,-2.9792,-2.9792,-2.9792,-2.9792,-2.9792,-2.9792,-2.9792,-2.9792,-2.9792,-2.9792,-2.9792,-2.9792,-2.8937,-2.7947,-2.6637,-2.4638,-2.3299,-2.3135,-2.3135,-2.3135,-2.3135,-2.3223,-2.3467,-2.3906,-2.4326,-2.4756,-2.5195,-2.5644,-2.6084,-2.6523,-2.6943,-2.7334,-0.9461,-1.151,-1.3999,-1.5691,-1.6945,-1.853,0.0,0.0,-2.2397,-2.4017,-2.4744,-2.5333,-2.5828,-2.6421,-2.7478,-2.9476,-3.1222,-3.2131,-3.1742,-3.2846,-3.3739,-3.3808,-3.3326,-3.4129,-3.7079,-3.8631,-3.977,-4.0665,-4.2304,-4.3289,-4.3299,-4.3329,-4.3329,-4.3329,-4.3329,-4.3614,-4.4197,-4.4212,-4.4212,-4.4212,-4.4212,-4.3898,-4.3329,-4.3329,-4.2644,-4.1504,-3.9244,-3.8198,-3.803,-3.6896,-3.632,-3.6169,-3.5127,-3.4675,-3.45,-3.3458,-3.3081,-3.3081,-3.3081,-3.3081,-3.3081,-3.3081,-3.3081,-3.3081,-3.3081,-3.3081,-3.3081,-3.3081,-3.2616,-3.2001,-3.1512,-3.0959,-3.0407,-2.9905,-2.9792,-2.9792,-2.9792,-2.9792,-2.9792,-2.9792,-2.9792,-2.9792,-2.9792,-2.9792,-2.9792,-2.9792,-2.9792,-2.9792,-2.9792,-2.9792,-2.9792,-2.9792,-2.9702,-2.8791,-2.6648,-2.5294,-2.4211,-2.3135,-2.3135,-2.3135,-2.3135,-2.3516,-2.3916,-2.4336,-2.4775,-2.5215,-2.5664,-2.6103,-2.6533,-2.6953,-2.7393,-2.7617,-1.0492,-1.2235,-1.4202,-1.5986,-1.7603,-1.921,-2.0816,-2.2832,-2.4458,-2.4754,-2.6304,-2.7348,-2.6611,-2.7533,-2.8731,0.0,-3.0417,-3.1389,-3.2663,-3.3339,-3.4182,-3.5359,-3.5323,-3.5733,-3.7216,-3.7923,-3.869,-3.9829,-4.1339,-4.2513,-4.3284,-4.3329,-4.3329,-4.3329,-4.3329,-4.3643,-4.4302,-4.4317,-4.4317,-4.4317,-4.4317,-4.3973,-4.3329,-4.3329,-4.2644,-4.1587,-4.0547,-3.977,-3.9094,-3.7861,-3.7415,-3.7219,-3.54,-3.4726,-3.4587,-3.3483,-3.3081,-3.3081,-3.3081,-3.3081,-3.3081,-3.3081,-3.3081,-3.3081,-3.3081,-3.3081,-3.3081,-3.3081,-3.2667,-3.2089,-3.1537,-3.0997,-3.047,-2.993,-2.9792,-2.9792,-2.9792,-2.9792,-2.9792,-2.9792,-2.9792,-2.9792,-2.9792,-2.9792,-2.9792,-2.9792,-2.9792,-2.9792,-2.9792,-2.9792,-2.9534,-2.8858,-2.8767,-2.8199,-2.6648,-2.5462,-2.4628,-2.4125,-2.3464,-2.3135,-2.3135,-2.3555,-2.3984,-2.4414,-2.4844,-2.5293,-2.5742,-2.5918,-2.6357,-2.7021,-2.7207,-2.7549,-1.1921,-1.3423,-1.5094,-1.6987,-1.8983,-2.0658,-2.1192,-2.392,-2.6226,-2.6007,-2.7315,-2.8022,-2.6766,-2.831,-2.977,-2.9796,-2.9815,-3.0956,-3.4268,-3.4651,-3.5106,-3.6767,-3.7124,-3.7435,-3.806,-3.8424,-3.9198,-4.0598,-4.1548,-4.2425,-4.3223,-4.3274,-4.3329,-4.3329,-4.3329,-4.3733,-4.4571,-4.4586,-4.4586,-4.4586,-4.4586,-4.4152,-4.3329,-4.3329,-4.282,-4.2029,-4.1767,-4.0916,-3.9812,-3.8559,-3.7939,-3.7482,-3.5491,-3.4726,-3.4587,-3.3483,-3.3081,-3.3081,-3.3081,-3.3081,-3.3081,-3.3081,-3.3081,-3.3081,-3.3081,-3.3081,-3.3081,-3.3081,-3.278,-3.229,-3.1574,-3.111,-3.0658,-2.9955,-2.9792,-2.9792,-2.9792,-2.9792,-2.9792,-2.9792,-2.9792,-2.9792,-2.9792,-2.9792,-2.9792,-2.9792,-2.9792,-2.9792,-2.9792,-2.9792,-2.9443,-2.8688,-2.8597,-2.8108,-2.7046,-2.588,-2.5126,-2.4787,-2.3714,-2.3193,-2.331,-2.373,-2.416,-2.459,-2.5029,-2.541,-2.5742,-2.5859,-2.6299,-2.7012,-2.7139,-2.7588,-1.3939,-1.5649,-1.783,-1.9609,-2.185,-2.3893,-2.4994,-2.6299,-2.7538,-2.8622,-2.7657,-2.6557,-2.6531,-2.8333,-2.9779,-2.977,-2.9836,-3.1653,-3.6914,-3.7202,-3.7076,-3.7706,-3.7764,-3.8323,0.0,-4.1114,-4.243,-4.378,-4.3927,-4.3718,-4.3353,-4.3333,-4.3329,-4.3329,-4.3329,-4.3958,-4.5259,-4.5274,-4.5274,-4.5274,-4.5274,-4.4586,-4.3329,-4.3329,-4.325,-4.317,-4.2111,-4.0916,-3.9812,-3.8559,-3.7415,-3.6339,-3.5152,-3.4726,-3.4587,-3.3483,-3.3081,-3.3081,-3.3081,-3.3081,-3.3081,-3.3081,-3.3081,-3.3081,-3.3081,-3.3081,-3.3081,-3.3081,-3.3068,-3.2792,-3.1675,-3.1386,-3.1097,-3.0043,-2.9792,-2.9792,-2.9792,-2.9792,-2.9792,-2.9792,-2.9792,-2.9792,-2.9792,-2.9792,-2.9792,-2.9792,-2.9792,-2.9792,-2.9792,-2.9792,-2.9792,-2.9792,-2.9792,-2.9275,-2.8176,-2.7046,-2.5975,-2.4872,-2.3714,-2.333,-2.375,-2.417,-2.46,-2.5039,-2.5488,-2.5723,-2.5742,-2.6162,-2.6592,-2.7021,-2.7451,-2.7881,-1.5257,-1.6197,-1.8176,-2.3736,-2.5681,-2.6408,-2.6775,-2.8548,-3.0226,-3.0601,-3.0219,-2.9135,-2.6922,-2.7139,-2.81,-2.9566,-3.3632,-3.6914,-3.7674,-3.8465,-3.8852,-3.8567,-3.9446,0.0,0.0,0.0,0.0,-4.4229,-4.4376,-4.405,-4.3351,-4.3296,-4.3329,-4.3329,-4.3329,-4.3748,-4.4631,-4.4646,-4.4646,-4.4631,-4.4212,-4.3763,-4.3329,-4.3329,-4.3329,-4.325,-4.29,-4.2467,-4.2044,-4.0576,-3.9486,-3.8528,-3.6064,-3.4921,-3.4587,-3.3483,-3.3081,-3.3081,-3.3081,-3.3081,-3.3081,-3.3081,-3.3081,-3.3081,-3.3081,-3.3081,-3.3081,-3.3081,-3.3081,-3.2817,-3.1687,-3.1386,-3.1122,-3.0043,-2.9792,-2.9792,-2.9792,-2.9792,-2.9792,-2.9792,-2.9792,-2.9792,-2.9792,-2.9792,-2.9792,-2.9792,-2.9792,-2.9792,-2.9792,-2.9792,-2.9792,-2.9792,-2.9792,-2.9624,-2.9275,-2.8187,-2.7116,-2.5964,-2.4882,-2.4079,-2.3769,-2.4199,-2.4619,-2.5059,-2.5508,-2.5742,-2.5742,-2.5889,-2.6318,-2.7021,-2.7168,-2.7617,-1.7123,-1.7637,-1.9238,-2.5916,-2.7606,-2.7593,-2.7598,-2.8833,-3.0258,-3.1291,-2.9911,-2.7824,-2.5694,-2.5281,-2.7064,-3.263,-3.7226,-3.9893,-3.9229,-4.0,-4.0475,-4.0126,-4.1,-4.1866,0.0,0.0,0.0,-4.4383,-4.4034,-4.389,-4.4347,-4.3698,-4.3329,-4.3329,-4.3329,-4.3643,-4.4302,-4.4317,-4.4317,-4.4302,-4.3643,-4.3329,-4.3329,-4.3329,-4.3329,-4.3329,-4.3329,-4.3031,-4.2445,-4.1406,-4.053,-3.9612,-3.6779,-3.5226,-3.4435,-3.3458,-3.3081,-3.3081,-3.3081,-3.3081,-3.3081,-3.3081,-3.3081,-3.3081,-3.3081,-3.3081,-3.3081,-3.3081,-3.3081,-3.2817,-3.1687,-3.1386,-3.1122,-3.0043,-2.9792,-2.9792,-2.9792,-2.9792,-2.9792,-2.9792,-2.9792,-2.9792,-2.9792,-2.9792,-2.9792,-2.9792,-2.9792,-2.9792,-2.9792,-2.9792,-2.9792,-2.9792,-2.9792,-2.9792,-2.9792,-2.8359,-2.7197,-2.6565,-2.5052,-2.4149,-2.3984,-2.4277,-2.4697,-2.5293,-2.5596,-2.5742,-2.5742,-2.5742,-2.6182,-2.7012,-2.7012,-2.7471,-1.9559,-2.016,-2.1295,-2.6339,-2.7579,-2.7599,-2.7587,-2.7384,-2.7963,-3.0522,-2.6706,-2.2908,-2.2908,0.0,-2.6843,-3.8241,-4.0087,-4.0459,-4.1438,-4.1622,-4.1804,0.0,0.0,0.0,0.0,0.0,0.0,-4.4507,0.0,-4.3283,-4.5881,-4.4281,-4.3329,-4.3329,-4.3329,-4.3629,-4.4257,-4.4272,-4.4272,-4.4257,-4.3629,-4.3329,-4.3329,-4.3329,-4.3329,-4.3329,-4.3329,-4.2431,-4.1079,-4.1142,-4.0609,-3.9577,-3.726,-3.5467,-3.4143,-3.337,-3.3093,-3.3081,-3.3081,-3.3081,-3.3081,-3.3081,-3.3081,-3.3081,-3.3081,-3.3081,-3.3081,-3.3081,-3.3081,-3.2817,-3.1687,-3.1386,-3.1122,-3.0043,-2.9792,-2.9792,-2.9792,-2.9792,-2.9792,-2.9792,-2.9792,-2.9792,-2.9792,-2.9792,-2.9792,-2.9792,-2.9792,-2.9792,-2.9792,-2.9792,-2.9792,-2.9792,-2.9792,-2.9792,-2.9792,-2.7879,-2.6648,-2.6565,-2.4498,-2.3624,-2.4467,-2.4434,-2.4853,-2.5723,-2.5742,-2.5742,-2.5742,-2.5742,-2.6182,-2.7012,-2.7012,-2.7471,-2.134,-2.3941,-2.5925,-2.7278,-2.7615,-2.7599,-2.7587,-2.6791,-2.5873,-2.5354,-2.2811,-2.0655,-2.0649,-2.2009,0.0,-3.8254,-4.012,0.0,-4.1466,-4.1913,0.0,-4.2286,0.0,-4.4688,-4.4316,-4.5428,0.0,0.0,-4.4712,-4.3953,-4.4028,-4.3594,-4.3329,-4.3329,-4.3329,-4.3419,-4.3584,-4.3584,-4.3584,-4.3584,-4.3419,-4.3329,-4.3329,-4.3329,-4.3329,-4.3329,-4.3329,-4.3046,-4.2746,-4.2732,-4.1267,-3.8871,-3.707,-3.5655,-3.4485,-3.3482,-3.3121,-3.3081,-3.3081,-3.3081,-3.3081,-3.3081,-3.3081,-3.3081,-3.3081,-3.3081,-3.3081,-3.3081,-3.3081,-3.2817,-3.1687,-3.1386,-3.1122,-3.0043,-2.9792,-2.9792,-2.9792,-2.9792,-2.9792,-2.9792,-2.9792,-2.9792,-2.9792,-2.9792,-2.9792,-2.9792,-2.9792,-2.9792,-2.9792,-2.9792,-2.9792,-2.9792,-2.9792,-2.9792,-2.9792,-2.9287,-2.8621,-2.7775,-2.6713,-2.5923,-2.5643,-2.5182,-2.5166,-2.5723,-2.5742,-2.5742,-2.5742,-2.5742,-2.6182,-2.7012,-2.7012,-2.7471,-2.4759,-2.6557,-2.761,-2.7614,-2.7625,-2.747,-2.6852,-2.5877,-2.4705,-2.3202,-2.1635,-2.0412,-1.9899,-2.0045,-2.4173,0.0,0.0,0.0,-4.1762,-4.2109,-4.254,0.0,-4.4722,0.0,-4.5111,-4.6152,-4.6729,0.0,-4.5979,-4.5397,-4.4647,-4.379,-4.3329,-4.3329,-4.3329,-4.3329,-4.3329,-4.3329,-4.3329,-4.3329,-4.3329,-4.3329,-4.3329,-4.3329,-4.3329,-4.3329,0.0,-4.3329,-4.328,-4.3278,-4.2291,-4.0335,-3.6497,-3.5189,-3.5276,-3.3671,-3.3058,-3.3081,-3.3081,-3.3081,-3.3081,-3.3081,-3.3081,-3.3081,-3.3081,-3.3081,-3.3081,-3.3081,-3.3081,-3.2817,-3.1687,-3.1386,-3.1122,-3.0043,-2.9792,-2.9792,-2.9792,-2.9792,-2.9792,-2.9792,-2.9792,-2.9792,-2.9792,-2.9792,-2.9792,-2.9792,-2.9792,-2.9792,-2.9792,-2.9792,-2.9792,-2.9792,-2.9792,-2.9792,-2.9792,-2.9365,-2.8767,-2.8176,-2.7004,-2.6476,-2.6875,-2.5736,-2.5549,-2.6562,-2.6014,-2.5742,-2.5742,-2.5928,-2.6367,-2.7021,-2.7207,-2.7656,-2.8174,-2.796,-2.7585,-2.7603,-2.7625,-2.723,-2.5804,-2.4974,-2.4105,-2.2729,-2.175,-2.0819,-1.9778,-1.8142,-2.1059,-3.3427,0.0,-4.0037,-4.1897,-4.2236,-4.2811,-4.4248,-4.5263,-4.5855,-4.5855,-4.5918,-4.6102,-4.6422,-4.6799,-4.6742,-4.6131,-4.4278,-4.3329,-4.3329,-4.3329,-4.3329,-4.3329,-4.3329,-4.3329,-4.3329,-4.3329,-4.3329,-4.3329,-4.3329,-4.3329,-4.3329,0.0,0.0,-4.3295,-4.3301,-4.3216,-4.2353,-3.5687,-3.4465,-3.6068,-3.3903,-3.3119,-3.3081,-3.3081,-3.3081,-3.3081,-3.3081,-3.3081,-3.3081,-3.3081,-3.3081,-3.3081,-3.3081,-3.3081,-3.2817,-3.1687,-3.1386,-3.1122,-3.0043,-2.9792,-2.9792,-2.9792,-2.9792,-2.9792,-2.9792,-2.9792,-2.9792,-2.9792,-2.9792,-2.9792,-2.9792,-2.9792,-2.9792,-2.9792,-2.9792,-2.9792,-2.9792,-2.9792,-2.9792,-2.9792,-2.8858,-2.8371,-2.8443,-2.6841,-2.665,-2.817,-2.6453,-2.6168,-2.7579,-2.639,-2.5742,-2.5742,-2.6113,-2.6514,-2.6943,-2.7373,-2.7803,-2.752,-2.7512,-2.7371,-2.7588,-2.7625,-2.7116,-2.5341,-2.4732,0.0,0.0,-2.0366,-1.9181,-1.8592,-1.9012,-2.2623,-3.219,-3.4741,-3.6918,-4.0847,-4.1914,-4.2625,0.0,-4.5382,-4.6599,-4.6599,-4.768,0.0,0.0,0.0,0.0,-4.5379,-4.4048,-4.3329,-4.3329,-4.3329,-4.3329,-4.3329,-4.3329,-4.3329,-4.3329,-4.3329,-4.3329,-4.3329,-4.3329,-4.3329,-4.3329,0.0,0.0,-4.3265,-4.3275,-4.271,-4.1151,-3.5376,-3.4178,-3.5457,-3.377,-3.3146,-3.3081,-3.3081,-3.3081,-3.3081,-3.3081,-3.3081,-3.3081,-3.3081,-3.3081,-3.3081,-3.3081,-3.3081,-3.2817,-3.1687,-3.1386,-3.1122,-3.0043,-2.9792,-2.9792,-2.9792,-2.9792,-2.9792,-2.9792,-2.9792,-2.9792,-2.9792,-2.9792,-2.9792,-2.9792,-2.9792,-2.9792,-2.9792,-2.9792,-2.9792,-2.9792,-2.9792,-2.9792,-2.9792,-2.9624,-2.9721,-3.0181,-2.9332,-2.9238,-2.9926,-2.8207,-2.7316,-2.7589,-2.639,-2.5742,-2.5742,-2.581,-2.6074,-2.6504,-2.6934,-2.7363,-2.7158,-2.7355,-2.7456,-2.7584,-2.737,-2.6568,-2.4636,0.0,0.0,0.0,-1.8862,-1.8162,-1.7922,-1.9573,0.0,-3.0532,-3.246,-3.466,-3.9412,-4.0679,-4.1711,-4.3234,-4.5415,-4.6786,0.0,0.0,0.0,0.0,0.0,0.0,-4.425,-4.3596,-4.3329,-4.3329,-4.3329,-4.3329,-4.3329,-4.3329,-4.3329,-4.3329,-4.3329,-4.3329,-4.3329,-4.3329,-4.3329,-4.3329,0.0,0.0,-4.3175,-4.1844,-4.1479,-4.1222,-3.613,-3.508,-3.6125,-3.3926,-3.3133,-3.3081,-3.3081,-3.3081,-3.3081,-3.3081,-3.3081,-3.3081,-3.3081,-3.3081,-3.3081,-3.3081,-3.2855,-3.2441,-3.1599,-3.1185,-3.0783,-2.998,-2.9792,-2.9792,-2.9792,-2.9792,-2.9792,-2.9792,-2.9792,-2.9792,-2.9792,-2.9792,-2.9792,-2.9792,-2.9792,-2.9792,-2.9792,-2.9792,-2.9792,-2.9792,-2.9792,-2.9792,-2.9792,-2.9792,-3.003,-3.0583,-2.9985,-3.0157,-3.1296,-2.95,-2.8495,-2.8495,-2.7305,-2.639,-2.5742,-2.5967,-2.6182,-2.6406,-2.7051,-2.7461,-2.6812,-2.7221,-2.7426,-2.7549,-2.719,-2.6324,-2.4447,-2.3293,0.0,-1.8627,-1.7851,-1.7692,-1.7716,-1.9734,-2.3187,0.0,-3.0701,-3.3132,-3.808,-3.9665,-4.1035,0.0,-4.5179,0.0,-4.6549,0.0,0.0,0.0,0.0,0.0,-4.3394,-4.3329,-4.3329,-4.3329,-4.3329,-4.3329,-4.3329,-4.3329,-4.3329,-4.3329,-4.3329,-4.3329,-4.3329,-4.3329,-4.3329,-4.3329,0.0,0.0,0.0,-4.0446,-4.0217,-4.1074,-3.7177,-3.6195,-3.6727,-3.436,-3.3313,-3.3081,-3.3081,-3.3081,-3.3081,-3.3081,-3.3081,-3.3081,-3.3081,-3.3081,-3.3081,-3.3081,-3.2667,-3.2089,-3.1537,-3.0997,-3.047,-2.993,-2.9792,-2.9792,-2.9792,-2.9792,-2.9792,-2.9792,-2.9792,-2.9792,-2.9792,-2.9792,-2.9792,-2.9792,-2.9792,-2.9792,-2.9792,-2.9792,-2.9792,-2.9792,-2.9792,-2.9792,-2.9792,-2.9792,-3.003,-3.0583,-3.0245,-3.0675,-3.2106,-3.0673,-2.9681,-2.9407,-2.8226,-2.6945,-2.5742,-2.6084,-2.625,-2.6269,-2.7129,-2.7529,-2.6335,-2.6757,-2.7114,-2.7512,-2.7549,-2.7139,-2.5713,0.0,-2.1445,-1.8289,-1.7868,-1.8057,-1.8123,-1.9312,-2.1946,-2.7118,-2.9579,-3.2548,-3.7323,-3.98,-4.1424,-4.2286,0.0,0.0,-4.5805,0.0,0.0,0.0,0.0,0.0,0.0,-4.3329,-4.3329,-4.3329,-4.3329,-4.3329,-4.3329,-4.3329,-4.3329,-4.3329,-4.3329,-4.3329,-4.3329,-4.3329,-4.3329,-4.3329,0.0,0.0,0.0,-4.0446,-3.9474,-3.9498,-3.779,-3.673,-3.6122,-3.4992,-3.3953,-3.3081,-3.3081,-3.3081,-3.3081,-3.3081,-3.3081,-3.3081,-3.3081,-3.3081,-3.3081,-3.3081,-3.2667,-3.2089,-3.1537,-3.0997,-3.047,-2.993,-2.9792,-2.9792,-2.9792,-2.9792,-2.9792,-2.9792,-2.9792,-2.9792,-2.9792,-2.9792,-2.9792,-2.9792,-2.9792,-2.9792,-2.9792,-2.9792,-2.9792,-2.9792,-2.9792,-2.9792,-2.9792,-2.9792,-3.003,-3.0583,-3.1016,-3.1542,-3.219,-3.1487,-3.0496,-2.9407,-2.8226,-2.6945,-2.5742,-2.5781,-2.5791,-2.582,-2.667,-2.707,-2.5306,-2.5901,-2.6306,-2.6883,-2.6699,-2.621,-2.5407,-2.3522,-2.1215,-1.8737,-1.8398,-1.8591,-1.8726,-1.9991,-2.2335,-2.6261,-2.8207,-3.0641,-3.4638,-3.7127,-3.914,-4.0764,-4.3369,0.0,0.0,0.0,0.0,0.0,0.0,0.0,0.0,-4.291,-4.3329,-4.3329,-4.3329,-4.3329,-4.3329,-4.3329,-4.3329,-4.3329,-4.3329,-4.3329,-4.3329,-4.3329,-4.2906,-4.2183,0.0,0.0,0.0,-4.1053,-4.0457,-3.998,-3.8298,-3.7049,-3.6053,-3.5047,-3.4037,-3.3081,-3.3081,-3.3081,-3.3081,-3.3081,-3.3081,-3.3081,-3.3081,-3.283,-3.2554,-3.2554,-3.1926,-3.1198,-3.0984,-3.052,-3.0068,-2.9842,-2.9792,-2.9792,-2.9792,-2.9792,-2.9792,-2.9792,-2.9792,-2.9792,-2.9792,-2.9792,-2.9792,-2.9792,-2.9792,-2.9792,-2.9792,-2.9792,-2.9792,-2.9792,-2.9792,-2.9792,-2.9792,-2.9792,-3.003,-3.0583,-3.1065,-3.1675,-3.219,-3.2302,-3.1777,-3.0496,-2.9315,-2.8038,-2.6849,-2.611,-2.5742,-2.5752,-2.6357,-2.6777,-2.4842,-2.5434,-2.5756,-2.6195,-2.5968,-2.5425,-2.4734,-2.2979,-2.1114,-1.98,-1.9343,-1.9279,-1.9585,-2.0923,-2.2858,-2.5616,-2.7441,-2.9686,-3.2934,-3.5554,-3.7855,0.0,0.0,0.0,0.0,0.0,0.0,0.0,0.0,0.0,0.0,-4.2378,-4.2776,-4.3311,-4.2944,-4.2895,-4.3274,-4.309,-4.3135,-4.3329,-4.3329,-4.313,-4.2891,-4.2891,-4.2306,0.0,0.0,0.0,0.0,-4.0875,-4.0591,-4.0203,-3.878,-3.7663,-3.6618,-3.5842,-3.4746,-3.3556,-3.3556,-3.3398,-3.3081,-3.3081,-3.2968,-3.2817,-3.2817,-3.2541,-3.2215,-3.2215,-3.1436,-3.057,-3.0419,-3.008,-2.9792,-2.9792,-2.9792,-2.9792,-2.9792,-2.9792,-2.9792,-2.9792,-2.9792,-2.9792,-2.9792,-2.9792,-2.9792,-2.9792,-2.9792,-2.9792,-2.9792,-2.9792,-2.9792,-2.9792,-2.9792,-2.9792,-2.9792,-2.9792,-2.9955,-3.0344,-3.1044,-3.1587,-3.1951,-3.2679,-3.2513,-3.1211,-3.0368,-2.9192,-2.7589,-2.6668,-2.611,-2.5752,-2.6182,-2.668,-2.519,-2.5577,-2.5686,-2.5623,-2.561,-2.5234,-2.391,-2.2259,-2.1129,-2.158,-2.0734,-2.0073,-2.0734,-2.1839,-2.3188,-2.4994,-2.7555,-3.0227,-3.3001,-3.5994,-3.8447,0.0,0.0,0.0,0.0,0.0,0.0,0.0,0.0,0.0,0.0,0.0,-4.1535,-4.3259,-4.2093,-4.2031,-4.327,-4.2707,-4.2701,-4.3329,-4.3329,-4.2832,-4.1978,-4.1978,0.0,0.0,0.0,0.0,0.0,-3.9773,-3.9387,-3.9432,-3.9384,-3.8708,-3.7753,-3.7753,-3.6489,-3.4664,-3.4664,-3.3953,-3.3081,-3.3081,-3.2692,-3.2227,-3.2227,-3.2215,-3.2215,-3.2215,-3.1436,-3.0495,-2.9942,-2.9792,-2.9792,-2.9792,-2.9792,-2.9792,-2.9792,-2.9792,-2.9792,-2.9792,-2.9792,-2.9792,-2.9792,-2.9792,-2.9792,-2.9792,-2.9792,-2.9792,-2.9792,-2.9792,-2.9792,-2.9792,-2.9792,-2.9792,-2.9792,-2.9792,-2.9792,-2.9804,-3.0796,-3.1386,-3.1399,-3.2478,-3.2513,-3.1211,-3.1156,-2.9989,-2.7589,-2.7589,-2.6945,-2.5752,-2.6182,-2.6846,-2.2969,-2.3946,-2.4942,-2.5246,-2.5461,-2.5234,-2.3902,-2.2244,-2.0917,-2.0582,-2.0483,-2.0787,-2.1839,-2.297,-2.4811,-2.8233,-2.9802,-3.1621,-3.4496,0.0,0.0,-3.9935,0.0,0.0,0.0,0.0,0.0,0.0,0.0,0.0,0.0,0.0,-4.0472,-4.1927,-4.1324,-4.0859,-4.0601,-4.1322,-4.1788,-4.1998,-4.2316,-4.2256,-4.2001,-4.1413,0.0,0.0,0.0,0.0,0.0,-3.9503,-3.9399,-3.9399,-3.9382,-3.8708,-3.7753,-3.7021,-3.5842,-3.4581,-3.3869,-3.3398,-3.3006,-3.2616,-3.2365,-3.2139,-3.1763,-3.1399,-3.1047,-3.067,-3.0319,-3.0018,-2.9842,-2.9792,-2.9792,-2.9792,-2.9792,-2.9792,-2.9792,-2.9792,-2.9792,-2.9792,-2.9792,-2.9792,-2.9792,-2.9792,-2.9792,-2.9792,-2.9792,-2.9792,-2.9792,-2.9792,-2.9792,-2.9792,-2.9792,-2.9792,-2.9792,-2.9792,-2.9792,-2.9792,-3.083,-3.141,-3.1386,-3.2478,-3.2896,-3.2525,-3.1641,-3.0808,-3.0045,-2.84,-2.6911,-2.5752,-2.6182,-2.6689,-2.1938,-2.3208,-2.4233,-2.3362,-2.3857,-2.428,-2.3134,-2.1972,-2.1051,-2.0912,-2.1119,-2.1749,-2.3041,-2.4162,-2.5741,-2.831,-2.9649,0.0,0.0,0.0,0.0,0.0,0.0,0.0,0.0,0.0,0.0,0.0,0.0,0.0,0.0,0.0,-3.9798,-4.0621,-4.0323,-4.007,-3.9905,-4.0412,-4.092,-4.1384,-4.1776,-4.1806,-4.1505,0.0,0.0,0.0,0.0,0.0,0.0,-3.9424,-3.9424,-3.9424,-3.9424,-3.9017,-3.8308,-3.7648,-3.6462,-3.517,-3.4262,-3.3476,-3.2654,-3.2089,-3.1775,-3.1512,-3.0959,-3.0708,-3.0507,-2.9942,-2.9792,-2.9792,-2.9792,-2.9792,-2.9792,-2.9792,-2.9792,-2.9792,-2.9792,-2.9792,-2.9792,-2.9792,-2.9792,-2.9792,-2.9792,-2.9792,-2.9792,-2.9792,-2.9792,-2.9792,-2.9792,-2.9792,-2.9792,-2.9792,-2.9792,-2.9792,-2.9792,-2.9792,-2.9792,-2.9792,-3.0586,-3.0966,-3.0774,-3.1639,-3.194,-3.1701,-3.0953,-3.0273,-2.9863,-2.7883,-2.6523,-2.5742,-2.6655,-2.7003,0.0,-2.3177,-2.3555,-2.0605,-2.1392,-2.2647,-2.1852,-2.147,0.0,-2.2147,-2.2378,-2.2876,-2.4262,-2.5335,-2.6096,-2.6396,-2.8012,0.0,0.0,-3.4607,0.0,0.0,0.0,0.0,0.0,0.0,0.0,0.0,0.0,0.0,0.0,0.0,0.0,-3.9275,-3.9349,-3.9826,-4.0634,-3.9802,-4.0055,-4.125,-4.1625,-4.1415,-4.0634,0.0,0.0,0.0,0.0,0.0,0.0,-3.9424,-3.9424,-3.9424,-3.9424,-3.9394,-3.9334,-3.919,-3.7789,-3.5991,-3.5311,-3.3794,-3.2064,-3.1512,-3.0984,-3.0457,-2.9942,-3.0143,-3.0457,-2.9942,-2.9792,-2.9792,-2.9792,-2.9792,-2.9792,-2.9792,-2.9792,-2.9792,-2.9792,-2.9792,-2.9792,-2.9792,-2.9792,-2.9792,-2.9792,-2.9792,-2.9792,-2.9792,-2.9792,-2.9792,-2.9792,-2.9792,-2.9792,-2.9792,-2.9792,-2.9792,-2.9792,-2.9792,-2.9792,-2.9792,-3.0306,-3.0338,-2.9726,-3.022,-3.0224,-2.9579,-2.9435,-2.8833,-2.7609,-2.6416,-2.582,-2.5752,-2.7268,-2.7482,-2.0862,0.0,-2.2638,-2.1888,-2.207,-2.2292,0.0,-2.141,-2.1516,-2.1957,-2.2521,-2.3499,-2.5264,-2.5852,-2.7068,-3.0286,0.0,0.0,0.0,0.0,0.0,0.0,0.0,0.0,0.0,0.0,0.0,0.0,0.0,0.0,0.0,0.0,0.0,-3.7883,-3.8873,-3.9489,-3.9679,-3.9501,-3.9561,-3.9888,-3.9948,-3.9858,-3.9694,0.0,0.0,0.0,0.0,0.0,-3.9424,-3.9424,-3.9424,-3.9424,-3.9424,-3.9095,-3.8475,-3.6871,-3.5717,-3.4574,-3.2935,-3.2051,-3.1499,-3.0972,-3.0432,-2.9967,-2.9829,-2.988,-2.9955,-2.9829,-2.9792,-2.9792,-2.9792,-2.9792,-2.9792,-2.9792,-2.9792,-2.9792,-2.9792,-2.9792,-2.9792,-2.9792,-2.9792,-2.9792,-2.9792,-2.9792,-2.9792,-2.9792,-2.9792,-2.9792,-2.9792,-2.9792,-2.9792,-2.9792,-2.9792,-2.9792,-2.9792,-2.9792,-2.9792,-2.9792,-3.0306,-3.0673,-3.0939,-3.1499,-3.1428,-3.0754,-2.9885,-2.8844,-2.7603,-2.7326,-2.6652,-2.5742,-2.6112,-2.6349,-2.122,-2.1931,-2.2699,-2.3195,-2.3152,-2.2816,-2.2232,-2.1779,-2.1601,-2.1951,-2.247,-2.3453,-2.5151,-2.5924,-2.7289,0.0,-3.1326,0.0,0.0,0.0,0.0,0.0,0.0,0.0,0.0,0.0,0.0,0.0,0.0,0.0,0.0,0.0,0.0,0.0,-3.8097,-3.8592,-3.8784,-3.923,-3.9424,-3.9424,-3.9424,-3.9424,-3.9424,0.0,0.0,0.0,0.0,0.0,-3.8799,-3.8931,-3.8766,-3.8497,-3.8497,-3.8272,-3.7789,-3.6736,-3.5529,-3.4211,-3.2888,-3.1681,-3.0608,-3.0331,-3.0043,-2.9792,-2.9792,-2.9792,-2.9792,-2.9792,-2.9792,-2.9792,-2.9792,-2.9792,-2.9792,-2.9792,-2.9792,-2.9792,-2.9792,-2.9792,-2.9792,-2.9792,-2.9792,-2.9792,-2.9792,-2.9792,-2.9792,-2.9792,-2.9792,-2.9792,-2.9792,-2.9792,-2.9792,-2.9792,-2.9792,-2.9792,-2.9792,-2.9792,-2.9792,-2.9792,-3.0068,-2.9967,-2.9451,-2.9881,-2.9718,-2.8659,-2.8064,-2.7348,-2.6681,-2.6774,-2.6406,-2.5732,-2.6294,-2.6423,-2.2089,-2.2768,-2.351,-2.4093,-2.413,-2.3836,-2.3128,-2.2503,-2.209,-2.2183,-2.2704,-2.3553,-2.4843,-2.615,0.0,0.0,0.0,0.0,0.0,0.0,0.0,0.0,0.0,0.0,0.0,0.0,0.0,0.0,0.0,0.0,0.0,0.0,0.0,0.0,-3.7225,-3.7396,-3.7714,-3.862,-3.911,-3.911,-3.911,-3.914,-3.917,-3.917,0.0,0.0,0.0,0.0,-3.8038,-3.8197,-3.7913,-3.7404,-3.7404,-3.7345,-3.7201,-3.6966,-3.5697,-3.4057,-3.3252,-3.1615,-2.9792,-2.9792,-2.9792,-2.9792,-2.9792,-2.9792,-2.9792,-2.9792,-2.9792,-2.9792,-2.9792,-2.9792,-2.9792,-2.9792,-2.9792,-2.9792,-2.9792,-2.9792,-2.9792,-2.9792,-2.9792,-2.9792,-2.9792,-2.9792,-2.9792,-2.9792,-2.9792,-2.9792,-2.9792,-2.9792,-2.9792,-2.9792,-2.9792,-2.9792,-2.9792,-2.9792,-2.9792,-2.9792,-2.9792,-2.9102,-2.742,-2.7562,-2.7183,-2.5942,-2.5664,-2.5625,-2.5742,-2.5742,-2.5742,-2.5732,-2.6849,-2.6754,-2.2504,-2.4076,-2.5193,-2.3436,-2.4002,-2.4683,-2.3573,-2.3708,-2.3894,-2.3298,-2.425,-2.541,-2.6253,-2.7637,-2.9533,0.0,0.0,0.0,0.0,0.0,0.0,0.0,0.0,0.0,0.0,0.0,0.0,0.0,0.0,0.0,0.0,0.0,0.0,0.0,0.0,-3.6373,-3.5918,-3.7088,-3.7719,-3.7719,-3.7719,-3.7907,-3.8271,-3.8271,-3.7893,0.0,0.0,-3.7327,-3.7539,-3.7554,-3.7494,-3.7404,-3.7404,-3.709,-3.641,-3.4825,-3.3601,-3.2654,-3.094,-3.0151,-2.9792,-2.9792,-2.9792,-2.9792,-2.9792,-2.9792,-2.9792,-2.9792,-2.9792,-2.9792,-2.9792,-2.9792,-2.9792,-2.9792,-2.9792,-2.9792,-2.9792,-2.9792,-2.9792,-2.9792,-2.9792,-2.9792,-2.9792,-2.9792,-2.9792,-2.9792,-2.9792,-2.9792,-2.9792,-2.9792,-2.9792,-2.9792,-2.9792,-2.9792,-2.9792,-2.9792,-2.9792,-2.9792,-2.9792,-2.9443,-2.868,-2.8174,-2.748,-2.6687,-2.5724,-2.5363,-2.5742,-2.5742,-2.5742,-2.5742,-2.5917,-2.5927,-2.2649,-2.3785,-2.4752,-2.4105,-2.5274,-2.6368,-2.5389,-2.5439,-2.5575,-2.5236,-2.5727,-2.642,-2.7165,0.0,-3.0683,-3.4049,0.0,0.0,0.0,0.0,0.0,0.0,0.0,0.0,0.0,0.0,0.0,0.0,0.0,0.0,0.0,0.0,0.0,0.0,0.0,-3.5798,-3.5487,-3.6081,-3.6388,-3.6413,-3.6886,-3.7276,-3.7736,-3.7736,-3.7464,-3.7103,0.0,-3.7052,-3.6911,-3.6911,-3.6701,-3.6387,-3.6387,-3.6207,-3.574,-3.3748,-3.2554,-3.1683,-3.0292,-2.9792,-2.9792,-2.9792,-2.9792,-2.9792,-2.9792,-2.9792,-2.9792,-2.9792,-2.9792,-2.9792,-2.9792,-2.9792,-2.9792,-2.9792,-2.9792,-2.9792,-2.9792,-2.9792,-2.9792,-2.9792,-2.9792,-2.9792,-2.9792,-2.9792,-2.9792,-2.9792,-2.9792,-2.9792,-2.9792,-2.9792,-2.9792,-2.9792,-2.9792,-2.9792,-2.9792,-2.9792,-2.9792,-2.9792,-2.8712,-2.8022,-2.7923,-2.6443,-2.5661,-2.5542,-2.5283,-2.5227,-2.5363,-2.5616,-2.5742,-2.5742,-2.5742,-2.5742,-2.2832,-2.3498,-2.4268,-2.4752,-2.6031,-2.7199,-2.7368,-2.7232,-2.7182,-2.7589,-2.7572,-2.7672,0.0,-2.9888,0.0,-3.5368,0.0,0.0,0.0,0.0,0.0,0.0,0.0,0.0,0.0,0.0,0.0,0.0,0.0,0.0,0.0,0.0,0.0,0.0,0.0,0.0,-3.5504,-3.5504,-3.5517,-3.5516,-3.617,-3.6656,-3.6971,-3.6971,-3.6971,-3.6971,-3.6971,-3.6686,-3.6252,-3.6252,-3.5953,-3.5504,-3.5504,-3.5213,-3.4624,-3.3185,-3.1888,-3.0758,-3.0075,-2.9792,-2.9792,-2.9792,-2.9792,-2.9792,-2.9792,-2.9792,-2.9792,-2.9792,-2.9792,-2.9792,-2.9792,-2.9792,-2.9792,-2.9792,-2.9792,-2.9792,-2.9792,-2.9792,-2.9792,-2.9792,-2.9792,-2.9792,-2.9792,-2.9792,-2.9792,-2.9792,-2.9792,-2.9792,-2.9792,-2.9792,-2.9792,-2.9792,-2.9792,-2.9792,-2.9792,-2.9792,-2.9792,-2.9792,-2.8211,-2.73,-2.7334,-2.5451,-2.4466,-2.4594,-2.4779,-2.4948,-2.5101,-2.5373,-2.5616,-2.5742,-2.5742,-2.5742,-2.3232,-2.411,-2.485,-2.4611,-2.488,-2.5945,-2.8824,-2.8797,-2.8627,-3.0161,-3.0155,-2.9888,0.0,-3.2256,-3.4726,0.0,0.0,0.0,0.0,0.0,0.0,0.0,0.0,0.0,0.0,0.0,0.0,0.0,0.0,0.0,0.0,0.0,0.0,0.0,0.0,0.0,-3.5504,-3.5504,-3.5519,-3.5499,-3.5529,-3.5624,-3.5654,-3.5654,-3.5654,-3.5654,-3.5654,-3.5609,-3.5579,-3.5579,-3.5549,-3.5504,-3.5504,-3.4409,-3.282,-3.2664,-3.1476,-2.9856,-2.9792,-2.9792,-2.9792,-2.9792,-2.9792,-2.9792,-2.9792,-2.9792,-2.9792,-2.9792,-2.9792,-2.9792,-2.9792,-2.9792,-2.9792,-2.9792,-2.9792,-2.9792,-2.9792,-2.9792,-2.9792,-2.9792,-2.9792,-2.9792,-2.9792,-2.9792,-2.9792,-2.9792,-2.9792,-2.9792,-2.9792,-2.9792,-2.9792,-2.9792,-2.9792,-2.9792,-2.9792,-2.9792,-2.9792,-2.9792,-2.9624,-2.9131,-2.8063,-2.6955,-2.6041,-2.53,-2.4381,-2.4261,-2.5101,-2.5111,-2.5353,-2.5742,-2.5742,-2.5742,-2.266,-2.3697,-2.476,-2.5099,-2.5432,-2.6268,-2.8442,-2.954,-3.0512,-3.1875,-3.2424,-3.2634,0.0,0.0,-3.4827,0.0,0.0,0.0,0.0,0.0,0.0,0.0,0.0,0.0,0.0,0.0,0.0,0.0,0.0,0.0,0.0,0.0,0.0,0.0,0.0,-3.5943,-3.5504,-3.5504,-3.5504,-3.5504,-3.5504,-3.5504,-3.5504,-3.5504,-3.5504,-3.5504,-3.5504,-3.5504,-3.5504,-3.5504,-3.5504,-3.5504,-3.5504,-3.4691,-3.3449,-3.3449,-3.2249,-3.0696,-3.0696,-3.0279,-2.9792,-2.9792,-2.9792,-2.9792,-2.9792,-2.9792,-2.9792,-2.9792,-2.9792,-2.9792,-2.9792,-2.9792,-2.9792,-2.9792,-2.9792,-2.9792,-2.9792,-2.9792,-2.9792,-2.9792,-2.9792,-2.9792,-2.9792,-2.9792,-2.9792,-2.9792,-2.9792,-2.9792,-2.9792,-2.9792,-2.9792,-2.9792,-2.9792,-2.9792,-2.9792,-2.9142,-2.875,-2.875,-2.808,-2.7545,-2.7116,-2.5354,-2.4272,-2.3964,-2.3857,-2.3949,-2.4271,-2.4584,-2.4859,-2.5353,-2.5353,-2.5479,-2.2649,-2.3376,-2.4374,-2.5372,-2.5783,-2.643,-2.8395,-2.9763,-3.1227,-3.3291,-3.3839,-3.3945,-3.3945,0.0,0.0,0.0,0.0,0.0,0.0,0.0,0.0,0.0,0.0,0.0,0.0,0.0,0.0,0.0,0.0,0.0,0.0,0.0,0.0,0.0,0.0,0.0,-3.5504,-3.5504,-3.5504,-3.5504,-3.5504,-3.5504,-3.5504,-3.5504,-3.5504,-3.5504,-3.5504,-3.5504,-3.5504,-3.5504,-3.5504,-3.5504,-3.5504,-3.4905,-3.4027,-3.4027,-3.282,-3.118,-3.118,-3.0558,-2.9792,-2.9792,-2.9792,-2.9792,-2.9792,-2.9792,-2.9792,-2.9792,-2.9792,-2.9792,-2.9792,-2.9792,-2.9792,-2.9792,-2.9792,-2.9792,-2.9792,-2.9792,-2.9792,-2.9792,-2.9792,-2.9792,-2.9792,-2.9792,-2.9792,-2.9792,-2.9792,-2.9792,-2.9792,-2.9792,-2.9792,-2.9792,-2.9792,-2.9792,-2.9792,-2.9118,-2.8517,-2.8143,-2.7058,-2.6479,-2.6483,-2.4695,-2.3608,-2.3665,-2.3567,-2.3632,-2.3847,-2.4094,-2.4429,-2.4922,-2.4842,-2.5063,-2.3376,-2.3393,-2.3765,-2.5236,-2.5625,-2.6332,-2.8987,-2.9505,-3.0524,-3.4476,-3.4281,-3.3389,-3.3406,-3.3389,0.0,0.0,0.0,0.0,0.0,0.0,0.0,0.0,0.0,0.0,0.0,0.0,0.0,0.0,0.0,0.0,0.0,0.0,0.0,0.0,0.0,0.0,-3.5504,-3.5504,-3.5504,-3.5504,-3.5504,-3.5504,-3.5504,-3.5504,-3.5504,-3.5504,-3.5504,-3.5504,-3.5504,-3.5504,-3.5504,-3.5504,-3.5504,-3.4905,-3.4027,-3.4027,-3.282,-3.1254,-3.1254,-3.062,-2.9792,-2.9792,-2.9792,-2.9792,-2.9792,-2.9792,-2.9792,-2.9792,-2.9792,-2.9792,-2.9792,-2.9792,-2.9792,-2.9792,-2.9792,-2.9792,-2.9792,-2.9792,-2.9792,-2.9792,-2.9792,-2.9792,-2.9792,-2.9792,-2.9792,-2.9792,-2.9792,-2.9792,-2.9792,-2.9792,-2.9792,-2.9792,-2.9792,-2.9792,-2.9792,-2.9792,-2.9278,-2.814,-2.7076,-2.649,-2.6483,-2.5351,-2.477,-2.477,-2.3719,-2.3368,-2.375,-2.375,-2.3984,-2.4368,-2.4384,-2.4414,-2.2632,-2.3765,-2.505,-2.5507,-2.681,-2.8334,-2.9649,-3.0313,-3.1414,-3.3986,-3.3511,-3.2717,-3.3137,0.0,0.0,0.0,0.0,0.0,0.0,0.0,0.0,0.0,0.0,0.0,0.0,0.0,0.0,0.0,0.0,0.0,0.0,0.0,0.0,0.0,0.0,0.0,-3.6569,-3.5842,-3.5504,-3.5504,-3.5504,-3.5504,-3.5504,-3.5504,-3.5504,-3.5504,-3.5504,-3.5504,-3.5504,-3.5504,-3.5504,-3.5504,-3.5504,-3.5294,-3.5067,-3.5067,-3.4259,-3.3101,-3.2393,-3.1536,-3.0696,-2.9998,-2.9792,-2.9792,-2.9792,-2.9792,-2.9792,-2.9792,-2.9792,-2.9792,-2.9792,-2.9792,-2.9792,-2.9792,-2.9792,-2.9792,-2.9792,-2.9792,-2.9792,-2.9792,-2.9792,-2.9792,-2.9792,-2.9792,-2.9792,-2.9792,-2.9792,-2.9792,-2.9792,-2.9792,-2.9792,-2.9792,-2.9792,-2.9792,-2.9792,-2.9105,-2.8137,-2.7006,-2.5895,-2.5274,-2.5292,-2.4231,-2.3622,-2.3622,-2.3238,-2.3154,-2.3281,-2.3281,-2.3515,-2.3984,-2.3998,-2.4096,-2.3059,-2.4233,-2.5581,-2.6421,-2.767,-2.9022,-3.026,-3.1106,-3.1987,0.0,-3.2821,-3.2479,-3.3127,0.0,0.0,0.0,0.0,0.0,0.0,0.0,0.0,0.0,0.0,0.0,0.0,0.0,0.0,0.0,0.0,0.0,0.0,0.0,0.0,0.0,0.0,0.0,-3.697,-3.6011,-3.5473,-3.5504,-3.5504,-3.5504,-3.5504,-3.5504,-3.5504,-3.5504,-3.5504,-3.5504,-3.5504,-3.5504,-3.5504,-3.5504,-3.5504,-3.5504,-3.5504,-3.5504,-3.4624,-3.338,-3.282,-3.1756,-3.0558,-2.9998,-2.9792,-2.9792,-2.9792,-2.9792,-2.9792,-2.9792,-2.9792,-2.9792,-2.9792,-2.9792,-2.9792,-2.9792,-2.9792,-2.9792,-2.9792,-2.9792,-2.9792,-2.9792,-2.9792,-2.9792,-2.9792,-2.9792,-2.9792,-2.9792,-2.9792,-2.9792,-2.9792,-2.9792,-2.9792,-2.9792,-2.9792,-2.9792,-2.9792,-2.9142,-2.8118,-2.6616,-2.587,-2.5083,-2.4149,-2.3444,-2.3135,-2.3135,-2.3135,-2.3135,-2.3135,-2.3135,-2.3261,-2.3505,-2.3505,-2.3664,-2.4,-2.4629,-2.5423,-2.7467,-2.8179,-2.8824,-3.0644,-3.1546,-3.2059,-3.2154,0.0,-3.2391,0.0,0.0,0.0,0.0,0.0,0.0,0.0,0.0,0.0,0.0,0.0,0.0,0.0,0.0,0.0,0.0,0.0,0.0,0.0,0.0,0.0,0.0,0.0,0.0,-3.7291,-3.6091,-3.5567,0.0,-3.5569,-3.5504,-3.5504,-3.5504,-3.5504,-3.5504,-3.5504,-3.5504,-3.5504,-3.5504,-3.5504,-3.5504,-3.5504,-3.5504,-3.5504,-3.5504,-3.4409,-3.282,-3.2749,-3.1549,-3.0075,-2.9934,-2.9869,-2.9792,-2.9792,-2.9792,-2.9792,-2.9792,-2.9792,-2.9792,-2.9792,-2.9792,-2.9792,-2.9792,-2.9792,-2.9792,-2.9792,-2.9792,-2.9792,-2.9792,-2.9792,-2.9792,-2.9792,-2.9792,-2.9792,-2.9792,-2.9792,-2.9792,-2.9792,-2.9792,-2.9792,-2.9624,-2.9624,-2.9624,-2.9534,-2.9521,-2.8607,-2.6485,-2.6357,-2.5348,-2.3222,-2.3164,-2.3164,-2.3135,-2.3164,-2.3164,-2.3135,-2.3135,-2.3135,-2.3135,-2.3135,-2.3135,-2.2795,-2.365,-2.4627,-2.5908,-2.7823,-2.9493,-2.9921,-2.985,-3.0023,-3.119,-3.1427,-3.1478,0.0,0.0,0.0,0.0,0.0,0.0,0.0,0.0,0.0,0.0,0.0,0.0,0.0,0.0,0.0,0.0,0.0,0.0,0.0,0.0,0.0,0.0,0.0,-3.7837,-3.944,-3.6817,-3.5891,0.0,-3.5906,-3.5504,-3.5504,-3.5504,-3.5504,-3.5504,-3.5504,-3.5504,-3.5504,-3.5504,-3.5504,-3.5504,-3.5504,-3.5504,-3.5504,-3.5504,-3.5228,-3.4773,-3.3959,-3.2961,-3.1901,-3.1119,-3.0419,-2.9792,-2.9792,-2.9792,-2.9792,-2.9792,-2.9792,-2.9792,-2.9792,-2.9792,-2.9792,-2.9792,-2.9792,-2.9792,-2.9792,-2.9792,-2.9792,-2.9792,-2.9792,-2.9792,-2.9792,-2.9792,-2.9792,-2.9792,-2.9792,-2.9792,-2.9792,-2.9792,-2.9456,-2.8597,-2.8426,-2.8108,-2.7302,-2.7198,-2.6634,-2.5223,-2.5146,-2.4584,-2.3154,-2.3974,-2.3984,-2.3144,-2.3974,-2.3974,-2.3135,-2.3135,-2.3135,-2.3135,-2.3135,-2.3135,-2.283,-2.3476,-2.4528,-2.7591,-2.9395,-3.0042,-2.8578,-2.8461,-2.8901,-2.9939,-3.0142,0.0,0.0,0.0,0.0,0.0,0.0,0.0,0.0,0.0,0.0,0.0,0.0,0.0,0.0,0.0,0.0,0.0,0.0,0.0,0.0,0.0,0.0,0.0,-3.693,-3.727,-3.9002,-3.6262,-3.512,-3.567,-3.4878,-3.4547,-3.4562,-3.522,-3.5504,-3.5489,-3.516,-3.5011,-3.5011,-3.5011,-3.5011,-3.5011,-3.5011,-3.522,-3.5459,-3.513,-3.4931,-3.461,-3.3671,-3.2749,-3.1756,-3.0833,-3.0216,-2.9792,-2.9792,-2.9792,-2.9792,-2.9792,-2.9792,-2.9792,-2.9792,-2.9792,-2.9792,-2.9792,-2.9792,-2.9792,-2.9792,-2.9792,-2.9792,-2.9792,-2.9792,-2.9792,-2.9792,-2.9792,-2.9792,-2.9792,-2.9792,-2.9792,-2.9792,-2.9792,-2.9534,-2.8937,-2.8937,-2.87,-2.8131,-2.7577,-2.6806,-2.5689,-2.5073,-2.4278,-2.3144,-2.421,-2.423,-2.3144,-2.372,-2.373,-2.3135,-2.3135,-2.3135,-2.3135,-2.3135,-2.3135,-2.2895,-2.3401,-2.4666,-2.9395,-3.0228,-2.9329,-2.7212,-2.7342,-2.8068,-2.8535,0.0,0.0,0.0,0.0,0.0,0.0,0.0,0.0,0.0,0.0,0.0,0.0,0.0,0.0,0.0,0.0,0.0,0.0,0.0,0.0,0.0,0.0,-3.5791,-3.6825,-3.6038,-3.631,-3.7736,-3.557,-3.4431,-3.4457,-3.3819,-3.3499,-3.3529,-3.4651,-3.516,-3.513,-3.4562,-3.4307,-3.4307,-3.4307,-3.4307,-3.4307,-3.4307,-3.4666,-3.51,-3.4517,-3.4233,-3.3936,-3.3016,-3.2167,-3.1328,-3.0355,-2.9934,-2.9779,-2.9679,-2.9641,-2.9628,-2.9528,-2.9503,-2.9503,-2.9503,-2.9503,-2.9503,-2.9503,-2.9503,-2.9553,-2.9754,-2.9792,-2.9792,-2.9792,-2.9792,-2.9792,-2.9792,-2.9792,-2.9792,-2.9792,-2.9792,-2.9792,-2.9792,-2.9792,-2.9702,-2.9534,-2.9534,-2.9365,-2.8949,-2.8108,-2.7033,-2.6018,-2.5168,-2.4299,-2.3135,-2.421,-2.423,-2.3144,-2.3271,-2.3281,-2.3135,-2.3135,-2.3135,-2.3135,-2.3135,-2.3135,-2.136,-2.2462,-2.4313,-2.7348,-2.634,-2.4973,0.0,0.0,-2.6933,0.0,0.0,0.0,0.0,0.0,0.0,0.0,0.0,0.0,0.0,0.0,0.0,0.0,0.0,0.0,0.0,0.0,0.0,0.0,0.0,0.0,0.0,-3.4074,-3.482,-3.5786,-3.5667,-3.6118,-3.7212,-3.6009,-3.5412,-3.5498,-3.4147,-3.3499,-3.3499,-3.3679,-3.3769,-3.3754,-3.3664,-3.3619,-3.3619,-3.3619,-3.3619,-3.3619,-3.3619,-3.3679,-3.3754,-3.3664,-3.3976,-3.4322,-3.3382,-3.275,-3.2249,-3.1328,-3.0482,-2.9691,-2.9202,-2.9038,-2.8938,-2.8461,-2.8335,-2.8335,-2.8335,-2.8335,-2.8335,-2.8335,-2.8335,-2.8599,-2.9578,-2.9792,-2.9792,-2.9792,-2.9792,-2.9792,-2.9792,-2.9792,-2.9792,-2.9792,-2.9792,-2.9792,-2.9792,-2.9792,-2.9443,-2.8426,-2.8347,-2.751,-2.5619,-2.5368,-2.4723,-2.36,-2.4307,-2.4276,-2.3135,-2.421,-2.423,-2.3144,-2.4092,-2.4092,-2.3135,-2.3135,-2.3135,-2.3135,-2.3135,-2.3135,-2.0331,-2.1394,-2.2975,-2.4891,-2.4463,-2.3846,-2.4728,-2.5837,-2.6692,0.0,0.0,0.0,0.0,0.0,0.0,0.0,0.0,0.0,0.0,0.0,0.0,0.0,0.0,0.0,0.0,0.0,0.0,0.0,0.0,0.0,-3.2957,-3.3778,-3.4236,-3.4364,-3.4643,0.0,-3.547,-3.4778,-3.4297,-3.3952,-3.3316,-3.2773,-3.2392,-3.2392,-3.2796,-3.3469,-3.3095,-3.2946,-3.2946,-3.2946,-3.2946,-3.2946,-3.2946,-3.317,-3.344,-3.308,-3.3365,-3.3731,-3.2311,-3.1718,-3.1391,-2.9941,-2.9185,-2.88,-2.8549,-2.8461,-2.8411,-2.8172,-2.8109,-2.8109,-2.8109,-2.8109,-2.8109,-2.8109,-2.8109,-2.8247,-2.8737,-2.885,-2.8938,-2.9252,-2.9566,-2.9792,-2.9792,-2.9792,-2.9792,-2.9792,-2.9792,-2.9792,-2.9792,-2.9792,-2.9624,-2.9106,-2.9028,-2.8688,-2.7695,-2.6461,-2.5557,-2.5062,-2.4307,-2.3637,-2.3135,-2.3612,-2.3622,-2.3144,-2.3612,-2.3612,-2.3135,-2.3135,-2.3135,-2.3135,-2.3135,-2.3135,-1.9415,-2.0262,-2.149,-2.2783,-2.3348,-2.3595,0.0,0.0,0.0,0.0,0.0,0.0,0.0,0.0,0.0,0.0,0.0,0.0,0.0,0.0,0.0,0.0,0.0,0.0,0.0,0.0,0.0,0.0,0.0,0.0,-3.2303,-3.3032,-3.3262,-3.2832,-3.3482,-3.3872,-3.4006,-3.3682,-3.3259,-3.2825,-3.2485,-3.2158,-3.1796,-3.1402,-3.1898,-3.2961,-3.2482,-3.2273,-3.2273,-3.2273,-3.2273,-3.2273,-3.2273,-3.2557,-3.2931,-3.2437,-3.2542,-3.2694,-3.1106,-3.0539,-3.0201,-2.8651,-2.8109,-2.8084,-2.7946,-2.7896,-2.7871,-2.772,-2.7682,-2.7682,-2.7682,-2.7682,-2.7682,-2.7682,-2.7682,-2.777,-2.8047,-2.8109,-2.8235,-2.8637,-2.9189,-2.9578,-2.9578,-2.9691,-2.9792,-2.9792,-2.9792,-2.9792,-2.9792,-2.9534,-2.9365,-2.9365,-2.9118,-2.887,-2.8542,-2.7046,-2.6058,-2.6058,-2.4723,-2.38,-2.3551,-2.4049,-2.3963,-2.3135,-2.3387,-2.3387,-2.3135,-2.3135,-2.3135,-2.3135,-2.3135,-2.3135,-1.8395,-1.912,-2.0122,-2.1477,-2.2702,-2.359,0.0,0.0,0.0,0.0,0.0,0.0,0.0,0.0,0.0,0.0,0.0,0.0,0.0,0.0,0.0,0.0,0.0,0.0,0.0,0.0,0.0,0.0,0.0,0.0,-3.1297,-3.1318,-3.1338,-3.1321,-3.2253,-3.2976,-3.3457,-3.3483,-3.3491,-3.3447,-3.2218,-3.1966,-3.2516,-3.1172,-3.0956,-3.1571,-3.1541,-3.1526,-3.1526,-3.1526,-3.1526,-3.1526,-3.1526,-3.1541,-3.1571,-3.1541,-3.1456,-3.1205,-3.0202,-2.9727,-2.9381,-2.8448,-2.8109,-2.8009,-2.7482,-2.7318,-2.7218,-2.676,-2.6609,-2.6609,-2.6609,-2.6609,-2.6609,-2.6609,-2.6609,-2.6829,-2.7883,-2.8109,-2.8109,-2.8147,-2.8599,-2.8976,-2.8976,-2.9428,-2.9792,-2.9792,-2.9792,-2.9792,-2.9792,-2.8858,-2.8176,-2.8176,-2.729,-2.6213,-2.5115,-2.4957,-2.4872,-2.4872,-2.5797,-2.5808,-2.4787,-2.6767,-2.6356,-2.3135,-2.4125,-2.4211,-2.3135,-2.3135,-2.3135,-2.3135,-2.3135,-2.3135,-1.7909,-1.9126,0.0,-2.147,-2.2046,-2.2566,-2.3427,0.0,0.0,0.0,0.0,0.0,0.0,0.0,0.0,0.0,0.0,0.0,0.0,0.0,0.0,0.0,0.0,0.0,0.0,0.0,0.0,0.0,0.0,0.0,-3.1216,-3.1215,-3.1201,-3.1201,-3.1562,-3.2046,-3.2679,-3.3194,-3.3223,-3.28,-3.1919,-3.1416,-3.1217,-3.0325,-3.0043,-3.0283,-3.0283,-3.0746,-3.1482,-3.1482,-3.1482,-3.1482,-3.1482,-3.1482,-3.1482,-3.1482,-3.1485,-3.1159,-2.9764,-2.9214,-2.8931,-2.7506,-2.7055,-2.7017,-2.6816,-2.6753,-2.6716,-2.6584,-2.6533,-2.6533,-2.6533,-2.6533,-2.6533,-2.6533,-2.6533,-2.6634,-2.6967,-2.7318,-2.7582,-2.7582,-2.8021,-2.8398,-2.8398,-2.8863,-2.9239,-2.9239,-2.9553,-2.9792,-2.9792,-2.9443,-2.9197,-2.9197,-2.887,-2.8119,-2.7012,-2.6295,-2.5546,-2.4872,-2.4467,-2.4135,-2.3714,-2.4457,-2.4296,-2.3135,-2.3464,-2.3551,-2.3135,-2.3135,-2.3135,-2.3135,-2.3135,-2.3135,-1.7554,-1.8568,-1.9891,0.0,0.0,-2.1248,-2.21,0.0,0.0,0.0,0.0,0.0,0.0,0.0,0.0,0.0,0.0,0.0,0.0,0.0,0.0,0.0,0.0,0.0,0.0,0.0,0.0,0.0,0.0,0.0,-2.9683,-2.9709,-3.0027,-3.0802,-3.0845,-3.1173,-3.1901,-3.2645,-3.2807,-3.2343,-3.1556,-3.107,-3.0814,-2.9735,-2.937,-2.9579,-2.9579,-3.0073,-3.0881,-3.0881,-3.1001,-3.118,-3.118,-3.133,-3.1482,-3.1482,-3.1351,-3.0896,-2.9504,-2.8812,-2.8363,-2.6973,-2.6533,-2.6533,-2.6533,-2.6533,-2.6533,-2.6533,-2.6533,-2.6533,-2.6533,-2.6533,-2.6533,-2.6533,-2.6533,-2.6533,-2.6533,-2.6753,-2.7005,-2.7005,-2.7457,-2.7821,-2.7821,-2.8285,-2.8649,-2.8649,-2.9139,-2.9503,-2.9503,-2.9332,-2.9197,-2.9197,-2.853,-2.7787,-2.7105,-2.5892,-2.5061,-2.4777,-2.3992,-2.3564,-2.3627,-2.4059,-2.3887,-2.3135,-2.3464,-2.3464,-2.3135,-2.3135,-2.3135,-2.3135,-2.3135,-2.3135,0.0,0.0,0.0,0.0,0.0,0.0,0.0,0.0,0.0,0.0,0.0,0.0,0.0,0.0,0.0,0.0,0.0,0.0,0.0,0.0,0.0,0.0,0.0,0.0,0.0,0.0,0.0,0.0,0.0,-2.6681,-2.672,-2.6717,-2.7748,-3.0023,-3.0074,-3.0429,-3.1157,-3.1867,-3.2263,-3.2239,-3.1034,-3.0844,-3.139,-2.946,-2.8906,-2.952,-2.952,-2.952,-2.952,-2.9564,-2.9939,-3.0477,-3.0477,-3.0881,-3.1422,-3.1422,-3.0984,-3.0179,-2.9289,-2.8414,-2.7604,-2.6782,-2.6533,-2.6533,-2.6533,-2.6533,-2.6533,-2.6533,-2.6533,-2.6533,-2.6533,-2.6533,-2.6533,-2.6533,-2.6533,-2.6533,-2.6533,-2.6533,-2.6533,-2.6533,-2.6892,-2.7256,-2.7256,-2.772,-2.8084,-2.8084,-2.8549,-2.89,-2.89,-2.839,-2.8128,-2.8128,-2.6146,-2.4914,-2.483,-2.3453,-2.3233,-2.4639,-2.4336,-2.4294,-2.4735,-2.5764,-2.5357,-2.3105,-2.417,-2.417,-2.3105,-2.3125,-2.3135,-2.3135,-2.3135,-2.3135,-1.7227,0.0,0.0,0.0,0.0,0.0,0.0,0.0,0.0,0.0,0.0,0.0,0.0,0.0,0.0,0.0,0.0,0.0,0.0,0.0,0.0,0.0,0.0,0.0,0.0,0.0,0.0,0.0,-2.6708,-2.6691,-2.6707,-2.7398,-2.8243,-2.9262,-2.9296,-2.9651,-3.0395,-3.0615,-3.097,-3.1495,-3.0716,-3.0238,-2.992,-2.8964,-2.8388,-2.8128,-2.8128,-2.8128,-2.8255,-2.9175,-2.9684,-2.9834,-2.9834,-2.9953,-3.0118,-3.0118,-3.0276,-3.0234,-2.8769,-2.8441,-2.8427,-2.6973,-2.6533,-2.6533,-2.6533,-2.6533,-2.6533,-2.6533,-2.6533,-2.6533,-2.6533,-2.6533,-2.6533,-2.6533,-2.6533,-2.6533,-2.6533,-2.6533,-2.6533,-2.6533,-2.6647,-2.6691,-2.6691,-2.7143,-2.7507,-2.7507,-2.7984,-2.8335,-2.8335,-2.8226,-2.8089,-2.8089,-2.7524,-2.6901,-2.6127,-2.4968,-2.4148,-2.378,-2.2981,-2.2589,-2.2709,-2.3041,-2.2875,-2.2227,-2.2552,-2.2552,-2.2236,-2.2842,-2.3135,-2.3135,-2.3135,-2.3135,-1.8084,-1.872,-1.8922,0.0,0.0,0.0,0.0,-1.9292,0.0,0.0,0.0,0.0,0.0,0.0,0.0,0.0,0.0,0.0,0.0,0.0,0.0,0.0,0.0,0.0,0.0,0.0,0.0,0.0,-2.5541,-2.5227,-2.6049,-2.7012,-2.7859,-2.8484,-2.8501,-2.8873,-2.9634,-2.9634,-2.9854,-3.026,-2.9663,-2.9386,-2.9265,-2.8433,-2.801,-2.7944,-2.771,-2.7625,-2.7685,-2.8412,-2.8906,-2.9175,-2.9175,-2.934,-2.9579,-2.9579,-2.961,-2.943,-2.8138,-2.7708,-2.757,-2.6215,-2.5774,-2.5774,-2.5774,-2.5774,-2.5774,-2.5774,-2.5937,-2.6151,-2.6402,-2.6276,-2.6101,-2.6101,-2.6101,-2.6101,-2.6101,-2.6289,-2.6533,-2.6533,-2.6533,-2.6533,-2.6533,-2.6798,-2.6942,-2.6942,-2.7406,-2.7758,-2.7758,-2.7959,-2.8109,-2.8109,-2.7717,-2.7025,-2.5942,-2.4736,-2.3688,-2.2788,-2.2016,-2.1699,-2.1875,-2.1885,-2.1885,-2.1885,-2.1885,-2.1885,-2.1885,-2.2373,-2.2705,-2.2881,-2.2881,-2.2969,-1.9379,-1.9275,-1.8777,-1.8627,0.0,0.0,-1.7312,-1.8654,0.0,0.0,0.0,0.0,0.0,0.0,0.0,0.0,0.0,0.0,0.0,0.0,0.0,0.0,0.0,0.0,0.0,0.0,-2.3401,-2.6031,-2.3782,-2.3152,-2.5157,-2.6083,-2.6928,-2.7637,-2.7689,-2.8061,-2.8839,-2.8856,-2.889,-2.8975,-2.8439,-2.852,-2.9033,-2.7933,-2.7736,-2.8355,-2.7754,-2.755,-2.7625,-2.7625,-2.7934,-2.8487,-2.8487,-2.8846,-2.9355,-2.9355,-2.8975,-2.8295,-2.739,-2.6734,-2.6069,-2.5116,-2.482,-2.482,-2.482,-2.482,-2.482,-2.482,-2.5159,-2.5624,-2.6138,-2.59,-2.5511,-2.5511,-2.5511,-2.5511,-2.5511,-2.5912,-2.6276,-2.6276,-2.6445,-2.6533,-2.6533,-2.6533,-2.6533,-2.6533,-2.6879,-2.7193,-2.7193,-2.762,-2.7921,-2.7921,-2.709,-2.6094,-2.5068,-2.3743,-2.2689,-2.1945,-2.1528,-2.1409,-2.1719,-2.1738,-2.1738,-2.1738,-2.1738,-2.1738,-2.1738,-2.1836,-2.208,-2.2441,-2.2441,-2.2646,-1.9641,-1.9611,-1.9241,-1.8179,0.0,0.0,-1.6761,-1.8014,0.0,0.0,0.0,0.0,0.0,0.0,0.0,0.0,0.0,0.0,0.0,0.0,0.0,0.0,0.0,0.0,0.0,0.0,-2.2534,-2.3123,-2.2618,-2.3233,-2.5424,-2.5727,-2.615,-2.6894,-2.6911,-2.7283,-2.8044,-2.8044,-2.8366,-2.9011,-2.8884,-2.8636,-2.831,-2.7628,-2.7425,-2.7597,-2.7058,-2.7081,-2.7625,-2.7625,-2.77,-2.7784,-2.7784,-2.791,-2.8015,-2.8015,-2.8241,-2.837,-2.6876,-2.6675,-2.6728,-2.5294,-2.482,-2.482,-2.482,-2.482,-2.482,-2.482,-2.4895,-2.4996,-2.5109,-2.5059,-2.4971,-2.4971,-2.4971,-2.4971,-2.4971,-2.5059,-2.5146,-2.5146,-2.585,-2.6533,-2.6533,-2.6533,-2.6533,-2.6533,-2.6622,-2.6697,-2.6697,-2.6716,-2.6779,-2.6779,-2.6627,-2.6122,-2.5085,-2.469,-2.379,-2.2081,-2.1921,-2.1547,-2.0899,-2.082,-2.082,-2.082,-2.082,-2.082,-2.082,-2.1533,-2.1924,-2.2012,-2.2012,-2.2051,-1.9697,-1.9693,-1.9525,-1.8867,0.0,0.0,0.0,0.0,-1.7752,0.0,0.0,0.0,0.0,0.0,0.0,0.0,0.0,0.0,0.0,0.0,0.0,0.0,0.0,0.0,0.0,0.0,-2.2372,-2.2569,-2.2694,-2.3338,-2.4697,-2.5107,-2.5561,-2.6133,-2.615,-2.6505,-2.7249,-2.7249,-2.7452,-2.7841,-2.7841,-2.7885,-2.7911,-2.7106,-2.6957,-2.7303,-2.6441,-2.6482,-2.7066,-2.6722,-2.6782,-2.7111,-2.744,-2.7625,-2.7625,-2.7625,-2.7358,-2.6863,-2.6078,-2.553,-2.5017,-2.4202,-2.3979,-2.3979,-2.3979,-2.3979,-2.4042,-2.433,-2.4406,-2.4469,-2.4745,-2.4619,-2.4406,-2.4406,-2.4406,-2.4406,-2.4406,-2.4619,-2.482,-2.482,-2.5272,-2.5724,-2.5988,-2.6025,-2.6126,-2.6483,-2.6533,-2.6314,-2.5804,-2.5734,-2.5581,-2.5063,-2.4981,-2.4612,-2.3588,-2.3514,-2.285,-2.1375,-2.1298,-2.1078,-2.0644,-2.0566,-2.0566,-2.0566,-2.0566,-2.0566,-2.0566,-2.1016,-2.1338,-2.1562,-2.1562,-2.168,0.0,0.0,0.0,0.0,0.0,-1.9391,0.0,0.0,0.0,-1.6578,0.0,0.0,0.0,0.0,0.0,0.0,0.0,0.0,0.0,0.0,0.0,0.0,0.0,0.0,0.0,0.0,-2.2422,-2.2755,-2.3171,-2.35,-2.3715,-2.4389,-2.4969,-2.5372,-2.5541,-2.5896,-2.6471,-2.6623,-2.6691,-2.6691,-2.6691,-2.7012,-2.757,-2.6477,-2.6406,-2.7019,-2.5879,-2.5794,-2.6363,-2.5824,-2.5929,-2.6467,-2.7126,-2.7355,-2.72,-2.7335,-2.6674,-2.56,-2.5328,-2.4446,-2.3471,-2.3198,-2.3078,-2.3078,-2.3078,-2.3078,-2.3226,-2.3703,-2.3841,-2.3941,-2.4381,-2.4167,-2.3841,-2.3841,-2.3841,-2.3841,-2.3841,-2.418,-2.4494,-2.4494,-2.4494,-2.4695,-2.5335,-2.5448,-2.5598,-2.6076,-2.6138,-2.589,-2.5202,-2.4932,-2.4601,-2.3879,-2.3599,-2.3073,-2.2103,-2.2178,-2.1821,-2.0634,-2.0789,-2.0789,-2.0644,-2.0566,-2.0566,-2.0566,-2.0566,-2.0566,-2.0566,-2.0566,-2.0752,-2.1103,-2.1103,-2.1299,0.0,0.0,0.0,0.0,-2.0094,0.0,0.0,0.0,-2.0203,-1.9436,0.0,0.0,0.0,0.0,0.0,0.0,0.0,0.0,0.0,0.0,0.0,0.0,0.0,0.0,0.0,0.0,0.0,-2.236,-2.3432,-2.3779,-2.3062,-2.367,-2.4196,-2.4608,-2.5253,-2.5642,-2.5727,-2.637,-2.6691,-2.6691,-2.6691,-2.6742,-2.6776,-2.5803,-2.5694,-2.6261,-2.5192,-2.506,-2.5719,-2.5644,-2.5659,-2.5779,-2.6437,-2.6348,-2.5899,-2.6482,-2.6594,-2.6282,-2.4994,-2.4819,-2.4894,-2.3531,-2.3078,-2.3078,-2.3078,-2.3078,-2.309,-2.3153,-2.3226,-2.3251,-2.3253,-2.3215,-2.3226,-2.3226,-2.3226,-2.3226,-2.3226,-2.3215,-2.3265,-2.3265,-2.3265,-2.3603,-2.4732,-2.4908,-2.4933,-2.4996,-2.5008,-2.5106,-2.549,-2.4796,-2.4423,-2.4815,-2.4036,-2.3073,-2.2103,-2.285,-2.2563,-2.0712,-2.1375,-2.1441,-2.0644,-2.0566,-2.0566,-2.0566,-2.0566,-2.0566,-2.0566,-2.0566,-2.0596,-2.0644,-2.0644,-2.0664,0.0,0.0,0.0,0.0,0.0,0.0,-1.9758,0.0,-2.0137,0.0,0.0,0.0,0.0,0.0,0.0,0.0,0.0,0.0,0.0,0.0,0.0,0.0,0.0,0.0,0.0,0.0,0.0,0.0,0.0,-2.3927,-2.3276,-2.3397,-2.3605,-2.3846,-2.4154,-2.4729,-2.5609,-2.5913,-2.6285,-2.6691,-2.6691,-2.6691,-2.6657,-2.5672,-2.5342,-2.5552,-2.4475,-2.4418,-2.5016,-2.4612,-2.4687,-2.5076,-2.5345,-2.551,-2.5644,-2.5914,-2.5764,-2.5232,-2.4259,-2.3796,-2.3537,-2.2885,-2.2661,-2.2711,-2.3037,-2.3078,-2.3078,-2.3078,-2.3078,-2.3078,-2.3078,-2.3078,-2.3078,-2.3078,-2.3078,-2.3078,-2.3078,-2.3078,-2.3078,-2.3078,-2.3078,-2.3228,-2.3766,-2.4117,-2.4456,-2.477,-2.482,-2.448,-2.3629,-2.3189,-2.2579,-2.1808,-2.1323,-2.0896,-2.0464,-2.0822,-2.0675,-1.9899,-2.0252,-2.0362,-2.0176,-1.9951,-1.9941,-2.0185,-1.9941,-1.9824,-1.9824,-1.9824,-1.9997,-2.0193,-2.0497,-2.0566,-1.9692,0.0,0.0,0.0,0.0,0.0,0.0,0.0,0.0,0.0,0.0,0.0,0.0,0.0,0.0,0.0,0.0,0.0,0.0,0.0,0.0,0.0,0.0,0.0,0.0,0.0,0.0,0.0,0.0,0.0,-2.3689,-2.3291,-2.3127,-2.321,-2.3333,-2.39,-2.5,-2.5203,-2.5558,-2.6099,-2.6302,-2.6404,-2.637,-2.5591,-2.5221,-2.5144,-2.4074,-2.3879,-2.4313,-2.3804,-2.3894,-2.4343,-2.4343,-2.4642,-2.5076,-2.527,-2.4988,-2.4433,-2.3794,-2.3076,-2.2387,-2.2173,-2.2083,-2.2159,-2.256,-2.2686,-2.2686,-2.2686,-2.2686,-2.2686,-2.2686,-2.2799,-2.2852,-2.2852,-2.2965,-2.3078,-2.3078,-2.3078,-2.3078,-2.3078,-2.3078,-2.3078,-2.3078,-2.3477,-2.3904,-2.4305,-2.4356,-2.387,-2.2709,-2.2117,-2.1341,-2.0165,-1.9618,-1.9311,-1.9311,-1.9326,-1.9287,-1.9287,-1.9287,-1.9394,-1.9723,-1.9497,-1.9434,-1.9736,-1.9438,-1.9311,-1.9311,-1.9316,-1.9487,-1.9732,-2.0213,-2.0507,0.0,0.0,0.0,-1.969,0.0,0.0,0.0,0.0,-1.969,0.0,0.0,0.0,0.0,0.0,-1.9664,-1.9588,0.0,0.0,0.0,0.0,0.0,0.0,0.0,0.0,0.0,0.0,0.0,0.0,0.0,0.0,-2.4112,-2.3252,-2.2738,-2.273,-2.317,-2.341,-2.346,-2.4171,-2.4557,-2.4591,-2.5287,-2.5642,-2.5627,-2.5326,-2.5221,-2.5144,-2.4074,-2.361,-2.3625,-2.361,-2.361,-2.3625,-2.3625,-2.3655,-2.3744,-2.4418,-2.4612,-2.4506,-2.3768,-2.3013,-2.2322,-2.1716,-2.1518,-2.1518,-2.1543,-2.1543,-2.1543,-2.1543,-2.1543,-2.1543,-2.1543,-2.1945,-2.2334,-2.2334,-2.2749,-2.3078,-2.3078,-2.3078,-2.3078,-2.3078,-2.3078,-2.3078,-2.3078,-2.309,-2.3103,-2.3128,-2.3128,-2.3328,-2.3879,-2.2339,-2.1375,-2.1854,-2.0318,-1.9322,-1.9322,-1.9267,-1.9287,-1.9287,-1.9287,-1.9281,-1.931,-1.9334,-1.9297,-1.9307,-1.929,-1.9322,-1.9322,-1.9321,-1.9297,-1.9316,-1.9723,-2.0154,0.0,0.0,-1.969,-1.969,0.0,0.0,0.0,0.0,0.0,0.0,0.0,0.0,0.0,0.0,-1.9694,-1.9698,-1.7492,0.0,0.0,0.0,0.0,0.0,0.0,0.0,0.0,0.0,0.0,0.0,0.0,0.0,0.0,-2.3102,-2.2981,-2.2453,-2.2587,-2.2919,-2.3393,-2.3646,-2.4002,-2.4506,-2.4729,-2.4738,-2.4447,-2.3997,-2.366,-2.3309,-2.2631,-2.2338,-2.2383,-2.2802,-2.2981,-2.3026,-2.343,-2.3595,-2.3625,-2.3864,-2.3939,-2.3807,-2.269,-2.1874,-2.1302,-2.1031,-2.0941,-2.1016,-2.138,-2.1493,-2.1493,-2.1493,-2.1493,-2.1493,-2.1493,-2.1631,-2.1769,-2.1769,-2.1907,-2.2146,-2.251,-2.2585,-2.2698,-2.3002,-2.3078,-2.3078,-2.3078,-2.3078,-2.2944,-2.2384,-2.2322,-2.1937,-2.1009,-2.0314,-1.9783,-1.9411,-1.8844,-1.8414,-1.8414,-1.8416,-1.8437,-1.8437,-1.8437,-1.8577,-1.8854,-1.8577,-1.8543,-1.8821,-1.856,-1.8414,-1.8414,-1.8407,-1.8546,-1.8824,-1.9014,-1.9297,-1.969,-1.969,0.0,-1.969,-1.9697,0.0,-1.8982,0.0,0.0,0.0,0.0,0.0,0.0,0.0,0.0,-1.9698,-1.7512,-1.5785,0.0,0.0,0.0,0.0,0.0,0.0,0.0,0.0,-1.7613,-1.5936,0.0,0.0,0.0,0.0,-2.2882,-2.2453,-2.2349,-2.253,-2.3004,-2.3004,-2.3241,-2.3714,-2.3968,-2.3964,-2.3731,-2.3438,-2.3087,-2.2619,-2.2141,-2.1838,-2.1724,-2.2158,-2.2323,-2.2368,-2.2772,-2.3071,-2.3295,-2.352,-2.3595,-2.345,-2.2423,-2.1629,-2.1082,-2.0849,-2.0562,-2.0426,-2.0778,-2.0891,-2.0891,-2.0891,-2.0891,-2.0891,-2.0891,-2.1041,-2.1192,-2.1192,-2.1343,-2.1581,-2.1945,-2.202,-2.2184,-2.2736,-2.2836,-2.2912,-2.304,-2.3078,-2.2944,-2.2384,-2.2063,-2.1491,-2.0398,-1.9683,-1.911,-1.8529,-1.8202,-1.8008,-1.8008,-1.8008,-1.8008,-1.8008,-1.8008,-1.8105,-1.8378,-1.8115,-1.8105,-1.8375,-1.8115,-1.8008,-1.8008,-1.8008,-1.8115,-1.8378,-1.8378,-1.8523]},{"header":{"parameterUnit":"m.s-1","parameterCategory":1,"la1":30.6,"la2":29.2853,"lo1":-89.7004,"lo2":-87.6739,"dy":0.0162,"dx":0.0183,"nx":112,"ny":82,"refTime":"2024-08-18T12:00:00:Z","depth":0,"parameterNumber":3,"parameterNumberName":"V-component_of_WINDS"},"data":[0.0,0.0,0.0,0.0,0.0,0.0,0.0,0.0,0.0,0.0,0.0,0.0,0.0,0.0,0.0,0.0,0.0,0.0,0.0,0.0,0.0,0.0,0.0,0.0,0.0,0.0,0.0,0.0,0.0,0.0,0.0,0.0,0.0,0.0,0.0,0.0,0.0,0.0,0.0,0.0,0.0,0.0,0.0,0.0,0.0,0.0,0.0,0.0,0.0,0.0,0.0,0.0,0.0,0.0,0.0,0.0,0.0,0.0,0.0,0.0,0.0,0.0,0.0,0.0,0.0,0.0,0.0,0.0,0.0,0.0,0.0,0.0,0.0,0.0,0.0,0.0,0.0,0.0,0.0,0.0,0.0,0.0,0.0,0.0,0.0,0.0,0.0,0.0,0.0,0.0,-1.8831,-2.1055,-2.2665,-2.3973,-2.4702,-2.3877,-2.2539,-2.0586,0.0,0.0,0.0,0.0,0.0,0.0,0.0,0.0,0.0,0.0,0.0,0.0,0.0,0.0,0.0,0.0,0.0,0.0,0.0,0.0,0.0,0.0,0.0,0.0,0.0,0.0,0.0,0.0,0.0,0.0,0.0,0.0,0.0,0.0,0.0,0.0,0.0,0.0,0.0,0.0,0.0,0.0,0.0,0.0,0.0,0.0,0.0,0.0,0.0,0.0,0.0,0.0,0.0,0.0,0.0,0.0,0.0,0.0,0.0,0.0,0.0,0.0,0.0,0.0,0.0,0.0,0.0,0.0,0.0,0.0,0.0,0.0,0.0,0.0,0.0,0.0,0.0,0.0,0.0,0.0,0.0,0.0,0.0,0.0,0.0,0.0,0.0,0.0,0.0,0.0,0.0,0.0,0.0,0.0,0.0,0.0,0.0,0.0,0.0,0.0,0.0,0.0,0.0,0.0,-1.9571,-2.3681,-2.5301,-2.5641,-2.4872,-2.4617,-2.3463,-2.105,0.0,0.0,0.0,0.0,0.0,0.0,0.0,0.0,0.0,0.0,0.0,0.0,0.0,0.0,0.0,0.0,0.0,0.0,0.0,0.0,0.0,0.0,0.0,0.0,0.0,0.0,0.0,0.0,0.0,0.0,0.0,0.0,0.0,0.0,0.0,0.0,0.0,0.0,0.0,0.0,0.0,0.0,0.0,0.0,0.0,0.0,0.0,0.0,0.0,0.0,0.0,0.0,0.0,0.0,0.0,0.0,0.0,0.0,0.0,0.0,0.0,0.0,0.0,0.0,0.0,0.0,0.0,0.0,0.0,0.0,0.0,0.0,0.0,0.0,0.0,0.0,0.0,0.0,0.0,0.0,0.0,0.0,0.0,0.0,0.0,0.0,0.0,0.0,0.0,0.0,0.0,0.0,0.0,0.0,0.0,0.0,0.0,0.0,0.0,0.0,0.0,0.0,0.0,-1.976,-2.2037,-2.6183,-2.6543,-2.6543,-2.6603,-2.6036,-2.4741,-2.2269,-2.0964,0.0,0.0,0.0,0.0,0.0,0.0,0.0,0.0,0.0,0.0,0.0,0.0,0.0,0.0,0.0,0.0,0.0,0.0,0.0,0.0,0.0,0.0,0.0,0.0,0.0,0.0,0.0,0.0,0.0,0.0,0.0,0.0,0.0,0.0,0.0,0.0,0.0,0.0,0.0,0.0,0.0,0.0,0.0,0.0,0.0,0.0,0.0,0.0,0.0,0.0,0.0,0.0,0.0,0.0,0.0,0.0,0.0,0.0,0.0,0.0,0.0,0.0,0.0,0.0,0.0,0.0,0.0,0.0,0.0,0.0,0.0,0.0,0.0,0.0,0.0,0.0,0.0,0.0,0.0,0.0,0.0,0.0,0.0,0.0,0.0,0.0,0.0,0.0,0.0,0.0,0.0,0.0,0.0,0.0,0.0,0.0,0.0,0.0,0.0,0.0,0.0,0.0,-2.2507,-2.462,-2.7767,-2.7614,-2.7464,-2.8016,-2.6851,-2.5249,-2.3218,-2.1635,0.0,0.0,0.0,0.0,0.0,0.0,0.0,0.0,0.0,0.0,0.0,0.0,0.0,0.0,0.0,0.0,0.0,0.0,0.0,0.0,0.0,0.0,0.0,0.0,0.0,0.0,0.0,0.0,0.0,0.0,0.0,0.0,0.0,0.0,0.0,0.0,0.0,0.0,0.0,0.0,0.0,0.0,0.0,0.0,0.0,0.0,0.0,0.0,0.0,0.0,0.0,0.0,0.0,0.0,0.0,0.0,0.0,0.0,0.0,0.0,0.0,0.0,0.0,0.0,0.0,0.0,0.0,0.0,0.0,0.0,0.0,0.0,0.0,0.0,0.0,0.0,0.0,0.0,0.0,0.0,0.0,0.0,0.0,0.0,0.0,0.0,0.0,0.0,0.0,0.0,0.0,0.0,0.0,0.0,0.0,0.0,0.0,0.0,0.0,0.0,0.0,0.0,-2.3624,-2.68,-2.7965,-2.8949,-2.9197,-2.8176,-2.6162,-2.4402,-2.3203,-2.0181,0.0,0.0,0.0,0.0,0.0,0.0,0.0,0.0,0.0,0.0,0.0,0.0,0.0,0.0,0.0,0.0,0.0,0.0,0.0,0.0,0.0,0.0,0.0,0.0,0.0,0.0,0.0,0.0,0.0,0.0,0.0,0.0,0.0,0.0,0.0,0.0,0.0,0.0,0.0,0.0,0.0,0.0,0.0,0.0,0.0,0.0,0.0,0.0,0.0,0.0,0.0,0.0,0.0,0.0,0.0,0.0,0.0,0.0,0.0,0.0,0.0,0.0,0.0,0.0,0.0,0.0,0.0,0.0,0.0,0.0,0.0,0.0,0.0,0.0,0.0,0.0,0.0,0.0,0.0,0.0,0.0,0.0,0.0,0.0,0.0,0.0,0.0,0.0,0.0,0.0,0.0,0.0,0.0,0.0,0.0,0.0,0.0,0.0,0.0,0.0,0.0,0.0,-2.4001,-2.6758,0.0,-2.9534,-2.9624,-2.9197,-2.8049,-2.634,-2.3842,0.0,0.0,0.0,0.0,0.0,0.0,0.0,0.0,0.0,0.0,0.0,0.0,0.0,0.0,0.0,0.0,0.0,0.0,0.0,0.0,0.0,0.0,0.0,0.0,0.0,0.0,0.0,0.0,0.0,0.0,0.0,0.0,0.0,0.0,0.0,0.0,0.0,0.0,0.0,0.0,0.0,0.0,0.0,0.0,0.0,0.0,0.0,0.0,0.0,0.0,0.0,0.0,0.0,0.0,0.0,0.0,0.0,0.0,0.0,0.0,0.0,0.0,0.0,0.0,0.0,0.0,0.0,0.0,0.0,0.0,0.0,0.0,0.0,0.0,0.0,0.0,0.0,0.0,0.0,0.0,0.0,0.0,0.0,0.0,0.0,0.0,0.0,0.0,0.0,0.0,0.0,0.0,0.0,0.0,0.0,0.0,0.0,0.0,0.0,0.0,0.0,0.0,-2.2007,-2.4682,-2.7268,0.0,-2.9792,-2.9792,-2.9792,-2.8612,-2.6766,-2.4167,0.0,0.0,0.0,0.0,0.0,0.0,0.0,0.0,0.0,0.0,0.0,0.0,0.0,0.0,0.0,0.0,0.0,0.0,0.0,0.0,0.0,0.0,0.0,0.0,0.0,0.0,0.0,0.0,0.0,0.0,0.0,0.0,0.0,0.0,0.0,0.0,0.0,0.0,0.0,0.0,0.0,0.0,0.0,0.0,0.0,0.0,0.0,0.0,0.0,0.0,0.0,0.0,0.0,0.0,0.0,0.0,0.0,0.0,0.0,0.0,0.0,0.0,0.0,0.0,0.0,0.0,0.0,0.0,0.0,0.0,0.0,0.0,0.0,0.0,0.0,0.0,0.0,0.0,0.0,0.0,0.0,0.0,0.0,0.0,0.0,0.0,0.0,0.0,0.0,0.0,0.0,0.0,0.0,0.0,0.0,0.0,0.0,0.0,0.0,0.0,0.0,0.0,-2.2153,-2.5673,-2.8536,-2.9679,-2.9792,-2.9792,-2.9792,-2.7231,-2.5159,0.0,0.0,0.0,0.0,0.0,0.0,0.0,0.0,0.0,0.0,0.0,0.0,0.0,0.0,0.0,0.0,0.0,0.0,0.0,0.0,0.0,0.0,0.0,0.0,0.0,0.0,0.0,0.0,0.0,0.0,0.0,0.0,0.0,0.0,0.0,0.0,0.0,0.0,0.0,0.0,0.0,0.0,0.0,0.0,0.0,0.0,0.0,0.0,0.0,0.0,0.0,0.0,0.0,0.0,0.0,0.0,0.0,0.0,0.0,0.0,0.0,0.0,0.0,0.0,0.0,0.0,0.0,0.0,0.0,0.0,0.0,0.0,0.0,0.0,0.0,0.0,0.0,0.0,0.0,0.0,0.0,0.0,0.0,0.0,0.0,0.0,0.0,0.0,0.0,0.0,0.0,0.0,0.0,0.0,0.0,0.0,0.0,0.0,0.0,0.0,0.0,0.0,0.0,-2.2735,-2.5902,-2.8536,-2.9679,-2.9792,-2.9792,-2.9792,-2.8298,-2.635,-2.406,0.0,0.0,0.0,0.0,0.0,0.0,0.0,0.0,0.0,0.0,0.0,0.0,0.0,0.0,0.0,0.0,0.0,0.0,0.0,0.0,0.0,0.0,0.0,0.0,0.0,0.0,0.0,0.0,0.0,0.0,0.0,0.0,0.0,0.0,0.0,0.0,0.0,0.0,0.0,0.0,0.0,0.0,0.0,0.0,0.0,0.0,0.0,0.0,0.0,0.0,0.0,0.0,0.0,0.0,0.0,0.0,0.0,0.0,0.0,0.0,0.0,0.0,0.0,0.0,0.0,0.0,0.0,0.0,0.0,0.0,0.0,0.0,0.0,0.0,0.0,0.0,0.0,0.0,0.0,0.0,0.0,0.0,0.0,0.0,0.0,0.0,0.0,0.0,0.0,0.0,0.0,0.0,0.0,0.0,0.0,0.0,0.0,0.0,0.0,0.0,0.0,0.0,-2.4288,-2.7459,-2.9948,-3.0817,-3.0921,-3.0921,-3.0921,-3.0059,-2.845,-2.5809,0.0,0.0,0.0,0.0,0.0,0.0,0.0,0.0,0.0,0.0,0.0,0.0,0.0,0.0,0.0,0.0,0.0,0.0,0.0,0.0,0.0,0.0,0.0,0.0,0.0,0.0,0.0,0.0,0.0,0.0,0.0,0.0,0.0,0.0,0.0,0.0,0.0,0.0,0.0,0.0,0.0,0.0,0.0,0.0,0.0,0.0,0.0,0.0,0.0,0.0,0.0,0.0,0.0,0.0,0.0,0.0,0.0,0.0,0.0,0.0,0.0,0.0,0.0,0.0,0.0,0.0,0.0,0.0,0.0,0.0,0.0,0.0,0.0,0.0,0.0,0.0,0.0,0.0,0.0,0.0,0.0,0.0,0.0,0.0,0.0,0.0,0.0,0.0,0.0,0.0,0.0,0.0,0.0,0.0,0.0,0.0,0.0,0.0,0.0,0.0,0.0,0.0,-2.6257,-2.9586,-3.2,-3.2538,-3.2593,-3.2593,-3.2721,-3.2236,-3.0946,-2.8637,0.0,0.0,0.0,0.0,0.0,0.0,0.0,0.0,0.0,0.0,0.0,0.0,0.0,0.0,0.0,0.0,0.0,0.0,0.0,0.0,0.0,0.0,0.0,0.0,0.0,0.0,0.0,0.0,0.0,0.0,0.0,0.0,0.0,0.0,0.0,0.0,0.0,0.0,0.0,0.0,0.0,0.0,0.0,0.0,0.0,0.0,0.0,0.0,0.0,0.0,0.0,0.0,0.0,0.0,0.0,0.0,0.0,0.0,0.0,0.0,-2.4739,0.0,0.0,0.0,0.0,0.0,0.0,0.0,0.0,0.0,0.0,0.0,0.0,0.0,0.0,0.0,0.0,0.0,0.0,0.0,0.0,0.0,0.0,0.0,0.0,0.0,0.0,0.0,0.0,0.0,0.0,0.0,0.0,0.0,0.0,0.0,0.0,0.0,0.0,0.0,0.0,0.0,-2.6257,-2.9586,-3.2,-3.2538,-3.2593,-3.2848,-3.3514,-3.2982,-3.2072,-3.0716,-2.9408,0.0,0.0,0.0,0.0,0.0,0.0,0.0,0.0,0.0,0.0,0.0,0.0,0.0,0.0,0.0,0.0,0.0,0.0,0.0,0.0,0.0,0.0,0.0,0.0,0.0,0.0,0.0,0.0,0.0,0.0,0.0,0.0,0.0,0.0,0.0,0.0,0.0,0.0,0.0,0.0,0.0,0.0,0.0,0.0,0.0,0.0,0.0,0.0,0.0,0.0,0.0,0.0,0.0,0.0,0.0,0.0,0.0,0.0,0.0,0.0,-2.6437,0.0,0.0,0.0,0.0,0.0,0.0,0.0,0.0,0.0,0.0,0.0,0.0,0.0,0.0,0.0,0.0,0.0,0.0,0.0,0.0,0.0,0.0,0.0,0.0,0.0,0.0,0.0,0.0,0.0,0.0,0.0,0.0,0.0,0.0,0.0,0.0,0.0,0.0,0.0,0.0,-2.8222,-3.1392,-3.3681,-3.3945,-3.4307,-3.4714,-3.5141,-3.5226,-3.4871,-3.3962,-3.259,0.0,0.0,0.0,0.0,0.0,0.0,0.0,0.0,0.0,0.0,0.0,0.0,0.0,0.0,0.0,0.0,0.0,0.0,0.0,0.0,0.0,0.0,0.0,0.0,0.0,0.0,0.0,0.0,0.0,0.0,0.0,0.0,0.0,0.0,0.0,0.0,0.0,0.0,0.0,0.0,0.0,0.0,0.0,0.0,0.0,0.0,0.0,0.0,0.0,0.0,0.0,0.0,0.0,0.0,-2.8373,-2.8536,-3.0017,-3.1151,-3.1662,-2.9178,-2.8848,-2.9941,0.0,0.0,0.0,0.0,0.0,0.0,0.0,0.0,0.0,0.0,0.0,0.0,0.0,0.0,0.0,0.0,0.0,0.0,0.0,0.0,0.0,0.0,0.0,0.0,0.0,-3.1891,-3.1462,0.0,0.0,0.0,0.0,0.0,0.0,0.0,0.0,0.0,0.0,0.0,0.0,-3.0522,-3.3607,-3.5668,-3.5668,-3.6337,-3.6843,-3.7008,-3.7616,-3.7767,-3.7149,-3.5828,-3.4476,0.0,0.0,0.0,0.0,0.0,0.0,0.0,0.0,0.0,0.0,0.0,0.0,0.0,0.0,0.0,0.0,0.0,0.0,0.0,0.0,0.0,0.0,0.0,0.0,0.0,0.0,0.0,0.0,0.0,0.0,0.0,0.0,-2.1681,-2.136,0.0,0.0,0.0,0.0,0.0,0.0,0.0,0.0,0.0,0.0,0.0,0.0,0.0,0.0,-2.59,-2.7005,-2.8059,-2.9051,-3.0337,-3.1329,-3.2146,-3.2368,-3.3024,-3.3833,-3.2595,0.0,-3.0427,-3.0347,0.0,0.0,0.0,0.0,0.0,0.0,0.0,0.0,0.0,0.0,0.0,0.0,0.0,0.0,0.0,0.0,0.0,0.0,0.0,0.0,0.0,0.0,-3.6374,-3.4471,-3.5019,-3.5447,0.0,-3.0321,-2.7623,-2.7736,0.0,0.0,0.0,0.0,0.0,0.0,0.0,0.0,-3.1168,-3.4333,-3.643,-3.643,-3.716,-3.7905,-3.8564,-3.869,-3.8739,-3.8722,-3.7896,-3.7067,-3.6231,-3.3474,0.0,0.0,0.0,0.0,0.0,0.0,0.0,0.0,0.0,0.0,0.0,0.0,0.0,0.0,0.0,0.0,0.0,0.0,0.0,0.0,0.0,0.0,0.0,0.0,0.0,0.0,0.0,0.0,0.0,-2.1598,-2.276,-2.1401,-2.1777,-2.1354,0.0,0.0,0.0,0.0,0.0,0.0,0.0,0.0,0.0,-2.5812,-2.6766,-2.7758,-2.8787,-2.9566,-3.0206,-3.0696,-3.1486,-3.2086,-3.247,-3.2803,-3.3204,-3.3587,-3.3462,-3.2959,-3.2334,-3.1585,-3.1174,-3.0797,0.0,0.0,0.0,0.0,0.0,-3.0941,-3.1973,0.0,0.0,0.0,0.0,0.0,0.0,0.0,0.0,0.0,0.0,0.0,0.0,0.0,0.0,-3.5922,-3.5826,-3.5804,-3.5179,-3.3493,-3.1783,0.0,-2.9892,-2.8818,-2.6553,0.0,0.0,0.0,0.0,0.0,-3.373,-3.5859,-3.7263,-3.7263,-3.7962,-3.8525,-3.8854,-3.9315,-3.9596,-3.9614,-3.9309,-3.8802,-3.8058,-3.6366,-3.4489,0.0,0.0,0.0,0.0,0.0,0.0,0.0,0.0,0.0,0.0,0.0,0.0,0.0,0.0,0.0,0.0,0.0,0.0,0.0,0.0,0.0,0.0,0.0,0.0,0.0,0.0,0.0,0.0,-2.2908,-2.3523,-2.2019,-2.2696,-2.2442,0.0,0.0,0.0,0.0,0.0,0.0,-2.5179,-2.6287,-2.7356,-2.8312,-2.9578,-3.0532,-3.1235,-3.1637,-3.1964,-3.2252,-3.2654,-3.278,-3.2654,-3.3093,-3.3366,-3.353,-3.3875,-3.43,-3.4681,-3.3256,-3.3014,-3.3489,-3.2418,-3.2243,-3.2572,-3.2736,-3.311,-3.3679,-3.4651,-3.5394,-3.5447,-3.3231,0.0,-3.2545,-3.0649,0.0,0.0,0.0,0.0,-3.625,-3.66,0.0,-3.6616,-3.6384,-3.5894,-3.5504,-3.5504,-3.5504,-3.4921,0.0,-3.2796,-3.2077,-2.9191,0.0,0.0,0.0,0.0,-3.4676,-3.5909,-3.7263,-3.8092,-3.8092,-3.8761,-3.9209,-3.9209,-3.9782,-4.007,-4.007,-4.007,-3.9834,-3.9292,-3.8565,-3.6958,-3.432,0.0,0.0,0.0,0.0,0.0,0.0,0.0,0.0,0.0,0.0,0.0,0.0,0.0,0.0,0.0,0.0,0.0,0.0,0.0,0.0,0.0,0.0,0.0,0.0,0.0,0.0,0.0,0.0,0.0,-2.4919,-2.4983,0.0,0.0,0.0,0.0,-2.4568,-2.6128,-2.75,-2.8631,-2.9693,-3.0641,-3.1158,-3.1292,-3.1838,-3.2943,-3.298,-3.352,-3.455,-3.4575,-3.4324,-3.3822,-3.3847,-3.4139,-3.4581,-3.4637,-3.5801,-3.7519,-3.6244,-3.5409,-3.5001,-3.5859,-3.5833,-3.5385,-3.6013,-3.6252,-3.6297,-3.6372,-3.6454,-3.6334,-3.5534,-3.4427,-3.3698,-3.4848,-3.4904,0.0,0.0,-3.7096,-3.7518,-3.6786,-3.6599,-3.64,-3.5718,-3.5504,-3.5504,-3.5504,-3.5504,-3.5474,0.0,-3.4801,-3.4346,-3.4315,0.0,-3.3725,-3.4366,-3.5193,-3.5925,-3.663,-3.7997,-3.8854,-3.8854,-3.9558,-4.002,-4.002,-4.007,-4.007,-4.007,-4.007,-4.0054,-4.002,-3.9326,-3.8193,-3.6637,-3.3719,0.0,0.0,0.0,0.0,0.0,0.0,0.0,0.0,0.0,0.0,0.0,0.0,0.0,0.0,0.0,0.0,0.0,0.0,0.0,0.0,0.0,0.0,0.0,0.0,0.0,0.0,0.0,0.0,-2.6404,-2.6918,0.0,-2.4892,-2.5598,-2.6499,-2.7335,-2.8321,-2.9391,-3.0468,-3.1221,-3.1876,-3.2494,-3.2867,-3.337,-3.4123,-3.4135,-3.4336,-3.4726,-3.4726,-3.4613,-3.4424,-3.4424,-3.4981,-3.5831,-3.61,-3.7073,-3.8452,-3.8282,-3.7763,-3.7198,-3.7088,-3.6941,-3.6761,-3.6985,-3.7075,-3.7075,-3.7075,-3.7397,-3.7724,-3.71,-3.6198,-3.5518,-3.6102,-3.6072,-3.6148,-3.7142,-3.7584,-3.7584,-3.6781,-3.6615,-3.6384,-3.5668,-3.5504,-3.5504,-3.5504,-3.5504,-3.5504,-3.5504,-3.531,-3.5024,-3.4775,-3.5186,-3.5729,-3.6144,-3.7114,-3.8072,-3.8847,-3.9391,-3.9662,-3.9662,-3.9952,-4.007,-4.007,-4.007,-3.9884,-3.9411,-3.9377,-3.9174,-3.87,-3.843,-3.7821,-3.6806,-3.4759,-3.2429,0.0,0.0,0.0,0.0,0.0,0.0,0.0,0.0,0.0,0.0,0.0,0.0,0.0,0.0,0.0,0.0,0.0,0.0,0.0,0.0,0.0,0.0,0.0,0.0,0.0,0.0,-2.8066,-2.7709,-2.8535,-2.8488,-2.6873,-2.773,-2.8748,-2.9677,-3.0315,-3.0904,-3.1596,-3.2406,-3.2943,-3.3395,-3.3909,-3.4449,-3.4989,-3.5002,-3.509,-3.5278,-3.5278,-3.5177,-3.5002,-3.5002,-3.5481,-3.6452,-3.7138,-3.8036,-3.9131,-3.9772,-3.9679,-3.9005,-3.8347,-3.8078,-3.8078,-3.8078,-3.8078,-3.8048,-3.7823,-3.7911,-3.8091,-3.7698,-3.7198,-3.679,-3.6938,-3.6956,-3.7017,-3.7342,-3.7397,-3.7219,-3.6461,-3.6228,-3.6117,-3.5619,-3.5504,-3.5504,-3.5504,-3.5504,-3.5504,-3.5504,-3.5504,-3.5461,-3.5349,-3.6266,-3.7181,-3.7587,-3.8579,-3.9489,-4.002,-3.985,-3.9731,-3.9731,-3.9731,-3.9731,-3.9731,-3.9733,-3.9614,-3.9377,-3.8903,-3.8514,-3.8278,-3.7787,-3.7161,-3.64,-3.4771,-3.3174,-3.1623,0.0,0.0,0.0,0.0,0.0,0.0,0.0,0.0,0.0,0.0,0.0,0.0,0.0,0.0,0.0,0.0,0.0,0.0,0.0,0.0,0.0,0.0,0.0,-2.814,-2.8667,-2.9019,-2.9074,-2.9879,-3.0006,-2.9039,-2.9924,-3.0854,-3.1345,-3.1876,-3.2204,-3.2228,-3.332,-3.3895,-3.392,-3.4422,-3.5014,-3.5567,-3.5567,-3.583,-3.6358,-3.6358,-3.6081,-3.5567,-3.5567,-3.5877,-3.6445,-3.7615,-3.8695,-3.9729,-4.0882,-4.0995,-4.0337,-3.9694,-3.9439,-3.9424,-3.9424,-3.9424,-3.9334,-3.8661,-3.8003,-3.7464,-3.7449,-3.7434,-3.7436,-3.7566,-3.759,-3.7451,-3.6801,-3.66,-3.6415,-3.5699,-3.5519,-3.5504,-3.5504,-3.5504,-3.5504,-3.5504,-3.5504,-3.5504,-3.5504,-3.5504,-3.5718,-3.6508,-3.7279,-3.8035,-3.8799,-3.9542,0.0,-4.007,-3.9368,-3.8854,-3.8854,-3.8854,-3.8854,-3.8854,-3.8974,-3.9309,-3.9969,-3.8684,-3.821,-3.8886,-3.755,-3.6434,-3.5707,-3.3864,-3.3274,-3.3957,0.0,0.0,0.0,0.0,0.0,0.0,0.0,0.0,0.0,0.0,0.0,0.0,0.0,0.0,0.0,0.0,0.0,0.0,0.0,0.0,0.0,0.0,-2.8976,-2.9199,-3.0391,-3.112,-3.0906,-3.0964,-3.0752,-3.0148,-3.0404,-3.0943,-3.1897,-3.2127,-3.2562,-3.3383,-3.3717,-3.4292,-3.5023,-3.5161,-3.5579,-3.6132,-3.6132,-3.6219,-3.6358,-3.6358,-3.6282,-3.6132,-3.6132,-3.6657,-3.7619,-3.8392,-3.9312,-4.0363,-4.1074,-4.0995,-4.0382,-4.0202,-3.9843,-3.9424,-3.9424,-3.9424,-3.9394,-3.92,-3.902,-3.8781,-3.8272,-3.8123,-3.8057,-3.7586,-3.7443,-3.7412,-3.7216,-3.6839,-3.6507,-3.6274,-3.5863,-3.5504,-3.5504,-3.5504,-3.5504,-3.5504,-3.5504,-3.5504,-3.5504,-3.5504,-3.5718,-3.6508,-3.6783,-3.7365,-3.8674,0.0,0.0,-3.9139,-3.8596,-3.8092,-3.8092,-3.8092,-3.8092,-3.8092,-3.8635,-3.8546,-3.7683,-3.7784,-3.7753,-3.7398,-3.7009,-3.6941,-3.728,-3.5661,-3.5079,0.0,0.0,0.0,0.0,0.0,0.0,0.0,0.0,0.0,0.0,0.0,0.0,0.0,0.0,0.0,0.0,0.0,0.0,0.0,0.0,0.0,0.0,-2.9784,-3.1318,-3.1613,-3.2491,-3.2867,-3.2082,-3.2067,-3.1801,-3.1004,-3.1136,-3.1736,-3.2785,-3.2934,-3.3333,-3.422,-3.4475,-3.4848,-3.5449,-3.5768,-3.6044,-3.6358,-3.6358,-3.6358,-3.6358,-3.6358,-3.6358,-3.6358,-3.6358,-3.707,0.0,-3.8978,-3.9943,-4.1107,-4.1844,-4.1818,0.0,0.0,0.0,0.0,0.0,-3.9424,-3.9424,-3.9424,-3.9424,-3.9349,-3.896,-3.8826,-3.8691,-3.8018,-3.7823,-3.7764,-3.7479,-3.6971,-3.6492,-3.6492,-3.5998,-3.5504,-3.5504,-3.5504,-3.5504,-3.5504,-3.5504,-3.5504,-3.5504,0.0,0.0,-3.6054,-3.6384,-3.6888,-3.7815,-3.7847,-3.7978,0.0,-3.779,-3.7279,-3.7279,-3.7279,-3.7456,-3.7764,-3.8193,0.0,0.0,0.0,-3.7567,-3.6806,-3.6772,0.0,0.0,0.0,0.0,0.0,0.0,0.0,0.0,-3.9623,-4.0454,0.0,0.0,0.0,0.0,0.0,0.0,0.0,0.0,0.0,0.0,0.0,0.0,0.0,0.0,0.0,0.0,-3.1984,-3.3841,-3.4549,-3.4507,-3.3966,-3.2724,-3.3071,-3.289,-3.1567,-3.1891,-3.2636,-3.3783,-3.3908,-3.4161,-3.474,0.0,0.0,0.0,0.0,-3.6358,-3.6358,-3.6358,-3.6358,-3.6358,-3.6358,-3.6358,-3.6358,-3.6358,-3.707,-3.8198,-3.936,-4.0575,-4.1684,-4.282,-4.294,-4.2314,-4.0905,-3.9993,-3.9424,-3.9424,-3.9424,0.0,0.0,0.0,0.0,-3.9424,-3.9424,-3.9305,-3.8691,-3.8497,-3.8377,-3.7793,-3.7135,-3.6596,-3.6596,-3.6043,-3.5504,-3.5504,-3.5504,-3.5504,-3.5504,-3.5504,-3.5504,-3.5504,-3.5504,-3.5504,-3.5504,-3.6054,-3.6492,-3.6615,-3.716,0.0,-3.7632,-3.698,-3.6508,-3.6508,0.0,0.0,-3.7573,-3.7734,-3.8391,-3.975,-3.8685,-3.7736,-3.706,-3.711,-3.7499,-3.8261,-3.8903,-3.9935,-4.1339,-4.2066,-4.2455,-4.2543,-4.1388,-4.2367,0.0,0.0,0.0,0.0,0.0,0.0,0.0,0.0,0.0,0.0,0.0,0.0,0.0,0.0,0.0,-3.1576,-3.3244,-3.4564,-3.521,-3.4574,-3.3754,-3.2717,-3.3085,-3.2893,-3.1501,-3.1908,-3.2698,-3.3771,-3.387,-3.4362,-3.5274,-3.5419,0.0,-3.6194,-3.6307,-3.6358,-3.6358,-3.6358,-3.6358,-3.6358,0.0,0.0,-3.6358,-3.6358,-3.707,-3.8198,-3.936,-4.0575,-4.1684,-4.282,-4.294,-4.2314,-4.0905,-3.9993,-3.9424,-3.9424,-3.9424,-3.9424,-3.9424,-3.9424,-3.9424,-3.9424,-3.9424,-3.9394,-3.926,-3.923,0.0,-3.9065,-3.8153,-3.724,-3.724,-3.6372,-3.5504,-3.5504,-3.5504,-3.5504,-3.5504,-3.5504,-3.5504,-3.5504,-3.5504,-3.5504,-3.5504,-3.5619,-3.5879,-3.6492,-3.6243,-3.6133,-3.6737,-3.618,-3.5733,-3.5733,-3.5733,-3.6006,-3.6798,-3.7446,-3.7929,-3.8206,-3.8606,-3.8717,-3.8565,-3.9123,-3.98,-4.0561,-4.0713,-4.1204,-4.2083,-4.2828,-4.3521,-4.4185,-4.4389,-4.4595,0.0,0.0,0.0,0.0,0.0,0.0,0.0,0.0,0.0,0.0,0.0,-2.6092,-2.7819,0.0,-3.1614,-3.3206,-3.4316,-3.497,-3.4779,-3.4301,-3.3618,-3.269,-3.2886,-3.2646,-3.1506,-3.2164,-3.3158,-3.425,-3.4297,-3.4769,-3.5906,-3.5906,-3.6043,-3.6358,-3.6358,-3.6358,-3.6358,-3.6358,-3.6358,-3.6358,-3.6358,-3.6358,-3.6358,-3.6358,-3.707,-3.8198,-3.936,-4.0575,-4.1684,-4.282,-4.294,-4.2267,-4.1265,-4.0487,-3.9873,-3.9544,-3.9424,-3.9424,-3.9424,-3.9424,-3.9424,-3.9424,-3.9424,-3.9424,-3.9424,-3.9424,-3.9424,-3.9424,-3.8452,-3.7404,-3.7404,-3.6462,-3.5504,-3.5504,-3.5504,-3.5504,-3.5504,-3.5504,-3.5504,-3.5504,-3.5504,-3.5504,-3.5504,-3.5504,-3.5619,-3.6006,-3.5733,-3.5604,-3.6006,-3.5733,-3.5504,-3.5504,-3.5831,-3.6337,-3.7144,-3.8246,-3.8954,-3.892,-3.9312,-3.9529,-3.9529,-3.9884,-4.0443,-4.1187,-4.1559,-4.2117,-4.2861,-4.3623,-4.4401,-4.5145,-4.5845,-4.6181,0.0,0.0,0.0,0.0,0.0,0.0,0.0,0.0,-2.3849,-2.53,-2.7055,-2.8713,-2.9964,-3.1679,-3.327,-3.4505,-3.4963,-3.4949,-3.4134,-3.3716,-3.3171,-3.2393,-3.2617,-3.2448,-3.1511,-3.2416,-3.3519,-3.4578,-3.4718,-3.5211,-3.6332,-3.6358,-3.6358,-3.6358,-3.6358,-3.6408,-3.6521,-3.6521,-3.6521,-3.6521,-3.6521,-3.6471,-3.6358,-3.6358,-3.707,-3.8198,-3.9623,-4.0746,-4.1684,-4.282,-4.3015,-4.2476,-4.1683,-4.1055,-4.0502,-3.9709,-3.9424,-3.9424,-3.9424,-3.9424,-3.9424,-3.9424,-3.9424,-3.9424,-3.9424,-3.9424,-3.9424,-3.9424,-3.8542,-3.7569,-3.7434,-3.6552,-3.5669,-3.5534,-3.5504,-3.5504,-3.5504,-3.5504,-3.5504,-3.5504,-3.5504,-3.5504,-3.5504,-3.5504,-3.5504,-3.5504,-3.5504,-3.5504,-3.5504,-3.5504,-3.5504,-3.5504,-3.6054,-3.6753,-3.769,-3.9049,-3.9952,-4.007,-4.007,-4.007,-4.007,-4.0223,-4.0646,-4.1407,-4.2134,-4.2878,-4.3639,-4.4418,-4.5179,-4.594,-4.6667,-4.7344,-2.1251,-2.1198,-2.1556,-2.2202,-2.2692,-2.3717,0.0,0.0,-2.6692,-2.8622,-3.015,-3.1283,-3.2038,-3.3364,-3.4545,-3.5284,-3.4675,-3.4157,-3.4039,-3.2561,-3.1462,-3.1389,-3.2182,-3.2388,-3.1529,-3.2416,-3.3519,-3.4578,-3.4718,-3.5211,-3.6332,-3.6358,-3.6358,-3.6358,-3.6358,-3.6596,-3.7086,-3.7098,-3.7098,-3.7098,-3.7098,-3.6835,-3.6358,-3.6358,-3.707,-3.8198,-4.0462,-4.1504,-4.1684,-4.282,-4.3284,-4.3105,-4.1863,-4.1324,-4.1115,-3.9873,-3.9424,-3.9424,-3.9424,-3.9424,-3.9424,-3.9424,-3.9424,-3.9424,-3.9424,-3.9424,-3.9424,-3.9424,-3.8871,-3.8138,-3.7554,-3.6896,-3.6237,-3.5639,-3.5504,-3.5504,-3.5504,-3.5504,-3.5504,-3.5504,-3.5504,-3.5504,-3.5504,-3.5504,-3.5504,-3.5504,-3.5504,-3.5504,-3.5504,-3.5504,-3.5504,-3.5504,-3.5554,-3.6196,-3.7706,-3.858,-3.9315,-4.007,-4.007,-4.007,-4.007,-4.073,-4.1424,-4.2151,-4.2912,-4.3673,-4.4451,-4.5213,-4.5957,-4.6684,-4.7445,-4.7834,-2.1394,-2.1846,-2.2401,-2.1604,-2.2632,-2.4151,-2.5364,-2.6035,-2.6808,-2.8351,-3.0393,-3.202,-3.2282,-3.3849,-3.5165,0.0,-3.4684,-3.3808,-3.3239,-3.2055,-3.0777,-2.9539,-3.0036,-3.0789,-3.1367,-3.2104,-3.3191,-3.4622,-3.4688,-3.5201,-3.632,-3.6358,-3.6358,-3.6358,-3.6358,-3.6621,-3.7174,-3.7186,-3.7186,-3.7186,-3.7186,-3.6897,-3.6358,-3.6358,-3.707,-3.8107,-3.9156,-3.9944,-4.0661,-4.1864,-4.229,-4.2254,-4.1632,-4.1384,-4.122,-3.9903,-3.9424,-3.9424,-3.9424,-3.9424,-3.9424,-3.9424,-3.9424,-3.9424,-3.9424,-3.9424,-3.9424,-3.9424,-3.8931,-3.8242,-3.7584,-3.6941,-3.6312,-3.5669,-3.5504,-3.5504,-3.5504,-3.5504,-3.5504,-3.5504,-3.5504,-3.5504,-3.5504,-3.5504,-3.5504,-3.5504,-3.5504,-3.5504,-3.5504,-3.5504,-3.5668,-3.6117,-3.6165,-3.6585,-3.7706,-3.8469,-3.9032,-3.9368,-3.9833,-4.007,-4.007,-4.0798,-4.1542,-4.2286,-4.3031,-4.3809,-4.4587,-4.4891,-4.5652,-4.6802,-4.7124,-4.7716,-2.1395,-2.2011,-2.2589,-2.1452,-2.2724,-2.4403,-2.4923,-2.5764,-2.6804,-2.8011,-3.0203,-3.1953,-3.1898,-3.3739,-3.5165,-3.4887,-3.4147,-3.3197,-3.1955,-3.0927,-2.9719,-2.7832,-2.7975,-2.8855,-3.0275,-3.0977,-3.1883,-3.3318,-3.3946,-3.4663,-3.563,-3.615,-3.6358,-3.6358,-3.6358,-3.6697,-3.74,-3.7412,-3.7412,-3.7412,-3.7412,-3.7048,-3.6358,-3.6358,-3.6896,-3.7678,-3.7939,-3.8827,-3.9986,-4.1169,-4.1767,-4.1995,-4.1555,-4.1384,-4.122,-3.9903,-3.9424,-3.9424,-3.9424,-3.9424,-3.9424,-3.9424,-3.9424,-3.9424,-3.9424,-3.9424,-3.9424,-3.9424,-3.9065,-3.8482,-3.7629,-3.7075,-3.6537,-3.5699,-3.5504,-3.5504,-3.5504,-3.5504,-3.5504,-3.5504,-3.5504,-3.5504,-3.5504,-3.5504,-3.5504,-3.5504,-3.5504,-3.5504,-3.5504,-3.5504,-3.5718,-3.6228,-3.6275,-3.6631,-3.7397,-3.8189,-3.869,-3.8908,-3.9662,-4.0172,-4.0375,-4.1102,-4.1847,-4.2591,-4.3352,-4.4012,-4.4587,-4.479,-4.5551,-4.6786,-4.7005,-4.7784,-2.1059,-2.1245,-2.1726,-2.2859,-2.3741,-2.485,-2.6686,-2.7115,-2.7538,-2.8747,-3.0182,-3.1232,-3.1202,-3.3028,-3.4257,-3.3354,-3.2847,-3.1931,-2.9893,-2.8805,-2.7812,-2.6648,-2.6565,-2.6959,0.0,-2.8522,-2.9298,-3.023,-3.1915,-3.3244,-3.3719,-3.5404,-3.6358,-3.6358,-3.6358,-3.6885,-3.7977,-3.799,-3.799,-3.799,-3.799,-3.7412,-3.6358,-3.6358,-3.6452,-3.6546,-3.7586,-3.8827,-3.9986,-4.1169,-4.229,-4.3115,-4.1893,-4.1384,-4.122,-3.9903,-3.9424,-3.9424,-3.9424,-3.9424,-3.9424,-3.9424,-3.9424,-3.9424,-3.9424,-3.9424,-3.9424,-3.9424,-3.9409,-3.908,-3.7749,-3.7404,-3.706,-3.5804,-3.5504,-3.5504,-3.5504,-3.5504,-3.5504,-3.5504,-3.5504,-3.5504,-3.5504,-3.5504,-3.5504,-3.5504,-3.5504,-3.5504,-3.5504,-3.5504,-3.5504,-3.5504,-3.5504,-3.5831,-3.6554,-3.7397,-3.8149,-3.8854,-3.9662,-4.0409,-4.1136,-4.1863,-4.2608,-4.3369,-4.4147,-4.4553,-4.4587,-4.5314,-4.6058,-4.6802,-4.7547,-4.8291,-2.0247,-2.0731,-2.1565,-2.1942,-2.2821,-2.3882,-2.5298,-2.5592,-2.593,-2.7193,-2.8677,-2.9778,-2.99,-3.122,-3.2326,-3.2407,-3.109,-2.9893,-2.9567,-2.8333,-2.6952,-2.5527,-2.5862,0.0,0.0,0.0,0.0,-3.1258,-3.2094,-3.3194,-3.4792,-3.5849,-3.6358,-3.6358,-3.6358,-3.6709,-3.745,-3.7462,-3.7462,-3.745,-3.7098,-3.6722,-3.6358,-3.6358,-3.6358,-3.6452,-3.6803,-3.7243,-3.7691,-3.8843,-4.0006,-4.0957,-4.0406,-4.0707,-4.122,-3.9903,-3.9424,-3.9424,-3.9424,-3.9424,-3.9424,-3.9424,-3.9424,-3.9424,-3.9424,-3.9424,-3.9424,-3.9424,-3.9424,-3.911,-3.7764,-3.7404,-3.709,-3.5804,-3.5504,-3.5504,-3.5504,-3.5504,-3.5504,-3.5504,-3.5504,-3.5504,-3.5504,-3.5504,-3.5504,-3.5504,-3.5504,-3.5504,-3.5504,-3.5504,-3.5504,-3.5504,-3.5504,-3.5619,-3.5831,-3.6569,-3.7322,-3.8133,-3.887,-3.9876,-4.117,-4.1914,-4.2642,-4.3403,-4.4181,-4.4587,-4.4587,-4.484,-4.5585,-4.6802,-4.7056,-4.7834,-1.9612,-2.02,-2.0995,-2.165,-2.2455,-2.3359,-2.4309,-2.4734,-2.5165,-2.5909,-2.7288,-2.8437,-2.8536,-2.947,-3.0323,-3.0561,-2.9346,-2.8324,-2.8111,-2.7108,-2.6034,-2.4831,-2.5125,-2.528,0.0,0.0,0.0,-2.9936,-3.1264,-3.2625,-3.4029,-3.5544,-3.6358,-3.6358,-3.6358,-3.6621,-3.7174,-3.7186,-3.7186,-3.7174,-3.6621,-3.6358,-3.6358,-3.6358,-3.6358,-3.6358,-3.6358,-3.659,-3.706,-3.8275,-3.9482,-4.0485,-4.0314,-4.0701,-4.122,-3.9873,-3.9424,-3.9424,-3.9424,-3.9424,-3.9424,-3.9424,-3.9424,-3.9424,-3.9424,-3.9424,-3.9424,-3.9424,-3.9424,-3.911,-3.7764,-3.7404,-3.709,-3.5804,-3.5504,-3.5504,-3.5504,-3.5504,-3.5504,-3.5504,-3.5504,-3.5504,-3.5504,-3.5504,-3.5504,-3.5504,-3.5504,-3.5504,-3.5504,-3.5504,-3.5504,-3.5504,-3.5504,-3.5504,-3.5504,-3.6461,-3.7263,-3.7764,-3.8761,-3.9993,-4.1542,-4.2049,-4.2777,-4.3809,-4.4333,-4.4587,-4.4587,-4.4587,-4.5348,-4.6786,-4.6786,-4.7581,-1.922,-1.9639,-2.012,-2.1906,-2.2735,-2.3261,-2.3876,-2.4549,-2.4957,-2.4937,-2.613,-2.7181,-2.7181,0.0,-2.8163,-2.7911,-2.781,-2.7161,-2.5643,-2.5381,-2.5118,0.0,0.0,0.0,0.0,0.0,0.0,-2.661,0.0,-3.1737,-3.1828,-3.4752,-3.6358,-3.6358,-3.6358,-3.6609,-3.7136,-3.7149,-3.7149,-3.7136,-3.6609,-3.6358,-3.6358,-3.6358,-3.6358,-3.6358,-3.6358,-3.7047,-3.814,-3.9213,-4.0432,-4.1524,-4.1381,-4.1344,-4.1235,-3.9946,-3.9439,-3.9424,-3.9424,-3.9424,-3.9424,-3.9424,-3.9424,-3.9424,-3.9424,-3.9424,-3.9424,-3.9424,-3.9424,-3.911,-3.7764,-3.7404,-3.709,-3.5804,-3.5504,-3.5504,-3.5504,-3.5504,-3.5504,-3.5504,-3.5504,-3.5504,-3.5504,-3.5504,-3.5504,-3.5504,-3.5504,-3.5504,-3.5504,-3.5504,-3.5504,-3.5504,-3.5504,-3.5504,-3.5504,-3.6829,-3.7706,-3.7764,-3.9206,-4.0713,-4.2165,-4.232,-4.3047,-4.4553,-4.4587,-4.4587,-4.4587,-4.4587,-4.5348,-4.6786,-4.6786,-4.7581,-1.9987,-2.0538,-2.0994,-2.2486,-2.2967,-2.3261,-2.3876,-2.3807,-2.3917,-2.4915,-2.5112,-2.5168,-2.5274,-2.5998,0.0,-2.5924,-2.5683,0.0,-2.5411,-2.4935,0.0,-2.4414,0.0,-2.5801,-2.5586,-2.6626,0.0,0.0,-3.0874,-3.2375,-3.3027,-3.5144,-3.6358,-3.6358,-3.6358,-3.6433,-3.6571,-3.6571,-3.6571,-3.6571,-3.6433,-3.6358,-3.6358,-3.6358,-3.6358,-3.6358,-3.6358,-3.6602,-3.6832,-3.7147,-3.8482,-4.0252,-3.9753,-4.03,-4.128,-4.0437,-3.9824,-3.9424,-3.9424,-3.9424,-3.9424,-3.9424,-3.9424,-3.9424,-3.9424,-3.9424,-3.9424,-3.9424,-3.9424,-3.911,-3.7764,-3.7404,-3.709,-3.5804,-3.5504,-3.5504,-3.5504,-3.5504,-3.5504,-3.5504,-3.5504,-3.5504,-3.5504,-3.5504,-3.5504,-3.5504,-3.5504,-3.5504,-3.5504,-3.5504,-3.5504,-3.5504,-3.5504,-3.5504,-3.5504,-3.5846,-3.6305,-3.6859,-3.8328,-3.9919,-4.1438,-4.2538,-4.3589,-4.4553,-4.4587,-4.4587,-4.4587,-4.4587,-4.5348,-4.6786,-4.6786,-4.7581,-1.9606,-2.0286,-2.09,-2.2662,-2.3078,-2.305,-2.2934,-2.2894,-2.2937,-2.3202,-2.3302,-2.3378,-2.3714,-2.4101,-2.4385,0.0,0.0,0.0,-2.4846,-2.468,-2.456,0.0,-2.582,0.0,-2.6045,-2.7321,-2.8635,0.0,-3.1306,-3.2681,-3.3797,-3.5461,-3.6358,-3.6358,-3.6358,-3.6358,-3.6358,-3.6358,-3.6358,-3.6358,-3.6358,-3.6358,-3.6358,-3.6358,-3.6358,-3.6358,0.0,-3.6358,-3.6477,-3.6963,-3.7912,-3.9122,-3.9139,-3.9774,-4.058,-4.0127,-3.9748,-3.9424,-3.9424,-3.9424,-3.9424,-3.9424,-3.9424,-3.9424,-3.9424,-3.9424,-3.9424,-3.9424,-3.9424,-3.911,-3.7764,-3.7404,-3.709,-3.5804,-3.5504,-3.5504,-3.5504,-3.5504,-3.5504,-3.5504,-3.5504,-3.5504,-3.5504,-3.5504,-3.5504,-3.5504,-3.5504,-3.5504,-3.5504,-3.5504,-3.5504,-3.5504,-3.5504,-3.5504,-3.5504,-3.5782,-3.6165,-3.6554,-3.8387,-3.9812,-4.0603,-4.2412,-4.3592,-4.3989,-4.4384,-4.4587,-4.4587,-4.4908,-4.5669,-4.6802,-4.7124,-4.7902,-1.9004,-1.976,-2.0412,-2.2552,-2.3078,-2.2849,-2.1844,-2.1998,-2.2089,-2.1103,-2.1281,-2.1843,-2.2453,-2.2504,-2.2583,-2.3189,0.0,-2.3349,-2.4189,-2.4385,-2.4717,-2.5547,-2.6133,-2.6475,-2.6475,-2.7864,-2.9088,-3.0003,-3.1418,-3.2881,-3.4291,-3.5696,-3.6358,-3.6358,-3.6358,-3.6358,-3.6358,-3.6358,-3.6358,-3.6358,-3.6358,-3.6358,-3.6358,-3.6358,-3.6358,-3.6358,0.0,0.0,-3.649,-3.7475,-3.7899,-3.8135,-3.9116,-3.9473,-3.9535,-3.9521,-3.9469,-3.9424,-3.9424,-3.9424,-3.9424,-3.9424,-3.9424,-3.9424,-3.9424,-3.9424,-3.9424,-3.9424,-3.9424,-3.911,-3.7764,-3.7404,-3.709,-3.5804,-3.5504,-3.5504,-3.5504,-3.5504,-3.5504,-3.5504,-3.5504,-3.5504,-3.5504,-3.5504,-3.5504,-3.5504,-3.5504,-3.5504,-3.5504,-3.5504,-3.5504,-3.5504,-3.5504,-3.5504,-3.5504,-3.6117,-3.6477,-3.6569,-3.8691,-3.9884,-3.9859,-4.2129,-4.3337,-4.329,-4.4138,-4.4587,-4.4587,-4.5229,-4.5923,-4.6667,-4.7411,-4.8156,-2.0271,-2.0544,-2.0439,-2.254,-2.3078,-2.2955,-2.2321,-2.1594,0.0,0.0,-2.0815,-2.0569,-2.1673,-2.2162,-2.2427,-2.254,-2.2886,-2.3293,-2.3821,-2.4199,-2.4609,0.0,-2.6201,-2.6904,-2.6904,-2.7806,0.0,0.0,0.0,0.0,-3.4351,-3.567,-3.6358,-3.6358,-3.6358,-3.6358,-3.6358,-3.6358,-3.6358,-3.6358,-3.6358,-3.6358,-3.6358,-3.6358,-3.6358,-3.6358,0.0,0.0,-3.6465,-3.6635,-3.6964,-3.7543,-3.8606,-3.8972,-3.9035,-3.9891,-3.9854,-3.9424,-3.9424,-3.9424,-3.9424,-3.9424,-3.9424,-3.9424,-3.9424,-3.9424,-3.9424,-3.9424,-3.9424,-3.911,-3.7764,-3.7404,-3.709,-3.5804,-3.5504,-3.5504,-3.5504,-3.5504,-3.5504,-3.5504,-3.5504,-3.5504,-3.5504,-3.5504,-3.5504,-3.5504,-3.5504,-3.5504,-3.5504,-3.5504,-3.5504,-3.5504,-3.5504,-3.5504,-3.5504,-3.5619,-3.5894,-3.6451,-3.8054,-3.9155,-3.9713,-4.2015,-4.3294,-4.3306,-4.4138,-4.4587,-4.4587,-4.4705,-4.5162,-4.5906,-4.665,-4.7394,-1.9641,-2.0427,-2.0878,-2.2637,-2.2865,-2.2392,-2.1227,0.0,0.0,0.0,-1.9362,-1.9222,-2.0079,-2.0898,0.0,-2.0886,-2.1485,-2.2294,-2.2985,-2.3486,-2.4082,-2.4961,-2.6221,-2.7012,0.0,0.0,0.0,0.0,0.0,0.0,-3.5356,-3.6098,-3.6358,-3.6358,-3.6358,-3.6358,-3.6358,-3.6358,-3.6358,-3.6358,-3.6358,-3.6358,-3.6358,-3.6358,-3.6358,-3.6358,0.0,0.0,-3.6389,-3.6055,-3.6058,-3.647,-3.7577,-3.7949,-3.8068,-3.9373,-3.9661,-3.9424,-3.9424,-3.9424,-3.9424,-3.9424,-3.9424,-3.9424,-3.9424,-3.9424,-3.9424,-3.9424,-3.9155,-3.8661,-3.7659,-3.7165,-3.6686,-3.5729,-3.5504,-3.5504,-3.5504,-3.5504,-3.5504,-3.5504,-3.5504,-3.5504,-3.5504,-3.5504,-3.5504,-3.5504,-3.5504,-3.5504,-3.5504,-3.5504,-3.5504,-3.5504,-3.5504,-3.5504,-3.5504,-3.5504,-3.5789,-3.6447,-3.7866,-3.8774,-3.8994,-4.1358,-4.2645,-4.2645,-4.3486,-4.4138,-4.4587,-4.4976,-4.5348,-4.5737,-4.6853,-4.7564,-1.8949,-2.0051,-2.1045,-2.271,-2.2714,-2.1893,-2.0332,-1.9459,0.0,-1.8385,-1.8166,-1.8321,-1.8998,-1.982,-2.0245,0.0,-2.032,-2.1311,-2.2207,-2.29,-2.3691,0.0,-2.6084,0.0,-2.6875,0.0,0.0,0.0,0.0,0.0,-3.625,-3.6358,-3.6358,-3.6358,-3.6358,-3.6358,-3.6358,-3.6358,-3.6358,-3.6358,-3.6358,-3.6358,-3.6358,-3.6358,-3.6358,-3.6358,0.0,0.0,0.0,-3.5784,-3.5425,-3.5392,-3.6374,-3.6833,-3.7049,-3.8498,-3.9177,-3.9424,-3.9424,-3.9424,-3.9424,-3.9424,-3.9424,-3.9424,-3.9424,-3.9424,-3.9424,-3.9424,-3.8931,-3.8242,-3.7584,-3.6941,-3.6312,-3.5669,-3.5504,-3.5504,-3.5504,-3.5504,-3.5504,-3.5504,-3.5504,-3.5504,-3.5504,-3.5504,-3.5504,-3.5504,-3.5504,-3.5504,-3.5504,-3.5504,-3.5504,-3.5504,-3.5504,-3.5504,-3.5504,-3.5504,-3.5789,-3.6447,-3.7684,-3.8391,-3.8432,-4.052,-4.1804,-4.1997,-4.2847,-4.3756,-4.4587,-4.5179,-4.5466,-4.55,-4.6989,-4.7682,-1.931,-1.989,-2.0064,-2.2478,-2.271,-2.1977,-2.0822,0.0,-1.8973,-1.8857,-1.8422,-1.8456,-1.9606,-1.9824,-1.9935,-2.0158,-2.0616,-2.1137,-2.1876,-2.2978,-2.3916,-2.4414,0.0,0.0,-2.6445,0.0,0.0,0.0,0.0,0.0,0.0,-3.6358,-3.6358,-3.6358,-3.6358,-3.6358,-3.6358,-3.6358,-3.6358,-3.6358,-3.6358,-3.6358,-3.6358,-3.6358,-3.6358,-3.6358,0.0,0.0,0.0,-3.5784,-3.5232,-3.4792,-3.5395,-3.5937,-3.6439,-3.7525,-3.8546,-3.9424,-3.9424,-3.9424,-3.9424,-3.9424,-3.9424,-3.9424,-3.9424,-3.9424,-3.9424,-3.9424,-3.8931,-3.8242,-3.7584,-3.6941,-3.6312,-3.5669,-3.5504,-3.5504,-3.5504,-3.5504,-3.5504,-3.5504,-3.5504,-3.5504,-3.5504,-3.5504,-3.5504,-3.5504,-3.5504,-3.5504,-3.5504,-3.5504,-3.5504,-3.5504,-3.5504,-3.5504,-3.5504,-3.5504,-3.5789,-3.6447,-3.7128,-3.7758,-3.8362,-3.9941,-4.1213,-4.1997,-4.2847,-4.3756,-4.4587,-4.4654,-4.4671,-4.4722,-4.6194,-4.6887,-1.8302,-1.9696,-2.0925,-2.2259,-2.2205,-2.151,-2.0391,-1.9304,-1.8524,-1.8413,-1.8559,-1.8836,-1.9223,-1.956,-1.9587,-1.908,-1.9026,-1.9333,-2.02,-2.1435,-2.2598,-2.3535,-2.5039,0.0,0.0,0.0,0.0,0.0,0.0,0.0,0.0,-3.6006,-3.6358,-3.6358,-3.6358,-3.6358,-3.6358,-3.6358,-3.6358,-3.6358,-3.6358,-3.6358,-3.6358,-3.6358,-3.6163,-3.5869,0.0,0.0,0.0,-3.4754,-3.4401,-3.4297,-3.4787,-3.5467,-3.6369,-3.742,-3.8472,-3.9424,-3.9424,-3.9424,-3.9424,-3.9424,-3.9424,-3.9424,-3.9424,-3.9125,-3.8796,-3.8796,-3.8048,-3.718,-3.6926,-3.6372,-3.5833,-3.5564,-3.5504,-3.5504,-3.5504,-3.5504,-3.5504,-3.5504,-3.5504,-3.5504,-3.5504,-3.5504,-3.5504,-3.5504,-3.5504,-3.5504,-3.5504,-3.5504,-3.5504,-3.5504,-3.5504,-3.5504,-3.5504,-3.5504,-3.5789,-3.6447,-3.6858,-3.7416,-3.8362,-3.936,-4.0309,-4.1213,-4.2062,-4.297,-4.3814,-4.4327,-4.4587,-4.4604,-4.5652,-4.638,-1.7233,-1.8821,-2.0487,-2.1497,-2.1312,-2.068,-1.9763,-1.8858,-1.8193,-1.8143,-1.8517,-1.8863,-1.8913,-1.9172,-1.9096,-1.8103,-1.7991,-1.8281,-1.9206,-2.0527,-2.1855,0.0,0.0,0.0,0.0,0.0,0.0,0.0,0.0,0.0,0.0,-3.5089,-3.5893,-3.5861,-3.5875,-3.5994,-3.615,-3.6157,-3.6194,-3.6358,-3.6358,-3.6351,-3.615,-3.615,-3.5814,0.0,0.0,0.0,0.0,-3.4147,-3.3909,-3.3884,-3.4159,-3.4815,-3.5828,-3.6632,-3.7753,-3.8943,-3.8943,-3.9104,-3.9424,-3.9424,-3.929,-3.911,-3.911,-3.8781,-3.8392,-3.8392,-3.7464,-3.6432,-3.6252,-3.5848,-3.5504,-3.5504,-3.5504,-3.5504,-3.5504,-3.5504,-3.5504,-3.5504,-3.5504,-3.5504,-3.5504,-3.5504,-3.5504,-3.5504,-3.5504,-3.5504,-3.5504,-3.5504,-3.5504,-3.5504,-3.5504,-3.5504,-3.5504,-3.5504,-3.5699,-3.6163,-3.6671,-3.7312,-3.8078,-3.8945,-3.9793,-4.0675,-4.1041,-4.1885,-4.3306,-4.3948,-4.4327,-4.4604,-4.5348,-4.621,-1.6437,-1.709,-1.7902,-1.9929,-2.0009,-1.9538,-1.9105,-1.8595,-1.8206,-1.8188,-1.8183,-1.8394,-1.8916,-1.8818,-1.8444,-1.7664,-1.8066,-1.8705,-1.9246,-2.0781,-2.2197,0.0,0.0,0.0,0.0,0.0,0.0,0.0,0.0,0.0,0.0,0.0,-3.4698,-3.4719,-3.4698,-3.4957,-3.5511,-3.5519,-3.583,-3.6358,-3.6358,-3.61,-3.5537,-3.5537,0.0,0.0,0.0,0.0,0.0,-3.4119,-3.3938,-3.3827,-3.3341,-3.3797,-3.4746,-3.4746,-3.6015,-3.7829,-3.7829,-3.8546,-3.9424,-3.9424,-3.896,-3.8407,-3.8407,-3.8392,-3.8392,-3.8392,-3.7464,-3.6342,-3.5684,-3.5504,-3.5504,-3.5504,-3.5504,-3.5504,-3.5504,-3.5504,-3.5504,-3.5504,-3.5504,-3.5504,-3.5504,-3.5504,-3.5504,-3.5504,-3.5504,-3.5504,-3.5504,-3.5504,-3.5504,-3.5504,-3.5504,-3.5504,-3.5504,-3.5504,-3.5504,-3.5519,-3.6701,-3.7404,-3.7419,-3.8706,-3.9793,-4.0675,-3.9878,-4.0714,-4.3306,-4.3306,-4.3756,-4.4604,-4.5348,-4.6498,-1.5786,-1.6845,-1.8038,-1.8681,-1.9274,-1.9538,-1.8674,-1.8337,-1.8183,-1.8209,-1.8524,-1.8799,-1.8818,-1.8684,-1.8612,-1.8599,-1.8352,-1.8626,-2.0017,0.0,0.0,-2.3057,0.0,0.0,0.0,0.0,0.0,0.0,0.0,0.0,0.0,0.0,-3.396,-3.4715,-3.4675,-3.4743,-3.4984,-3.4981,-3.5064,-3.524,-3.5194,-3.5144,-3.4932,-3.4904,0.0,0.0,0.0,0.0,0.0,-3.3442,-3.3354,-3.3354,-3.3192,-3.3797,-3.4746,-3.544,-3.6632,-3.7904,-3.862,-3.9104,-3.9334,-3.8871,-3.8571,-3.8302,-3.7853,-3.7419,-3.7,-3.6552,-3.6133,-3.5774,-3.5564,-3.5504,-3.5504,-3.5504,-3.5504,-3.5504,-3.5504,-3.5504,-3.5504,-3.5504,-3.5504,-3.5504,-3.5504,-3.5504,-3.5504,-3.5504,-3.5504,-3.5504,-3.5504,-3.5504,-3.5504,-3.5504,-3.5504,-3.5504,-3.5504,-3.5504,-3.5504,-3.5504,-3.6417,-3.7103,-3.7404,-3.8706,-3.9553,-3.9809,-4.0317,-4.0883,-4.1543,-4.3317,-4.4348,-4.4604,-4.5348,-4.6227,-1.5148,-1.6025,-1.7047,-1.7287,-1.7734,-1.8049,-1.7912,-1.7713,-1.7664,-1.8099,-1.8277,-1.8412,-1.8658,-1.8207,-1.7857,-1.8122,-1.7815,0.0,0.0,0.0,0.0,0.0,0.0,0.0,0.0,0.0,0.0,0.0,0.0,0.0,0.0,0.0,-3.3395,-3.4085,-3.4136,-3.4223,-3.4385,-3.4363,-3.4488,-3.4726,-3.4744,-3.4616,-3.4367,0.0,0.0,0.0,0.0,0.0,0.0,-3.3081,-3.3081,-3.3081,-3.3081,-3.3471,-3.4191,-3.4802,-3.5987,-3.7224,-3.7719,-3.8341,-3.8916,-3.8242,-3.7868,-3.7554,-3.6896,-3.6596,-3.6357,-3.5684,-3.5504,-3.5504,-3.5504,-3.5504,-3.5504,-3.5504,-3.5504,-3.5504,-3.5504,-3.5504,-3.5504,-3.5504,-3.5504,-3.5504,-3.5504,-3.5504,-3.5504,-3.5504,-3.5504,-3.5504,-3.5504,-3.5504,-3.5504,-3.5504,-3.5504,-3.5504,-3.5504,-3.5504,-3.5504,-3.5504,-3.629,-3.7068,-3.7834,-3.9245,-4.0154,-4.0393,-4.1263,-4.1667,-4.1482,-4.3558,-4.4582,-4.4587,-4.5026,-4.5614,0.0,-1.4765,-1.5224,-1.5882,-1.5614,-1.5565,-1.692,-1.6774,0.0,-1.7775,-1.7484,-1.7317,-1.8366,-1.7413,-1.6545,-1.6655,-1.6748,0.0,0.0,-1.998,0.0,0.0,0.0,0.0,0.0,0.0,0.0,0.0,0.0,0.0,0.0,0.0,0.0,-3.2955,-3.3018,-3.327,-3.3795,-3.3844,-3.4059,-3.4613,-3.462,-3.4292,-3.3795,0.0,0.0,0.0,0.0,0.0,0.0,-3.3081,-3.3081,-3.3081,-3.3081,-3.3056,-3.3006,-3.3177,-3.4476,-3.5991,-3.562,-3.6718,-3.8212,-3.7554,-3.6926,-3.6297,-3.5684,-3.5923,-3.6297,-3.5684,-3.5504,-3.5504,-3.5504,-3.5504,-3.5504,-3.5504,-3.5504,-3.5504,-3.5504,-3.5504,-3.5504,-3.5504,-3.5504,-3.5504,-3.5504,-3.5504,-3.5504,-3.5504,-3.5504,-3.5504,-3.5504,-3.5504,-3.5504,-3.5504,-3.5504,-3.5504,-3.5504,-3.5504,-3.5504,-3.5504,-3.6118,-3.7131,-3.8565,-4.0103,-4.122,-4.1853,-4.243,-4.2747,-4.2922,-4.3963,-4.4497,-4.4604,-4.4497,-4.4847,-1.4812,0.0,-1.4701,-1.4419,-1.4886,-1.5392,0.0,-1.5556,-1.5776,-1.6099,-1.6287,-1.653,-1.6961,-1.6708,-1.6832,-1.7929,0.0,0.0,0.0,0.0,0.0,0.0,0.0,0.0,0.0,0.0,0.0,0.0,0.0,0.0,0.0,0.0,0.0,-3.1788,-3.2187,-3.2698,-3.3294,-3.3293,-3.3343,-3.347,-3.352,-3.3445,-3.3307,0.0,0.0,0.0,0.0,0.0,-3.3081,-3.3081,-3.3081,-3.3081,-3.3081,-3.2805,-3.2571,-3.4233,-3.4794,-3.503,-3.6418,-3.7198,-3.7539,-3.6911,-3.6267,-3.5714,-3.5549,-3.5609,-3.5699,-3.5549,-3.5504,-3.5504,-3.5504,-3.5504,-3.5504,-3.5504,-3.5504,-3.5504,-3.5504,-3.5504,-3.5504,-3.5504,-3.5504,-3.5504,-3.5504,-3.5504,-3.5504,-3.5504,-3.5504,-3.5504,-3.5504,-3.5504,-3.5504,-3.5504,-3.5504,-3.5504,-3.5504,-3.5504,-3.5504,-3.5504,-3.6118,-3.688,-3.7699,-3.8553,-3.9688,-4.0997,-4.1322,-4.2363,-4.4175,-4.3519,-4.3706,-4.4587,-4.4552,-4.4956,-1.3979,-1.4174,-1.4461,-1.4145,-1.4327,-1.4676,-1.4925,-1.4829,-1.4846,-1.537,-1.5443,-1.5523,-1.61,-1.612,-1.6397,0.0,-1.8086,0.0,0.0,0.0,0.0,0.0,0.0,0.0,0.0,0.0,0.0,0.0,0.0,0.0,0.0,0.0,0.0,0.0,-3.1685,-3.2097,-3.2689,-3.2918,-3.3081,-3.3081,-3.3081,-3.3081,-3.3081,0.0,0.0,0.0,0.0,0.0,-3.2701,-3.2667,-3.2528,-3.2303,-3.2303,-3.2114,-3.1991,-3.3077,-3.3863,-3.451,-3.5268,-3.5966,-3.6477,-3.6148,-3.5804,-3.5504,-3.5504,-3.5504,-3.5504,-3.5504,-3.5504,-3.5504,-3.5504,-3.5504,-3.5504,-3.5504,-3.5504,-3.5504,-3.5504,-3.5504,-3.5504,-3.5504,-3.5504,-3.5504,-3.5504,-3.5504,-3.5504,-3.5504,-3.5504,-3.5504,-3.5504,-3.5504,-3.5504,-3.5504,-3.5504,-3.5504,-3.5504,-3.5504,-3.5504,-3.5504,-3.5833,-3.6678,-3.8036,-3.8766,-4.0161,-4.2488,-4.2602,-4.3343,-4.4624,-4.3906,-4.3946,-4.457,-4.4196,-4.4414,-1.3142,-1.3681,-1.4266,-1.4051,-1.3791,-1.3831,-1.4805,-1.4405,-1.4073,-1.5033,-1.4814,-1.4718,-1.5675,-1.5713,0.0,0.0,0.0,0.0,0.0,0.0,0.0,0.0,0.0,0.0,0.0,0.0,0.0,0.0,0.0,0.0,0.0,0.0,0.0,0.0,-3.1235,-3.1518,-3.1928,-3.255,-3.2817,-3.2817,-3.2817,-3.2842,-3.2867,-3.2867,0.0,0.0,0.0,0.0,-3.2059,-3.2051,-3.1813,-3.1386,-3.1386,-3.1336,-3.1354,-3.1572,-3.2711,-3.4057,-3.3838,-3.4502,-3.5504,-3.5504,-3.5504,-3.5504,-3.5504,-3.5504,-3.5504,-3.5504,-3.5504,-3.5504,-3.5504,-3.5504,-3.5504,-3.5504,-3.5504,-3.5504,-3.5504,-3.5504,-3.5504,-3.5504,-3.5504,-3.5504,-3.5504,-3.5504,-3.5504,-3.5504,-3.5504,-3.5504,-3.5504,-3.5504,-3.5504,-3.5504,-3.5504,-3.5504,-3.5504,-3.5504,-3.5504,-3.5504,-3.5504,-3.6423,-3.8619,-3.9546,-4.1265,-4.4041,-4.4451,-4.4609,-4.4587,-4.4587,-4.4587,-4.457,-4.3814,-4.3873,-1.3926,-1.4041,-1.3607,-1.2461,-1.31,-1.3965,-1.3817,-1.3896,-1.4004,-1.3861,-1.4284,-1.4893,-1.5387,-1.6037,-1.7051,0.0,0.0,0.0,0.0,0.0,0.0,0.0,0.0,0.0,0.0,0.0,0.0,0.0,0.0,0.0,0.0,0.0,0.0,0.0,0.0,-3.0792,-3.0813,-3.1398,-3.165,-3.165,-3.165,-3.1667,-3.1689,-3.1689,-3.1655,0.0,0.0,-3.1599,-3.1499,-3.1512,-3.1461,-3.1386,-3.1386,-3.1122,-3.096,-3.2475,-3.3019,-3.3084,-3.4665,-3.5302,-3.5504,-3.5504,-3.5504,-3.5504,-3.5504,-3.5504,-3.5504,-3.5504,-3.5504,-3.5504,-3.5504,-3.5504,-3.5504,-3.5504,-3.5504,-3.5504,-3.5504,-3.5504,-3.5504,-3.5504,-3.5504,-3.5504,-3.5504,-3.5504,-3.5504,-3.5504,-3.5504,-3.5504,-3.5504,-3.5504,-3.5504,-3.5504,-3.5504,-3.5504,-3.5504,-3.5504,-3.5504,-3.5504,-3.5504,-3.6198,-3.7717,-3.9136,-4.055,-4.1889,-4.367,-4.4601,-4.4587,-4.4587,-4.4587,-4.4587,-4.444,-4.4457,-1.2879,-1.3049,-1.3023,-1.2615,-1.3866,-1.5071,-1.4658,-1.4687,-1.4766,-1.457,-1.4853,-1.5254,-1.5684,0.0,-1.7715,-1.9658,0.0,0.0,0.0,0.0,0.0,0.0,0.0,0.0,0.0,0.0,0.0,0.0,0.0,0.0,0.0,0.0,0.0,0.0,0.0,-3.0171,-3.0175,-3.041,-3.0804,-3.1376,-3.1364,-3.1417,-3.1385,-3.1385,-3.1436,-3.141,0.0,-3.1228,-3.0972,-3.0972,-3.0796,-3.0532,-3.0532,-3.0382,-3.039,-3.2307,-3.3127,-3.3533,-3.5001,-3.5504,-3.5504,-3.5504,-3.5504,-3.5504,-3.5504,-3.5504,-3.5504,-3.5504,-3.5504,-3.5504,-3.5504,-3.5504,-3.5504,-3.5504,-3.5504,-3.5504,-3.5504,-3.5504,-3.5504,-3.5504,-3.5504,-3.5504,-3.5504,-3.5504,-3.5504,-3.5504,-3.5504,-3.5504,-3.5504,-3.5504,-3.5504,-3.5504,-3.5504,-3.5504,-3.5504,-3.5504,-3.5504,-3.5504,-3.6258,-3.7186,-3.8257,-3.9952,-4.1266,-4.23,-4.3792,-4.4589,-4.4601,-4.4592,-4.4587,-4.4587,-4.4587,-4.4587,-1.214,-1.2428,-1.2768,-1.323,-1.4355,-1.5388,-1.5327,-1.5329,-1.5379,-1.5451,-1.5679,-1.5977,0.0,-1.7256,0.0,-2.042,0.0,0.0,0.0,0.0,0.0,0.0,0.0,0.0,0.0,0.0,0.0,0.0,0.0,0.0,0.0,0.0,0.0,0.0,0.0,0.0,-2.9792,-2.9792,-3.02,-3.101,-3.1029,-3.1032,-3.1022,-3.1022,-3.1022,-3.1022,-3.1022,-3.0783,-3.0419,-3.0419,-3.0168,-2.9792,-2.9792,-3.0075,-3.0633,-3.2046,-3.331,-3.4461,-3.5213,-3.5504,-3.5504,-3.5504,-3.5504,-3.5504,-3.5504,-3.5504,-3.5504,-3.5504,-3.5504,-3.5504,-3.5504,-3.5504,-3.5504,-3.5504,-3.5504,-3.5504,-3.5504,-3.5504,-3.5504,-3.5504,-3.5504,-3.5504,-3.5504,-3.5504,-3.5504,-3.5504,-3.5504,-3.5504,-3.5504,-3.5504,-3.5504,-3.5504,-3.5504,-3.5504,-3.5504,-3.5504,-3.5504,-3.5504,-3.66,-3.7575,-3.8321,-3.9758,-4.1124,-4.2385,-4.3135,-4.3871,-4.4593,-4.4618,-4.4592,-4.4587,-4.4587,-4.4587,-1.3077,-1.3227,-1.3213,-1.3853,-1.365,-1.365,-1.4845,-1.5151,-1.5221,-1.5617,-1.6543,-1.7256,0.0,-1.8623,-2.0049,0.0,0.0,0.0,0.0,0.0,0.0,0.0,0.0,0.0,0.0,0.0,0.0,0.0,0.0,0.0,0.0,0.0,0.0,0.0,0.0,0.0,-2.9792,-2.9792,-2.9804,-2.9919,-2.9945,-2.9892,-2.9917,-2.9917,-2.9917,-2.9917,-2.9917,-2.988,-2.9854,-2.9854,-2.9829,-2.9792,-2.9792,-3.0846,-3.2393,-3.2522,-3.3754,-3.5424,-3.5504,-3.5504,-3.5504,-3.5504,-3.5504,-3.5504,-3.5504,-3.5504,-3.5504,-3.5504,-3.5504,-3.5504,-3.5504,-3.5504,-3.5504,-3.5504,-3.5504,-3.5504,-3.5504,-3.5504,-3.5504,-3.5504,-3.5504,-3.5504,-3.5504,-3.5504,-3.5504,-3.5504,-3.5504,-3.5504,-3.5504,-3.5504,-3.5504,-3.5504,-3.5504,-3.5504,-3.5504,-3.5504,-3.5504,-3.5504,-3.5619,-3.5973,-3.6738,-3.7101,-3.8246,-4.0293,-4.0378,-4.1811,-4.4593,-4.461,-4.4584,-4.4587,-4.4587,-4.4587,-1.3017,-1.3407,-1.3867,-1.4418,-1.4025,-1.3747,-1.4648,-1.5956,-1.6826,-1.6682,-1.7149,-1.7627,0.0,0.0,-2.0107,0.0,0.0,0.0,0.0,0.0,0.0,0.0,0.0,0.0,0.0,0.0,0.0,0.0,0.0,0.0,0.0,0.0,0.0,0.0,0.0,-2.9106,-2.9792,-2.9792,-2.9792,-2.9792,-2.9792,-2.9792,-2.9792,-2.9792,-2.9792,-2.9792,-2.9792,-2.9792,-2.9792,-2.9792,-2.9792,-2.9792,-2.9792,-3.0558,-3.1742,-3.1742,-3.2961,-3.4543,-3.4543,-3.4986,-3.5504,-3.5504,-3.5504,-3.5504,-3.5504,-3.5504,-3.5504,-3.5504,-3.5504,-3.5504,-3.5504,-3.5504,-3.5504,-3.5504,-3.5504,-3.5504,-3.5504,-3.5504,-3.5504,-3.5504,-3.5504,-3.5504,-3.5504,-3.5504,-3.5504,-3.5504,-3.5504,-3.5504,-3.5504,-3.5504,-3.5504,-3.5504,-3.5504,-3.5504,-3.5504,-3.551,-3.5503,-3.5503,-3.643,-3.7055,-3.7322,-3.7767,-3.8656,-4.0081,-4.01,-4.0658,-4.1827,-4.3673,-4.4616,-4.4584,-4.4584,-4.458,-1.3076,-1.3496,-1.4072,-1.4648,-1.4439,-1.4276,-1.4781,-1.616,-1.7309,-1.7515,-1.7898,-1.8239,-1.8239,0.0,0.0,0.0,0.0,0.0,0.0,0.0,0.0,0.0,0.0,0.0,0.0,0.0,0.0,0.0,0.0,0.0,0.0,0.0,0.0,0.0,0.0,0.0,-2.9792,-2.9792,-2.9792,-2.9792,-2.9792,-2.9792,-2.9792,-2.9792,-2.9792,-2.9792,-2.9792,-2.9792,-2.9792,-2.9792,-2.9792,-2.9792,-2.9792,-3.0343,-3.118,-3.118,-3.2393,-3.4027,-3.4027,-3.4691,-3.5504,-3.5504,-3.5504,-3.5504,-3.5504,-3.5504,-3.5504,-3.5504,-3.5504,-3.5504,-3.5504,-3.5504,-3.5504,-3.5504,-3.5504,-3.5504,-3.5504,-3.5504,-3.5504,-3.5504,-3.5504,-3.5504,-3.5504,-3.5504,-3.5504,-3.5504,-3.5504,-3.5504,-3.5504,-3.5504,-3.5504,-3.5504,-3.5504,-3.5504,-3.5504,-3.548,-3.569,-3.6184,-3.7413,-3.7992,-3.7822,-3.7665,-3.7965,-3.8619,-3.9613,-4.012,-4.0083,-4.2155,-4.3178,-4.3166,-4.3685,-4.3851,-1.3496,-1.3506,-1.3721,-1.457,-1.4795,-1.4898,-1.5251,-1.5523,-1.623,-1.7947,-1.8807,-1.9277,-1.9287,-1.9277,0.0,0.0,0.0,0.0,0.0,0.0,0.0,0.0,0.0,0.0,0.0,0.0,0.0,0.0,0.0,0.0,0.0,0.0,0.0,0.0,0.0,0.0,-2.9792,-2.9792,-2.9792,-2.9792,-2.9792,-2.9792,-2.9792,-2.9792,-2.9792,-2.9792,-2.9792,-2.9792,-2.9792,-2.9792,-2.9792,-2.9792,-2.9792,-3.0343,-3.118,-3.118,-3.2393,-3.3959,-3.3959,-3.461,-3.5504,-3.5504,-3.5504,-3.5504,-3.5504,-3.5504,-3.5504,-3.5504,-3.5504,-3.5504,-3.5504,-3.5504,-3.5504,-3.5504,-3.5504,-3.5504,-3.5504,-3.5504,-3.5504,-3.5504,-3.5504,-3.5504,-3.5504,-3.5504,-3.5504,-3.5504,-3.5504,-3.5504,-3.5504,-3.5504,-3.5504,-3.5504,-3.5504,-3.5504,-3.5504,-3.5504,-3.6155,-3.7684,-3.8312,-3.8364,-3.7822,-3.6373,-3.554,-3.554,-3.8517,-4.007,-4.0118,-4.0118,-4.0115,-4.0157,-4.1603,-4.2286,-1.3066,-1.3721,-1.4463,-1.4727,-1.5478,-1.6276,-1.6689,-1.7063,-1.7413,-1.7787,-1.8385,-1.8605,-1.7805,0.0,0.0,0.0,0.0,0.0,0.0,0.0,0.0,0.0,0.0,0.0,0.0,0.0,0.0,0.0,0.0,0.0,0.0,0.0,0.0,0.0,0.0,0.0,-2.857,-2.9415,-2.9792,-2.9792,-2.9792,-2.9792,-2.9792,-2.9792,-2.9792,-2.9792,-2.9792,-2.9792,-2.9792,-2.9792,-2.9792,-2.9792,-2.9792,-3.0011,-3.0216,-3.0216,-3.0983,-3.2105,-3.282,-3.3671,-3.4543,-3.5279,-3.5504,-3.5504,-3.5504,-3.5504,-3.5504,-3.5504,-3.5504,-3.5504,-3.5504,-3.5504,-3.5504,-3.5504,-3.5504,-3.5504,-3.5504,-3.5504,-3.5504,-3.5504,-3.5504,-3.5504,-3.5504,-3.5504,-3.5504,-3.5504,-3.5504,-3.5504,-3.5504,-3.5504,-3.5504,-3.5504,-3.5504,-3.5504,-3.5504,-3.5465,-3.5692,-3.6166,-3.8391,-3.9292,-3.8394,-3.859,-3.8737,-3.8737,-3.9649,-4.0104,-4.0121,-4.0121,-4.012,-4.0115,-4.0538,-4.1319,-1.338,-1.4274,-1.5219,-1.5486,-1.6136,-1.6841,-1.7471,-1.7959,-1.8189,0.0,-1.8381,-1.8469,-1.7987,0.0,0.0,0.0,0.0,0.0,0.0,0.0,0.0,0.0,0.0,0.0,0.0,0.0,0.0,0.0,0.0,0.0,0.0,0.0,0.0,0.0,0.0,0.0,-2.8113,-2.8773,-2.9372,-2.9792,-2.9792,-2.9792,-2.9792,-2.9792,-2.9792,-2.9792,-2.9792,-2.9792,-2.9792,-2.9792,-2.9792,-2.9792,-2.9792,-2.9792,-2.9792,-2.9792,-3.0633,-3.1815,-3.2393,-3.3463,-3.4691,-3.5279,-3.5504,-3.5504,-3.5504,-3.5504,-3.5504,-3.5504,-3.5504,-3.5504,-3.5504,-3.5504,-3.5504,-3.5504,-3.5504,-3.5504,-3.5504,-3.5504,-3.5504,-3.5504,-3.5504,-3.5504,-3.5504,-3.5504,-3.5504,-3.5504,-3.5504,-3.5504,-3.5504,-3.5504,-3.5504,-3.5504,-3.5504,-3.5504,-3.5504,-3.551,-3.5508,-3.5482,-3.7818,-3.9183,-3.9215,-3.98,-4.007,-4.007,-4.007,-4.007,-4.007,-4.007,-4.0088,-4.0104,-4.0104,-4.0577,-1.4208,-1.4945,-1.5963,-1.6668,-1.6848,-1.7063,-1.7782,-1.8213,-1.8416,-1.8564,0.0,-1.8701,0.0,0.0,0.0,0.0,0.0,0.0,0.0,0.0,0.0,0.0,0.0,0.0,0.0,0.0,0.0,0.0,0.0,0.0,0.0,0.0,0.0,0.0,0.0,0.0,-2.772,-2.7944,-2.8545,0.0,-2.9714,-2.9792,-2.9792,-2.9792,-2.9792,-2.9792,-2.9792,-2.9792,-2.9792,-2.9792,-2.9792,-2.9792,-2.9792,-2.9792,-2.9792,-2.9792,-3.0846,-3.2393,-3.2464,-3.3685,-3.5213,-3.5359,-3.5439,-3.5504,-3.5504,-3.5504,-3.5504,-3.5504,-3.5504,-3.5504,-3.5504,-3.5504,-3.5504,-3.5504,-3.5504,-3.5504,-3.5504,-3.5504,-3.5504,-3.5504,-3.5504,-3.5504,-3.5504,-3.5504,-3.5504,-3.5504,-3.5504,-3.5504,-3.5504,-3.5504,-3.5504,-3.5619,-3.5619,-3.5619,-3.5668,-3.5653,-3.5643,-3.5629,-3.7122,-3.8662,-4.002,-4.0121,-4.0121,-4.007,-4.0121,-4.0121,-4.007,-4.007,-4.007,-4.007,-4.007,-4.007,-1.4383,-1.5579,-1.6926,-1.7889,-1.8155,-1.8073,-1.7625,-1.7321,-1.7334,-1.8008,-1.8144,-1.8174,0.0,0.0,0.0,0.0,0.0,0.0,0.0,0.0,0.0,0.0,0.0,0.0,0.0,0.0,0.0,0.0,0.0,0.0,0.0,0.0,0.0,0.0,0.0,-2.4105,-2.5005,-2.6749,-2.7915,0.0,-2.9337,-2.9792,-2.9792,-2.9792,-2.9792,-2.9792,-2.9792,-2.9792,-2.9792,-2.9792,-2.9792,-2.9792,-2.9792,-2.9792,-2.9792,-2.9792,-3.0088,-3.0495,-3.1254,-3.2249,-3.3325,-3.4109,-3.4839,-3.5504,-3.5504,-3.5504,-3.5504,-3.5504,-3.5504,-3.5504,-3.5504,-3.5504,-3.5504,-3.5504,-3.5504,-3.5504,-3.5504,-3.5504,-3.5504,-3.5504,-3.5504,-3.5504,-3.5504,-3.5504,-3.5504,-3.5504,-3.5504,-3.5504,-3.5504,-3.5504,-3.5733,-3.6275,-3.6384,-3.6631,-3.7235,-3.6924,-3.6658,-3.6699,-3.8537,-3.9727,-4.0104,-4.0098,-4.0115,-4.0087,-4.0098,-4.0098,-4.007,-4.007,-4.007,-4.007,-4.007,-4.007,-1.4474,-1.591,-1.7577,-1.8436,-1.8636,-1.841,-1.7771,-1.7101,-1.6855,-1.7285,-1.7402,0.0,0.0,0.0,0.0,0.0,0.0,0.0,0.0,0.0,0.0,0.0,0.0,0.0,0.0,0.0,0.0,0.0,0.0,0.0,0.0,0.0,0.0,0.0,-2.208,-2.2839,-2.39,-2.5509,-2.6706,-2.737,-2.8496,-2.8988,-2.9001,-2.9553,-2.9792,-2.9779,-2.9503,-2.9377,-2.9377,-2.9377,-2.9377,-2.9377,-2.9377,-2.9553,-2.9754,-2.9478,-2.9834,-3.062,-3.1536,-3.2464,-3.3463,-3.4394,-3.5067,-3.5504,-3.5504,-3.5504,-3.5504,-3.5504,-3.5504,-3.5504,-3.5504,-3.5504,-3.5504,-3.5504,-3.5504,-3.5504,-3.5504,-3.5504,-3.5504,-3.5504,-3.5504,-3.5504,-3.5504,-3.5504,-3.5504,-3.5504,-3.5504,-3.5504,-3.5504,-3.5504,-3.5668,-3.6054,-3.6054,-3.6243,-3.6662,-3.6763,-3.7065,-3.7729,-3.8794,-3.9618,-4.0087,-4.0093,-4.0127,-4.0087,-4.0068,-4.0085,-4.007,-4.007,-4.007,-4.007,-4.007,-4.007,-1.4516,-1.6158,-1.8086,-1.8817,-1.8889,-1.8595,-1.7841,-1.7168,-1.6616,-1.6475,0.0,0.0,0.0,0.0,0.0,0.0,0.0,0.0,0.0,0.0,0.0,0.0,0.0,0.0,0.0,0.0,0.0,0.0,0.0,0.0,0.0,0.0,-2.0664,-2.0941,-2.1017,-2.1709,-2.3125,-2.4105,-2.5246,-2.632,-2.7508,-2.8109,-2.8134,-2.9076,-2.9503,-2.9478,-2.9001,-2.8787,-2.8787,-2.8787,-2.8787,-2.8787,-2.8787,-2.9089,-2.9453,-2.8963,-2.9627,-3.0961,-3.1884,-3.2877,-3.3891,-3.492,-3.5359,-3.5489,-3.537,-3.5325,-3.531,-3.519,-3.516,-3.516,-3.516,-3.516,-3.516,-3.516,-3.516,-3.522,-3.5459,-3.5504,-3.5504,-3.5504,-3.5504,-3.5504,-3.5504,-3.5504,-3.5504,-3.5504,-3.5504,-3.5504,-3.5504,-3.5504,-3.5554,-3.5668,-3.5668,-3.5782,-3.607,-3.6631,-3.7551,-3.8756,-3.8756,-3.9076,-4.007,-4.0093,-4.0127,-4.0087,-4.0104,-4.0121,-4.007,-4.007,-4.007,-4.007,-4.007,-4.007,-1.468,-1.6697,-1.891,-1.9239,-1.9402,-1.9076,0.0,0.0,-1.6343,0.0,0.0,0.0,0.0,0.0,0.0,0.0,0.0,0.0,0.0,0.0,0.0,0.0,0.0,0.0,0.0,0.0,0.0,0.0,0.0,0.0,0.0,-1.9772,-2.0002,-2.0041,-2.0489,-2.0958,-2.1484,-2.261,-2.3886,-2.5204,-2.7162,-2.8109,-2.8109,-2.826,-2.8335,-2.8323,-2.8247,-2.821,-2.821,-2.821,-2.821,-2.821,-2.821,-2.826,-2.8323,-2.8247,-2.8635,-2.9314,-3.0322,-3.1626,-3.2961,-3.3891,-3.4758,-3.5385,-3.4801,-3.4607,-3.4487,-3.3918,-3.3769,-3.3769,-3.3769,-3.3769,-3.3769,-3.3769,-3.3769,-3.4083,-3.525,-3.5504,-3.5504,-3.5504,-3.5504,-3.5504,-3.5504,-3.5504,-3.5504,-3.5504,-3.5504,-3.5504,-3.5504,-3.5504,-3.5718,-3.6384,-3.6446,-3.7008,-3.8342,-3.8509,-3.8995,-3.9866,-3.9279,-3.9229,-4.007,-4.0093,-4.0127,-4.0087,-4.0096,-4.0096,-4.007,-4.007,-4.007,-4.007,-4.007,-4.007,-1.5885,-1.7557,-1.9108,-1.9534,-1.9633,-1.931,-1.8298,-1.7264,-1.6437,0.0,0.0,0.0,0.0,0.0,0.0,0.0,0.0,0.0,0.0,0.0,0.0,0.0,0.0,0.0,0.0,0.0,0.0,0.0,0.0,0.0,-1.8932,-1.9306,-1.9568,-1.9541,-1.98,0.0,-2.0478,-2.1521,-2.3025,-2.5008,-2.5913,-2.6658,-2.718,-2.718,-2.7519,-2.8084,-2.777,-2.7645,-2.7645,-2.7645,-2.7645,-2.7645,-2.7645,-2.7833,-2.8059,-2.7758,-2.7996,-2.8682,-3.013,-3.1034,-3.1805,-3.3253,-3.4021,-3.4322,-3.4023,-3.3918,-3.3858,-3.3574,-3.3499,-3.3499,-3.3499,-3.3499,-3.3499,-3.3499,-3.3499,-3.3664,-3.4247,-3.4382,-3.4487,-3.4861,-3.5235,-3.5504,-3.5504,-3.5504,-3.5504,-3.5504,-3.5504,-3.5504,-3.5504,-3.5504,-3.5619,-3.5943,-3.6006,-3.6228,-3.6919,-3.779,-3.843,-3.8778,-3.9279,-3.9731,-4.007,-4.0086,-4.0103,-4.0087,-4.0086,-4.0086,-4.007,-4.007,-4.007,-4.007,-4.007,-4.007,-1.6363,-1.7536,-1.8354,-1.9033,-1.9332,-1.9278,0.0,0.0,0.0,0.0,0.0,0.0,0.0,0.0,0.0,0.0,0.0,0.0,0.0,0.0,0.0,0.0,0.0,0.0,0.0,0.0,0.0,0.0,0.0,0.0,-1.8463,-1.8879,-1.9107,-1.9147,-1.9234,-1.9457,-1.9732,-2.0843,-2.2328,-2.4068,-2.459,-2.5238,-2.6094,-2.6233,-2.6766,-2.7657,-2.7256,-2.708,-2.708,-2.708,-2.708,-2.708,-2.708,-2.7318,-2.7632,-2.7218,-2.7549,-2.8421,-3.0038,-3.0807,-3.1411,-3.296,-3.3499,-3.3469,-3.3305,-3.3245,-3.3215,-3.3036,-3.2991,-3.2991,-3.2991,-3.2991,-3.2991,-3.2991,-3.2991,-3.3095,-3.3425,-3.3499,-3.3649,-3.4128,-3.4786,-3.525,-3.525,-3.5385,-3.5504,-3.5504,-3.5504,-3.5504,-3.5504,-3.5668,-3.5782,-3.5782,-3.5958,-3.6133,-3.6368,-3.7397,-3.8092,-3.8092,-3.8995,-3.961,-3.9782,-3.9437,-3.9489,-4.007,-3.9901,-3.9901,-4.007,-4.007,-4.007,-4.007,-4.007,-4.007,-1.5299,-1.5832,-1.6149,-1.7237,-1.8302,-1.8848,0.0,0.0,0.0,0.0,0.0,0.0,0.0,0.0,0.0,0.0,0.0,0.0,0.0,0.0,0.0,0.0,0.0,0.0,0.0,0.0,0.0,0.0,0.0,0.0,-1.7979,-1.8448,-1.8644,-1.8634,-1.9093,-1.9328,-1.9316,-2.072,-2.1439,-2.1617,-2.3408,-2.4529,-2.5063,-2.5469,-2.5975,-2.6609,-2.6584,-2.6571,-2.6571,-2.6571,-2.6571,-2.6571,-2.6571,-2.6584,-2.6609,-2.6584,-2.7344,-2.8594,-2.9679,-3.0918,-3.2205,-3.3161,-3.3499,-3.338,-3.2751,-3.2557,-3.2437,-3.175,-3.1571,-3.1571,-3.1571,-3.1571,-3.1571,-3.1571,-3.1571,-3.1973,-3.323,-3.3499,-3.3499,-3.3544,-3.4083,-3.4532,-3.4532,-3.507,-3.5504,-3.5504,-3.5504,-3.5504,-3.5504,-3.6117,-3.6554,-3.6554,-3.7219,-3.7962,-3.8674,-3.8799,-3.8854,-3.8854,-3.8246,-3.8262,-3.8908,-3.7526,-3.7815,-4.007,-3.9368,-3.9315,-4.007,-4.007,-4.007,-4.007,-4.007,-4.007,-1.5028,-1.5978,0.0,-1.7309,-1.7932,-1.8437,-1.8139,0.0,0.0,0.0,0.0,0.0,0.0,0.0,0.0,0.0,0.0,0.0,0.0,0.0,0.0,0.0,0.0,0.0,0.0,0.0,0.0,0.0,0.0,0.0,-1.7126,-1.7571,-1.7833,-1.7833,-1.8223,-1.8595,-1.8867,-1.965,-2.0359,-2.0997,-2.2246,-2.3247,-2.4062,-2.4777,-2.5209,-2.541,-2.541,-2.5799,-2.6533,-2.6533,-2.6533,-2.6533,-2.6533,-2.6533,-2.6533,-2.6533,-2.6772,-2.7446,-2.8869,-2.9728,-3.0354,-3.1781,-3.2243,-3.2198,-3.1958,-3.1884,-3.1839,-3.1541,-3.1482,-3.1482,-3.1482,-3.1482,-3.1482,-3.1482,-3.1482,-3.1601,-3.2138,-3.2557,-3.2871,-3.2871,-3.3395,-3.3844,-3.3844,-3.4397,-3.4846,-3.4846,-3.522,-3.5504,-3.5504,-3.5718,-3.5894,-3.5894,-3.6133,-3.6646,-3.735,-3.7905,-3.8414,-3.8854,-3.9156,-3.9385,-3.9662,-3.9139,-3.9262,-4.007,-3.9833,-3.9782,-4.007,-4.007,-4.007,-4.007,-4.007,-4.007,-1.46,-1.558,-1.6616,0.0,0.0,-1.7672,-1.7896,0.0,0.0,0.0,0.0,0.0,0.0,0.0,0.0,0.0,0.0,0.0,0.0,0.0,0.0,0.0,0.0,0.0,0.0,0.0,0.0,0.0,0.0,0.0,-1.6708,-1.698,-1.7249,-1.7427,-1.7629,-1.7998,-1.8418,-1.8848,-1.9421,-2.0112,-2.1185,-2.2162,-2.301,-2.4079,-2.4644,-2.482,-2.482,-2.5234,-2.5912,-2.5912,-2.6013,-2.6163,-2.6163,-2.6289,-2.6533,-2.6533,-2.6658,-2.7095,-2.8492,-2.9192,-2.9628,-3.1029,-3.1482,-3.1482,-3.1482,-3.1482,-3.1482,-3.1482,-3.1482,-3.1482,-3.1482,-3.1482,-3.1482,-3.1482,-3.1482,-3.1482,-3.1482,-3.1884,-3.2183,-3.2183,-3.2721,-3.3155,-3.3155,-3.3709,-3.4143,-3.4143,-3.4726,-3.516,-3.516,-3.5582,-3.5894,-3.5894,-3.6352,-3.6874,-3.7306,-3.785,-3.8406,-3.8891,-3.9151,-3.9411,-3.9714,-3.9454,-3.9558,-4.007,-3.9833,-3.9833,-4.007,-4.007,-4.007,-4.007,-4.007,-4.007,0.0,0.0,0.0,0.0,0.0,0.0,0.0,0.0,0.0,0.0,0.0,0.0,0.0,0.0,0.0,0.0,0.0,0.0,0.0,0.0,0.0,0.0,0.0,0.0,0.0,0.0,0.0,0.0,0.0,-1.627,-1.6616,-1.6694,-1.6921,-1.7334,-1.7363,-1.7568,-1.7988,-1.8398,-1.8533,-1.8613,-2.0347,-2.1397,-2.198,-2.3329,-2.4255,-2.477,-2.477,-2.477,-2.477,-2.4808,-2.5121,-2.5573,-2.5573,-2.5912,-2.6483,-2.6483,-2.6934,-2.7776,-2.8657,-2.9552,-3.0389,-3.1219,-3.1482,-3.1482,-3.1482,-3.1482,-3.1482,-3.1482,-3.1482,-3.1482,-3.1482,-3.1482,-3.1482,-3.1482,-3.1482,-3.1482,-3.1482,-3.1482,-3.1482,-3.1482,-3.2048,-3.2482,-3.2482,-3.3036,-3.3469,-3.3469,-3.4023,-3.4442,-3.4442,-3.5691,-3.6492,-3.6492,-3.7866,-3.8734,-3.8788,-3.8839,-3.8858,-3.8863,-3.82,-3.8134,-3.8826,-3.8197,-3.8492,-4.002,-3.9249,-3.9249,-4.002,-4.0054,-4.007,-4.007,-4.007,-4.007,-1.3765,0.0,0.0,0.0,0.0,0.0,0.0,0.0,0.0,0.0,0.0,0.0,0.0,0.0,0.0,0.0,0.0,0.0,0.0,0.0,0.0,0.0,0.0,0.0,0.0,0.0,0.0,0.0,-1.542,-1.5644,-1.5732,-1.6059,-1.6471,-1.6894,-1.6914,-1.7119,-1.7549,-1.7676,-1.7881,-1.8184,-1.9287,-2.0204,-2.1048,-2.2025,-2.2886,-2.3602,-2.3602,-2.3602,-2.3603,-2.4481,-2.4908,-2.5034,-2.5034,-2.5134,-2.5272,-2.5272,-2.563,-2.6398,-2.7903,-2.8816,-2.9566,-3.1029,-3.1482,-3.1482,-3.1482,-3.1482,-3.1482,-3.1482,-3.1482,-3.1482,-3.1482,-3.1482,-3.1482,-3.1482,-3.1482,-3.1482,-3.1482,-3.1482,-3.1482,-3.1482,-3.1616,-3.1809,-3.1809,-3.2347,-3.2781,-3.2781,-3.335,-3.3769,-3.3769,-3.4089,-3.4379,-3.4379,-3.4758,-3.5217,-3.5796,-3.6329,-3.6832,-3.7327,-3.7686,-3.7968,-3.817,-3.797,-3.807,-3.8497,-3.8285,-3.8285,-3.8514,-3.9563,-4.007,-4.007,-4.007,-4.007,-1.4256,-1.5025,-1.5948,0.0,0.0,0.0,0.0,-1.5622,0.0,0.0,0.0,0.0,0.0,0.0,0.0,0.0,0.0,0.0,0.0,0.0,0.0,0.0,0.0,0.0,0.0,0.0,0.0,0.0,-1.4746,-1.4934,-1.5115,-1.5596,-1.6004,-1.6445,-1.6455,-1.667,-1.7109,-1.7109,-1.7236,-1.7471,-1.8356,-1.9084,-1.9832,-2.1039,-2.1982,-2.2628,-2.2944,-2.3078,-2.3128,-2.3841,-2.4255,-2.4481,-2.4481,-2.4619,-2.482,-2.482,-2.5178,-2.5923,-2.7291,-2.8196,-2.8926,-3.029,-3.0717,-3.0717,-3.0717,-3.0717,-3.0717,-3.0717,-3.0911,-3.1165,-3.1465,-3.1315,-3.1106,-3.1106,-3.1106,-3.1106,-3.1106,-3.133,-3.1482,-3.1482,-3.1482,-3.1482,-3.1482,-3.1795,-3.2108,-3.2108,-3.2662,-3.308,-3.308,-3.332,-3.3499,-3.3499,-3.3774,-3.4281,-3.5059,-3.5492,-3.613,-3.7186,-3.7376,-3.7584,-3.7889,-3.7905,-3.7905,-3.7905,-3.7905,-3.7905,-3.7905,-3.8751,-3.9326,-3.9631,-3.9631,-3.9783,-1.5073,-1.5332,-1.5756,-1.563,0.0,0.0,-1.6144,-1.5932,0.0,0.0,0.0,0.0,0.0,0.0,0.0,0.0,0.0,0.0,0.0,0.0,0.0,0.0,0.0,0.0,0.0,0.0,-1.3647,-1.3987,-1.4079,-1.4327,-1.4745,-1.5135,-1.5547,-1.6037,-1.5986,-1.6201,-1.665,-1.666,-1.668,-1.6728,-1.7513,-1.8082,-1.8585,-2.0202,-2.1283,-2.1856,-2.2676,-2.3015,-2.3078,-2.3078,-2.3439,-2.3904,-2.3904,-2.4205,-2.4632,-2.4632,-2.5077,-2.5814,-2.6799,-2.7563,-2.8325,-2.9277,-2.9579,-2.9579,-2.9579,-2.9579,-2.9579,-2.9579,-2.9983,-3.0537,-3.115,-3.0866,-3.0402,-3.0402,-3.0402,-3.0402,-3.0402,-3.0881,-3.1315,-3.1315,-3.1377,-3.1482,-3.1482,-3.1482,-3.1482,-3.1482,-3.2033,-3.2407,-3.2407,-3.2916,-3.3275,-3.3275,-3.3905,-3.4628,-3.5307,-3.5367,-3.596,-3.7441,-3.6915,-3.6895,-3.7618,-3.7652,-3.7652,-3.7652,-3.7652,-3.7652,-3.7652,-3.7821,-3.8244,-3.887,-3.887,-3.9225,-1.5277,-1.5599,-1.6145,-1.5254,0.0,0.0,-1.5359,-1.5116,0.0,0.0,0.0,0.0,0.0,0.0,0.0,0.0,0.0,0.0,0.0,0.0,0.0,0.0,0.0,0.0,0.0,0.0,-1.354,-1.362,-1.3928,-1.4307,-1.4753,-1.4853,-1.5098,-1.5527,-1.5537,-1.5752,-1.6191,-1.6191,-1.6377,-1.6665,-1.6845,-1.7377,-1.8122,-1.9077,-2.0201,-2.1368,-2.2108,-2.2723,-2.3078,-2.3078,-2.314,-2.3314,-2.3314,-2.3315,-2.3403,-2.3403,-2.3802,-2.4553,-2.6068,-2.6909,-2.7678,-2.9098,-2.9579,-2.9579,-2.9579,-2.9579,-2.9579,-2.9579,-2.9669,-2.9789,-2.9924,-2.9864,-2.9759,-2.9759,-2.9759,-2.9759,-2.9759,-2.9864,-2.9968,-2.9968,-3.0806,-3.1482,-3.1482,-3.1482,-3.1482,-3.1482,-3.1586,-3.1676,-3.1676,-3.1839,-3.1913,-3.1913,-3.2015,-3.2403,-3.3139,-3.3215,-3.3818,-3.5166,-3.5081,-3.5335,-3.6016,-3.6062,-3.6062,-3.6062,-3.6062,-3.6062,-3.6062,-3.7297,-3.7973,-3.8125,-3.8125,-3.8193,-1.6022,-1.6089,-1.6384,-1.5831,0.0,0.0,0.0,0.0,-1.5363,0.0,0.0,0.0,0.0,0.0,0.0,0.0,0.0,0.0,0.0,0.0,0.0,0.0,0.0,0.0,0.0,0.0,-1.3047,-1.2704,-1.3036,-1.3406,-1.3619,-1.3846,-1.4315,-1.5088,-1.5098,-1.5303,-1.5732,-1.5732,-1.585,-1.6074,-1.6074,-1.6426,-1.7104,-1.8283,-1.9317,-2.0203,-2.1412,-2.2221,-2.2711,-2.2422,-2.2472,-2.2749,-2.3025,-2.3078,-2.3078,-2.3078,-2.3782,-2.4832,-2.5627,-2.6553,-2.7541,-2.8337,-2.8577,-2.8577,-2.8577,-2.8577,-2.8652,-2.8996,-2.9086,-2.916,-2.949,-2.934,-2.9086,-2.9086,-2.9086,-2.9086,-2.9086,-2.934,-2.9579,-2.9579,-3.0118,-3.0657,-3.0971,-3.1016,-3.1135,-3.1422,-3.1482,-3.164,-3.2007,-3.2064,-3.216,-3.2516,-3.2555,-3.281,-3.3531,-3.3582,-3.4037,-3.5052,-3.5098,-3.5253,-3.5577,-3.5622,-3.5622,-3.5622,-3.5622,-3.5622,-3.5622,-3.64,-3.6958,-3.7347,-3.7347,-3.755,0.0,0.0,0.0,0.0,0.0,-1.6056,0.0,0.0,0.0,-1.615,0.0,0.0,0.0,0.0,0.0,0.0,0.0,0.0,0.0,0.0,0.0,0.0,0.0,0.0,0.0,0.0,-1.2686,-1.2036,-1.2126,-1.2298,-1.2477,-1.2832,-1.3487,-1.4648,-1.4746,-1.4951,-1.5283,-1.5371,-1.541,-1.541,-1.541,-1.5596,-1.5998,-1.7608,-1.8576,-1.9095,-2.0677,-2.1644,-2.2121,-2.1669,-2.1757,-2.2209,-2.2761,-2.2852,-2.2824,-2.2937,-2.3703,-2.483,-2.5108,-2.6101,-2.724,-2.7524,-2.7625,-2.7625,-2.7625,-2.7625,-2.7679,-2.8248,-2.8412,-2.8532,-2.9056,-2.8801,-2.8412,-2.8412,-2.8412,-2.8412,-2.8412,-2.8816,-2.919,-2.919,-2.919,-2.943,-3.0193,-3.0328,-3.0507,-3.1076,-3.115,-3.1407,-3.2112,-3.2346,-3.2647,-3.3323,-3.3547,-3.3887,-3.4528,-3.4479,-3.4752,-3.556,-3.547,-3.547,-3.5577,-3.5622,-3.5622,-3.5622,-3.5622,-3.5622,-3.5622,-3.5622,-3.5943,-3.6552,-3.6552,-3.6891,0.0,0.0,0.0,0.0,-1.6861,0.0,0.0,0.0,-1.6142,-1.5254,0.0,0.0,0.0,0.0,0.0,0.0,0.0,0.0,0.0,0.0,0.0,0.0,0.0,0.0,0.0,0.0,0.0,-1.2715,-1.1875,-1.1662,-1.2456,-1.252,-1.3069,-1.4136,-1.458,-1.4805,-1.4853,-1.5225,-1.541,-1.541,-1.541,-1.5439,-1.5537,-1.6998,-1.7991,-1.8645,-2.0129,-2.1121,-2.1581,-2.1518,-2.1531,-2.1631,-2.2184,-2.2108,-2.1732,-2.2221,-2.2513,-2.2847,-2.4137,-2.5037,-2.5892,-2.7188,-2.7625,-2.7625,-2.7625,-2.7625,-2.764,-2.7715,-2.7679,-2.7709,-2.7835,-2.779,-2.7679,-2.7679,-2.7679,-2.7679,-2.7679,-2.779,-2.785,-2.785,-2.785,-2.8255,-2.9475,-2.9684,-2.9714,-2.9789,-2.9804,-3.0053,-3.0648,-3.1313,-3.1973,-3.2633,-3.3235,-3.3887,-3.4528,-3.4037,-3.4252,-3.5515,-3.5052,-3.4988,-3.5577,-3.5622,-3.5622,-3.5622,-3.5622,-3.5622,-3.5622,-3.5622,-3.5673,-3.5757,-3.5757,-3.5791,0.0,0.0,0.0,0.0,0.0,0.0,-1.6287,0.0,-1.6379,0.0,0.0,0.0,0.0,0.0,0.0,0.0,0.0,0.0,0.0,0.0,0.0,0.0,0.0,0.0,0.0,0.0,0.0,0.0,0.0,-1.1031,-1.2052,-1.1729,-1.2223,-1.3698,-1.3945,-1.4277,-1.4785,-1.4961,-1.5176,-1.541,-1.541,-1.541,-1.5468,-1.6912,-1.7745,-1.8058,-1.9556,-2.0489,-2.0991,-2.0652,-2.0715,-2.1041,-2.1267,-2.1405,-2.1518,-2.1744,-2.2102,-2.262,-2.3632,-2.4427,-2.524,-2.6559,-2.7006,-2.7066,-2.7455,-2.7625,-2.7625,-2.7625,-2.7625,-2.7625,-2.7625,-2.7625,-2.7625,-2.7625,-2.7625,-2.7625,-2.7625,-2.7625,-2.7625,-2.7625,-2.7625,-2.7805,-2.8323,-2.8742,-2.9146,-2.952,-2.9579,-2.9962,-3.0933,-3.1338,-3.1948,-3.2948,-3.331,-3.3603,-3.389,-3.3649,-3.3739,-3.4293,-3.404,-3.4225,-3.4945,-3.4556,-3.4539,-3.4962,-3.4539,-3.4336,-3.4336,-3.4336,-3.4462,-3.48,-3.5324,-3.5622,-1.667,0.0,0.0,0.0,0.0,0.0,0.0,0.0,0.0,0.0,0.0,0.0,0.0,0.0,0.0,0.0,0.0,0.0,0.0,0.0,0.0,0.0,0.0,0.0,0.0,0.0,0.0,0.0,0.0,0.0,-1.149,-1.1234,-1.1657,-1.2998,-1.3336,-1.3799,-1.4434,-1.4551,-1.4756,-1.5068,-1.5186,-1.5244,-1.5302,-1.6858,-1.7578,-1.7688,-1.915,-2.0037,-2.0401,-1.9974,-2.0049,-2.0426,-2.0426,-2.0677,-2.1041,-2.1204,-2.1626,-2.2193,-2.2877,-2.3792,-2.4863,-2.5961,-2.6318,-2.6408,-2.6886,-2.7036,-2.7036,-2.7036,-2.7036,-2.7036,-2.7036,-2.7171,-2.7355,-2.7355,-2.749,-2.7625,-2.7625,-2.7625,-2.7625,-2.7625,-2.7625,-2.7625,-2.7625,-2.7979,-2.8487,-2.8966,-2.9026,-2.9477,-3.055,-3.1006,-3.1639,-3.2746,-3.3304,-3.3618,-3.3618,-3.3474,-3.3406,-3.3406,-3.3406,-3.3592,-3.3989,-3.3601,-3.366,-3.4184,-3.3838,-3.3618,-3.3618,-3.3457,-3.3584,-3.4006,-3.4834,-3.5341,0.0,0.0,0.0,-1.6522,0.0,0.0,0.0,0.0,-1.6522,0.0,0.0,0.0,0.0,0.0,-1.5501,-1.4962,0.0,0.0,0.0,0.0,0.0,0.0,0.0,0.0,0.0,0.0,0.0,0.0,0.0,0.0,-1.0862,-1.1404,-1.1774,-1.1832,-1.2909,-1.3516,-1.3545,-1.3955,-1.4107,-1.4126,-1.46,-1.4805,-1.487,-1.6763,-1.7578,-1.7688,-1.915,-1.9811,-1.9823,-1.9811,-1.9811,-1.9823,-1.9823,-1.9849,-1.9924,-2.0489,-2.0743,-2.0838,-2.1589,-2.3114,-2.4791,-2.5426,-2.5644,-2.5644,-2.5674,-2.5674,-2.5674,-2.5674,-2.5674,-2.5674,-2.5674,-2.6153,-2.6617,-2.6617,-2.7111,-2.7625,-2.7625,-2.7625,-2.7625,-2.7625,-2.7625,-2.7625,-2.7625,-2.764,-2.7655,-2.7685,-2.7685,-2.7925,-2.8584,-2.9779,-3.0812,-3.1502,-3.3156,-3.4151,-3.4151,-3.371,-3.3406,-3.3406,-3.3406,-3.3229,-3.2782,-3.3153,-3.3423,-3.344,-3.3922,-3.4151,-3.4151,-3.3634,-3.3423,-3.3457,-3.3989,-3.4732,0.0,0.0,-1.6522,-1.6522,0.0,0.0,0.0,0.0,0.0,0.0,0.0,0.0,0.0,0.0,-1.5526,-1.4979,-1.4613,0.0,0.0,0.0,0.0,0.0,0.0,0.0,0.0,0.0,0.0,0.0,0.0,0.0,0.0,-1.1962,-1.2027,-1.251,-1.2909,-1.3232,-1.3506,-1.3652,-1.3857,-1.4077,-1.4277,-1.4572,-1.5055,-1.6186,-1.6877,-1.7326,-1.8326,-1.8744,-1.8781,-1.9133,-1.9284,-1.9321,-1.966,-1.9798,-1.9823,-2.0024,-2.0087,-2.0243,-2.1345,-2.2454,-2.3554,-2.4624,-2.4956,-2.5046,-2.548,-2.5615,-2.5615,-2.5615,-2.5615,-2.5615,-2.5615,-2.5779,-2.5944,-2.5944,-2.6108,-2.6393,-2.6826,-2.6916,-2.7051,-2.7535,-2.7625,-2.7625,-2.7625,-2.7625,-2.771,-2.814,-2.8189,-2.8589,-2.9589,-3.0117,-3.0609,-3.1215,-3.1832,-3.2218,-3.2218,-3.2059,-3.1935,-3.1935,-3.1935,-3.1854,-3.1691,-3.1854,-3.228,-3.293,-3.2473,-3.2218,-3.2218,-3.2043,-3.1962,-3.1958,-3.2118,-3.3423,-1.6522,-1.6522,0.0,-1.6522,-1.6237,0.0,-1.5998,0.0,0.0,0.0,0.0,0.0,0.0,0.0,0.0,-1.4979,-1.4436,-1.3904,0.0,0.0,0.0,0.0,0.0,0.0,0.0,0.0,-1.3332,-1.355,0.0,0.0,0.0,0.0,-1.2295,-1.251,-1.2774,-1.3008,-1.3281,-1.3281,-1.3418,-1.3691,-1.3838,-1.4116,-1.4542,-1.544,-1.6165,-1.6814,-1.7533,-1.8001,-1.8229,-1.8593,-1.8731,-1.8769,-1.9108,-1.9359,-1.9547,-1.9736,-1.9798,-1.994,-2.1002,-2.1819,-2.2509,-2.3566,-2.4075,-2.4343,-2.4762,-2.4896,-2.4896,-2.4896,-2.4896,-2.4896,-2.4896,-2.5076,-2.5255,-2.5255,-2.5435,-2.5719,-2.6153,-2.6243,-2.6437,-2.7096,-2.7215,-2.7305,-2.758,-2.7625,-2.771,-2.814,-2.8367,-2.8779,-2.954,-3.0021,-3.0435,-3.0838,-3.1055,-3.119,-3.119,-3.119,-3.119,-3.119,-3.119,-3.1202,-3.12,-3.1219,-3.1517,-3.215,-3.1534,-3.119,-3.119,-3.119,-3.1219,-3.12,-3.12,-3.2246]}]]